           , 1.998,  2.145,  2.293,  2.441,  2.589,  2.736,  2.884,  3.032,  3.179,  3.327,  3.475,  3.623,  3.770,  3.918,  4.066,  4.213,  4.361,  4.509,  4.657,  4.804,  4.952,  5.100,  5.248,  5.395,  5.543,  5.691,  5.838,  5.986,  6.134,  6.282,  6.429,  6.577,  6.725,  6.872,  7.020,  7.168,  7.316,  7.463,  7.611,  7.759,  7.907,  8.054,  8.202,  8.350,  8.497,  8.645,  8.793,  8.941,  9.088,  9.236,  9.384,  9.531,  9.679,  9.827,  9.975, 10.122, 10.270, 10.418, 10.565, 10.713, 10.861, 11.009, 11.156, 11.304, 11.452, 11.600, 11.747, 11.895, 12.043, 12.190, 12.338, 12.486, 12.634, 12.781, 12.929, 13.077, 13.224, 13.372, 13.520, 13.668, 13.815, 13.963, 14.111, 14.259, 14.406, 14.554, 14.702, 14.849, 14.997, 15.145, 15.293, 15.440, 15.588, 15.736, 15.883, 16.031, 16.179, 16.327, 16.474, 16.622, 16.770, 16.917, 17.065, 17.213, 17.361, 17.508, 17.656, 17.804, 17.952, 18.099, 18.247, 18.395, 18.542, 18.690, 18.838, 18.986, 19.133, 19.281, 19.429, 19.576
1994/01/18 00:05,   25.8,   26.1,   23.6,   21.9,  999.0,   22.4,  999.0,   29.6,   33.3,   36.1,   36.9,   37.6,   38.6,   35.7,   35.2,   35.5,   35.4,   34.8,   35.4,   37.1,   37.6,  999.0,   35.2,   37.1,   37.4,   38.8,   38.0,   38.8,   39.3,   39.1,   39.3,   39.6,   40.4,   41.3,   42.6,   42.2,   42.9,   43.7,   44.2,   45.5,   46.2,   46.5,   46.7,   45.7,   47.0,   49.6,   49.0,   48.8,   52.0,   55.7,   60.3,   63.7,   71.2,   75.7,   70.4,   69.9,   70.5,   73.3,   76.8,   76.6,   77.4,  999.0,   77.6,  999.0,  999.0,  999.0,  999.0,  999.0,  999.0,  999.0,  999.0,   78.5,  999.0,   76.7,  999.0,   72.7,   75.3,   77.8,  999.0,   73.1,   66.5,   65.0,   67.1,  999.0,  999.0,   60.9,   65.8,   62.5,   63.7,   70.9,   65.1,   66.2,   50.5,   52.4,   40.4,   38.5,   37.4,   39.0,  999.0,   34.0,   38.1,   37.2,   39.8,   34.9,   33.7,   29.6,   25.9,   23.0,   19.8,   18.1,   18.3,   21.5,   22.3,   24.1,   23.8,   27.2,   25.7,   24.8,   23.3,  999.0
1994/01/18 00:15,   25.1,   26.6,   23.9,   23.0,   19.9,   18.1,   21.0,   27.9,   31.3,   36.1,   37.0,   36.9,   37.7,   37.4,   33.9,   34.4,   35.1,   35.1,   35.2,   36.0,   36.5,   35.7,   37.0,   37.9,   38.7,   38.0,   38.2,   39.1,   38.3,   38.1,   39.4,   40.0,   40.4,   40.6,   41.1,   41.6,   41.7,   43.1,   44.7,   46.2,   46.4,   46.7,   46.7,   46.0,   46.9,   49.9,   51.0,   51.7,   50.8,   54.2,   58.5,   62.9,   69.5,   76.8,   69.1,   71.1,   69.6,   73.0,   76.7,   77.7,   77.8,  999.0,  999.0,   76.1,  999.0,  999.0,  999.0,  999.0,  999.0,  999.0,  999.0,   78.4,  999.0,   78.5,   78.9,   68.7,   75.7,   78.3,   68.1,   67.8,   65.7,   63.2,   64.3,   63.6,   53.8,   58.6,   59.5,   55.3,   56.6,   61.9,   57.0,   55.7,   55.4,   44.5,   41.1,   38.2,   33.6,   34.1,   36.4,  999.0,   35.8,   39.2,   40.2,   35.6,   32.7,   31.2,   27.3,   21.3,   20.5,   17.0,   17.1,   20.3,   21.8,   24.6,   24.8,   24.4,   25.2,   26.5,   24.2,   27.3
1994/01/18 00:25,   22.1,   24.2,   23.5,   21.8,   18.7,   21.1,   25.4,   29.0,   32.3,   35.0,   36.8,   35.9,   37.0,   37.2,   35.1,   36.4,   35.9,   36.9,   35.6,   36.9,   37.5,   36.5,   38.2,   37.7,   38.8,   39.3,   37.9,   38.0,   38.2,   38.9,   39.8,   38.9,   39.2,   41.1,   40.7,   40.7,   43.2,   44.3,   44.3,   44.7,   44.9,   45.4,   46.2,   47.8,   49.4,   50.2,   50.3,   52.6,   53.0,   54.9,   59.4,   64.5,   71.4,   77.8,   71.5,   70.2,   70.5,   73.3,   78.3,   78.6,   79.9,  999.0,  999.0,   79.6,  999.0,  999.0,  999.0,  999.0,  999.0,  999.0,   76.9,   79.3,  999.0,   76.3,   75.4,   75.0,   77.7,   70.0,   69.0,   67.7,   67.8,   64.0,   63.3,   60.0,   58.0,   60.5,  999.0,   60.3,   60.4,   63.7,   58.1,   57.2,  999.0,   43.0,   43.7,   42.7,   37.6,   36.7,   38.2,  999.0,   36.0,   38.5,   39.7,   32.9,   31.3,   27.4,   23.4,   21.0,   19.3,   17.7,   17.1,   18.9,   21.0,   24.0,   21.5,   23.5,   23.3,   26.7,   22.1,   25.4
1994/01/18 00:35,   23.1,   24.6,   24.5,   22.9,   19.9,   25.1,   29.5,   32.7,   34.9,   35.9,   36.2,   36.9,   35.9,   34.9,   35.8,   37.0,   38.3,   37.1,   37.4,   38.1,   38.3,   37.5,   38.4,   38.4,   36.7,   37.1,   38.7,   38.8,   38.4,   37.7,   37.6,   37.8,   38.3,   40.2,   41.7,   42.2,   42.6,   43.1,   43.4,   43.9,   44.6,   45.5,   46.3,   46.4,   47.6,   47.4,   48.4,   51.2,   54.8,   56.2,   60.5,   65.8,   72.9,  999.0,   72.4,   71.7,   71.2,   76.4,   77.8,   77.8,   76.6,  999.0,  999.0,  999.0,  999.0,  999.0,  999.0,  999.0,  999.0,  999.0,   77.9,  999.0,  999.0,  999.0,   74.2,   78.2,   77.0,   71.2,   69.1,   69.8,   66.8,   64.4,   65.2,   56.6,   56.9,  999.0,   56.0,   59.8,   62.7,   60.6,   58.7,   58.8,  999.0,  999.0,   38.5,   41.3,   40.4,   35.3,   37.3,  999.0,   35.9,   39.3,   42.3,   34.1,   34.3,   30.6,   26.0,   23.1,   19.8,   19.5,   17.5,   19.7,   21.2,   24.6,   21.1,   25.1,   25.9,   24.1,   21.2,   23.9
1994/01/18 00:45,   22.6,   23.4,   23.6,   23.7,  999.0,   25.8,   29.6,   33.3,   36.0,   37.0,   37.1,   37.0,   36.4,   36.5,   38.0,   39.7,   40.7,   41.3,   39.7,   39.5,   37.7,   37.6,   36.5,   36.3,   37.2,   37.8,   38.9,   39.0,   39.2,   39.5,   39.7,   40.2,   40.9,   42.0,   42.6,   43.4,   43.6,   43.7,   45.5,   44.7,   44.7,   45.3,   45.9,   46.4,   47.4,   47.1,   47.4,   50.7,   53.5,   56.6,   62.3,   68.7,   75.5,   69.0,   69.8,   72.2,   71.8,   77.6,  999.0,   79.0,  999.0,   77.9,  999.0,  999.0,  999.0,  999.0,  999.0,  999.0,  999.0,   74.9,   78.4,  999.0,  999.0,   78.9,   79.1,   77.5,   68.2,   73.0,   70.4,   69.4,   73.9,  999.0,   65.0,   61.7,   58.8,   64.3,   55.5,   61.8,  999.0,   56.7,   57.7,   59.4,   45.8,  999.0,  999.0,   34.7,   38.0,   35.5,   32.1,   33.3,   33.6,   36.8,   36.0,   33.5,   30.2,   28.1,   24.5,   21.0,   19.5,   17.4,   16.9,   18.5,   21.8,   23.0,   23.3,   26.0,   24.8,   25.5,   22.5,   24.5
1994/01/18 00:55,   21.9,   21.8,   23.4,   23.7,   22.8,   26.6,   29.5,   33.7,   36.6,   37.5,   38.4,   38.4,   40.0,   41.2,   42.0,   41.8,   40.4,   40.4,   39.5,   38.7,   38.0,   37.7,   37.5,   37.7,   37.8,   38.1,   38.8,   39.4,   40.7,   41.7,   41.4,   41.8,   42.4,   42.9,   44.0,   44.8,   44.3,   44.0,   44.2,   45.2,   44.6,   45.2,   45.1,   45.2,   45.3,   46.3,   47.8,   50.0,   51.3,   55.6,   60.9,   68.3,   72.3,   68.1,   71.4,   70.7,   72.8,   76.9,  999.0,  999.0,  999.0,  999.0,  999.0,  999.0,  999.0,  999.0,  999.0,  999.0,  999.0,  999.0,   77.7,  999.0,  999.0,  999.0,  999.0,  999.0,  999.0,   74.2,   72.9,   68.6,   69.1,   67.9,   62.6,   61.2,   62.0,   51.8,   57.4,   61.5,   60.6,  999.0,   56.3,  999.0,   50.8,   47.6,  999.0,   42.9,   35.3,   38.4,   31.1,   35.4,   34.5,   38.9,  999.0,   29.8,   29.2,   26.7,   22.6,   18.7,   17.6,   16.4,   16.2,   19.3,   22.5,   24.8,   25.3,   28.3,  999.0,   28.0,   24.8,   24.0
1994/01/18 01:05,   21.2,   23.3,   22.6,   22.8,   23.1,   26.7,   29.0,   36.1,   38.0,   39.4,   40.2,   42.5,   43.0,   42.7,   41.4,   40.9,   40.5,   39.9,   39.5,   39.8,   40.4,   40.4,   40.8,   41.3,   41.2,   41.1,   41.6,   41.6,   41.2,   42.4,   42.3,   42.8,   43.5,   43.0,   43.0,   43.8,   43.4,   43.3,   43.0,   42.6,   43.0,   43.9,   44.7,   46.1,   47.1,   47.4,   48.0,   47.6,   52.2,   56.7,   60.6,   66.0,   71.9,   68.4,   73.4,   67.2,   74.2,   78.8,   79.7,   77.8,  999.0,  999.0,  999.0,  999.0,  999.0,  999.0,  999.0,  999.0,  999.0,  999.0,   74.7,  999.0,  999.0,   77.1,  999.0,  999.0,   70.1,   77.4,   72.8,   73.3,   67.6,   70.5,   61.3,   63.0,   63.6,  999.0,   58.8,   59.0,   64.9,   58.4,   56.9,   54.3,   50.4,   47.8,   44.3,   41.8,   36.2,   39.2,   33.1,   35.0,   38.7,   40.0,   38.2,   35.7,   32.0,   29.4,   25.1,   20.6,   18.9,   17.0,   16.8,   19.9,   22.5,   24.1,   23.5,   27.3,   29.0,   23.4,   22.9,   24.9
1994/01/18 01:15,   22.2,   22.8,   22.9,   22.3,  999.0,   29.7,   34.4,   37.1,   40.3,   43.3,   43.5,   43.8,   44.1,   44.2,   42.9,   42.0,   42.1,   41.6,   41.6,   41.5,   42.3,   41.3,   41.9,   41.9,   42.4,   42.3,   42.2,   43.4,   42.0,   42.6,   43.4,   43.0,   43.5,   44.2,   43.8,   44.4,   45.0,   45.0,   44.2,   43.1,   44.0,   45.9,   47.1,   48.4,   47.6,   48.8,   47.4,   49.2,   54.0,   56.9,   59.8,   62.4,   66.7,   69.7,   67.8,   67.3,   72.2,   77.8,   79.6,  999.0,  999.0,  999.0,  999.0,  999.0,  999.0,  999.0,  999.0,  999.0,  999.0,  999.0,   78.8,  999.0,  999.0,   74.4,  999.0,  999.0,   62.4,   74.5,   70.6,   73.4,   72.7,   63.8,   61.4,   63.8,   61.7,  999.0,  999.0,   57.1,   62.4,   65.0,   61.2,   58.4,   48.1,   46.6,   43.5,   40.8,   34.8,   38.7,  999.0,   35.6,   40.1,   41.5,   38.8,   37.4,   31.0,   27.4,   29.8,   19.9,   17.4,   17.2,   19.6,   21.8,   23.2,   24.2,   23.5,   25.9,   28.5,  999.0,   21.7,  999.0
1994/01/18 01:25,   21.4,   22.8,   22.7,   18.4,   22.5,   30.7,   35.9,   39.8,   40.6,   41.9,   42.0,   41.3,   40.1,   39.7,   39.7,   39.2,   39.4,   39.8,   40.7,   40.8,   41.1,   41.5,   41.8,   41.7,   41.3,   41.7,   41.6,   42.4,   42.8,   42.8,   44.1,   44.9,   44.9,   45.6,   45.7,   45.4,   45.4,   45.5,   45.2,   45.4,   46.2,   46.0,   46.1,   47.5,   47.7,   48.2,   50.0,   53.6,   55.8,   57.3,   60.1,   61.9,   64.8,   70.7,  999.0,   68.3,   72.1,   78.0,   79.0,  999.0,  999.0,  999.0,  999.0,  999.0,  999.0,  999.0,  999.0,  999.0,  999.0,  999.0,   79.4,  999.0,  999.0,  999.0,   75.4,  999.0,  999.0,   71.8,   73.9,   72.0,   70.3,  999.0,  999.0,   60.6,   61.6,   63.6,  999.0,  999.0,   55.6,   63.9,   63.7,   62.7,   57.2,   48.4,   43.4,   42.7,   34.7,   38.1,   36.0,   36.5,   42.6,   38.5,   39.3,   34.9,   34.3,   26.5,   22.9,   21.4,   26.9,   17.9,   19.9,   26.4,   21.9,   23.2,   23.7,   24.8,   26.7,   28.5,   22.8,   22.8
1994/01/18 01:35,   21.2,   22.5,   22.7,  999.0,  999.0,   28.1,   32.5,   36.6,   38.5,   38.8,   38.6,   38.5,   39.1,   39.6,   39.9,   39.7,   39.3,   39.1,   39.3,   38.6,   40.2,   39.9,   40.5,   40.9,   41.3,   41.4,   41.0,   41.2,   41.5,   41.1,   42.5,   43.8,   44.4,   44.6,   44.7,   45.4,   46.0,   45.9,   46.1,   45.9,   47.0,   48.5,   48.5,   47.6,   46.1,   48.9,   50.0,   52.2,   55.3,   57.9,   59.9,   62.2,   65.8,   70.1,   69.5,   70.7,   75.4,  999.0,  999.0,  999.0,  999.0,  999.0,  999.0,  999.0,  999.0,  999.0,  999.0,  999.0,  999.0,  999.0,  999.0,  999.0,  999.0,  999.0,   67.5,   76.7,  999.0,  999.0,   73.7,   71.5,   78.4,   69.2,   62.5,   58.6,   63.3,   64.1,   69.3,  999.0,   59.6,   65.9,   66.0,   64.9,   59.8,   57.1,   47.3,   43.8,   46.5,   37.9,   38.0,   41.0,   45.9,   43.6,   41.9,   39.7,   42.6,   31.1,   27.5,   23.3,   19.8,   20.8,   22.2,   24.1,   23.5,   23.3,   26.1,   26.2,   27.5,   26.2,   21.8,   23.2
1994/01/18 01:45,   20.1,   21.3,   21.1,   19.9,  999.0,   28.6,   33.4,   35.9,   36.8,   36.9,   37.0,   37.9,   38.1,   36.7,   37.1,   36.5,   37.2,   38.4,   38.4,   38.2,   37.7,   38.2,   38.4,   39.0,   38.4,   39.0,   39.6,   39.5,   39.6,   39.8,   40.3,   41.6,   42.2,   43.6,   45.3,   44.2,   43.0,   43.2,   44.4,   45.2,   46.0,   46.8,   47.4,   46.8,   46.6,   44.7,   47.2,   50.3,   54.3,   58.3,   62.4,   66.5,   69.8,   68.3,   67.0,   73.2,   72.5,   77.7,   79.0,  999.0,  999.0,  999.0,  999.0,  999.0,  999.0,  999.0,   54.0,  999.0,  999.0,  999.0,  999.0,  999.0,  999.0,  999.0,  999.0,   78.2,  999.0,   71.4,   74.9,   72.3,   79.0,   70.8,   73.1,   59.8,   65.3,   66.5,  999.0,  999.0,   62.8,   68.5,   67.6,   63.7,   52.2,   55.2,   52.2,   43.8,   45.5,   36.8,   38.2,   38.9,   43.2,   47.3,   45.9,   36.4,   35.9,   35.1,   26.4,   22.7,   19.5,   20.6,   23.4,   23.6,   23.1,   26.9,   27.9,   25.9,   27.8,   29.5,   25.6,  999.0
1994/01/18 01:55,   19.3,   21.3,   22.1,    0.1,   24.9,   30.3,   32.9,   36.2,   37.0,   36.5,   37.0,   37.3,   36.2,   37.1,   37.3,   37.9,   38.2,   39.2,   39.0,   39.6,   41.1,   40.8,   39.8,   40.0,   39.2,   39.1,   39.2,   39.3,   39.9,   40.7,   41.7,   42.4,   42.3,   42.6,   42.5,   42.3,   42.1,   42.4,   41.7,   42.6,   43.3,   44.1,   44.4,   45.8,   46.7,   46.0,   45.9,   48.3,   53.6,   59.0,   63.7,   71.0,   68.8,   64.3,   69.0,   71.7,   75.8,   78.2,   77.8,  999.0,  999.0,  999.0,  999.0,  999.0,  999.0,  999.0,  999.0,  999.0,  999.0,   79.6,  999.0,  999.0,   79.5,  999.0,  999.0,  999.0,  999.0,   75.1,   74.0,   72.1,   76.9,   70.6,   74.0,   63.0,   65.6,   67.2,   74.5,   58.8,   62.1,   68.4,   62.3,   65.3,   56.4,   51.6,   52.7,   43.6,   45.8,   42.4,  999.0,   35.5,   40.7,   46.3,   44.8,   40.4,   37.8,   37.6,   26.3,   24.5,   21.2,   22.7,   25.5,   25.7,   26.3,   27.6,   28.5,   28.0,   28.5,   22.5,   23.8,  999.0
1994/01/18 02:05,   19.2,   20.2,   20.2,   22.1,   26.7,   29.8,   32.5,   35.7,   36.1,   36.0,   36.0,   35.3,   36.4,   36.1,   36.4,   36.5,   37.4,   37.7,   38.0,   38.3,   37.7,   38.2,   38.6,   39.2,   39.9,   40.7,   39.6,   39.5,   40.2,   41.1,   41.0,   41.5,   41.7,   42.0,   42.2,   41.6,   41.2,   41.2,   41.2,   42.1,   42.2,   42.3,   43.3,   44.1,   45.8,   44.2,   44.0,   48.5,   53.4,   57.1,   62.3,   69.1,   67.9,   65.4,   66.2,   68.3,   75.4,   75.8,   76.7,  999.0,  999.0,  999.0,  999.0,  999.0,  999.0,  999.0,  999.0,  999.0,  999.0,  999.0,  999.0,   76.9,  999.0,  999.0,  999.0,  999.0,  999.0,   75.8,  999.0,   70.7,   74.1,   73.6,   71.3,   66.0,   67.7,   71.7,  999.0,   65.9,   65.1,   66.7,   67.0,   63.9,   60.0,   50.7,   56.5,   49.3,   44.7,   42.8,   41.5,   40.4,   42.0,   47.3,   47.3,   52.3,   38.3,   41.0,   27.5,   26.9,   22.5,   24.3,   27.7,   27.0,   28.6,   30.4,   31.1,   28.1,   27.8,   20.6,   24.0,  999.0
1994/01/18 02:15,   18.9,   19.7,   20.6,   -0.3,   27.2,   29.9,   31.0,   33.7,   34.3,   35.4,   35.6,   35.5,   35.4,   36.8,   37.5,   37.2,   36.4,   36.2,   36.2,   35.4,   37.5,   38.6,   39.8,   40.5,   40.9,   41.1,   41.3,   42.4,   42.5,   41.5,   42.5,   42.4,   43.0,   41.8,   42.6,   42.0,   41.8,   41.6,   42.1,   41.9,   41.7,   41.2,   41.6,   41.1,   40.4,   42.1,   45.8,   47.9,   52.9,   58.1,   64.0,   68.8,   65.3,   62.5,   67.3,   68.7,   75.9,   77.6,   76.6,  999.0,  999.0,  999.0,  999.0,  999.0,  999.0,  999.0,  999.0,  999.0,  999.0,  999.0,  999.0,   79.0,  999.0,  999.0,   78.7,  999.0,  999.0,   77.1,  999.0,   71.3,   76.4,   68.5,   69.6,   63.6,   67.1,   71.8,  999.0,   58.8,   65.3,  999.0,   65.9,   68.3,   62.6,   51.8,   55.0,   45.4,   45.5,   44.6,   38.4,   38.4,   40.1,   43.7,   45.4,  999.0,   35.9,   34.2,   26.7,   24.5,   21.0,   24.3,   27.3,   26.4,   29.1,   30.9,   30.4,   34.9,  999.0,  999.0,   24.9,  999.0
1994/01/18 02:25,   19.0,   20.1,   20.7,    0.3,   26.0,   29.0,   29.8,   32.7,   34.2,   34.3,   34.4,   35.4,   36.6,   37.2,   36.6,   36.8,   36.8,   36.9,   36.2,   37.2,   36.4,   37.8,   38.9,   39.2,   40.4,   40.2,   41.7,   42.1,   43.2,   42.9,   43.2,   42.0,   41.6,   42.9,   43.6,   42.5,   42.3,   42.2,   42.4,   43.0,   43.1,   43.6,   42.5,   42.0,   42.9,   45.6,   46.9,   51.0,   55.6,   60.9,   66.0,   66.8,   66.6,   64.4,   67.7,   70.8,   76.6,   79.1,  999.0,   43.0,  999.0,  999.0,  999.0,  999.0,  999.0,  999.0,  999.0,  999.0,  999.0,  999.0,   78.8,  999.0,  999.0,  999.0,  999.0,  999.0,   74.4,   75.5,   77.7,   72.8,   76.9,   72.5,   68.2,   65.9,   68.7,  999.0,  999.0,  999.0,   64.9,   61.6,   62.8,   67.7,   60.5,   53.8,   49.6,   51.2,   42.2,   41.6,   40.6,   36.1,   38.6,   41.5,   45.2,   34.5,   33.0,   32.4,   25.4,   21.9,   21.0,   23.4,   25.9,   27.5,   29.1,  999.0,   27.2,   27.3,   28.8,  999.0,   19.7,   20.0
1994/01/18 02:35,   17.9,   19.5,   20.9,   24.3,   26.5,   30.1,   29.3,   32.7,   35.2,   34.1,   33.9,   34.1,   36.1,   35.6,   37.0,   36.9,   33.8,   35.0,   35.0,   35.5,   37.1,   38.6,   40.0,   40.5,   39.9,   40.2,   42.3,   43.6,   43.3,   42.8,   42.7,   42.4,   41.7,   41.8,   41.9,   42.0,   42.7,   44.0,   45.0,   44.5,   44.7,   42.6,   42.0,   45.0,   47.9,   42.9,   46.9,   50.5,   53.3,   59.0,   64.6,   67.2,   64.0,   66.6,   69.3,   70.9,   78.5,   78.4,  999.0,  999.0,  999.0,  999.0,  999.0,  999.0,  999.0,  999.0,  999.0,  999.0,  999.0,  999.0,  999.0,   79.4,  999.0,  999.0,   78.0,  999.0,  999.0,   78.0,  999.0,   72.7,   78.2,   72.5,   66.6,   65.6,   69.6,  999.0,  999.0,  999.0,   65.4,   61.1,   64.1,   64.0,   62.1,   57.6,   51.7,   49.0,   46.5,   39.0,   40.8,   38.8,   36.6,   39.9,   42.6,   46.0,   34.9,   32.3,   30.4,   26.2,   21.0,   23.0,   26.4,   24.8,  999.0,  999.0,   27.7,  999.0,   25.0,   22.7,   18.9,   19.7
1994/01/18 02:45,   18.0,   20.1,   21.8,   24.4,   28.8,   28.2,   30.4,   34.1,   35.2,   33.4,   34.0,   33.9,   35.0,   34.1,   34.4,   34.2,   32.2,   33.6,   34.5,   35.4,   38.2,   39.5,   40.5,   41.1,   40.6,   40.2,   40.8,   42.8,   43.7,   44.6,   43.4,   42.1,   41.2,   41.7,   41.7,   43.3,   44.6,   45.1,   45.3,   44.9,   43.2,   44.0,   46.4,   47.3,   43.4,   45.9,   46.3,   49.6,   52.6,   57.8,   62.5,   65.8,   65.6,   70.2,   66.1,   72.2,   78.2,   77.5,   78.5,  999.0,  999.0,  999.0,  999.0,  999.0,  999.0,  999.0,  999.0,  999.0,  999.0,  999.0,  999.0,  999.0,  999.0,  999.0,  999.0,  999.0,  999.0,   78.5,  999.0,   71.4,   74.4,   69.2,   67.8,   65.1,   68.1,  999.0,  999.0,  999.0,  999.0,   59.5,   62.7,   67.0,   64.8,   61.1,   49.7,   49.3,   46.8,   41.3,   39.8,   40.5,   36.9,   40.4,   42.0,   45.9,   37.8,   34.1,   31.1,   26.1,   23.4,   23.7,   26.7,   29.6,   28.8,   30.4,   25.1,   28.9,   29.6,   25.3,   22.6,   25.4
1994/01/18 02:55,   17.9,   19.9,   20.4,   24.0,   30.2,   28.8,   29.4,   31.7,   33.6,   35.4,   36.0,   35.6,   33.6,   33.4,   33.3,   31.9,   32.8,   34.6,   36.6,   37.3,   37.1,   37.2,   39.0,   40.3,   38.9,   39.8,   40.6,   41.6,   44.2,   43.9,   42.2,   41.6,   41.8,   42.6,   43.1,   43.9,   43.4,   42.7,   44.0,   44.0,   42.1,   44.6,   41.7,   41.9,   44.4,   45.5,   45.9,   48.4,   52.0,   56.4,   61.2,   64.2,   68.1,   67.1,   65.7,   72.5,   79.2,   76.9,   80.0,   79.8,  999.0,  999.0,  999.0,  999.0,  999.0,  999.0,  999.0,  999.0,  999.0,  999.0,  999.0,  999.0,  999.0,  999.0,  999.0,  999.0,  999.0,   75.9,  999.0,   67.6,   71.9,   70.7,   69.2,   64.9,   66.9,  999.0,  999.0,  999.0,  999.0,  999.0,   61.6,   66.1,   63.3,   58.8,   50.1,   48.5,   48.8,   48.0,   38.4,   37.5,   36.0,  999.0,   39.7,   43.2,   37.5,   35.8,   28.8,   24.3,   23.5,   24.2,   26.7,   28.5,   30.2,   27.2,   28.4,   27.6,   28.9,   27.1,   23.3,   20.9
1994/01/18 03:05,   18.8,   19.6,   21.8,   24.1,   27.8,   27.6,   28.7,   32.9,   34.2,   34.1,   33.8,   34.1,   33.3,   33.6,   34.0,   38.3,   35.4,   35.3,   36.1,   36.9,   37.4,   38.3,   38.0,   37.6,   38.7,   38.6,   40.3,   42.5,   45.0,   41.2,   41.6,   43.0,   44.5,   43.2,   43.0,   43.7,   44.9,   43.3,   43.9,   43.5,   44.0,   45.1,   44.2,   45.2,   47.0,   45.1,   44.2,   46.3,   49.9,   55.2,   60.9,   63.8,   70.0,   69.7,   69.3,   70.8,   78.9,   76.9,   78.2,   79.7,  999.0,  999.0,  999.0,  999.0,  999.0,  999.0,  999.0,  999.0,  999.0,  999.0,   76.5,  999.0,  999.0,  999.0,  999.0,  999.0,  999.0,  999.0,   76.6,   74.8,   67.9,   69.5,   66.4,   63.7,   65.0,  999.0,  999.0,  999.0,  999.0,  999.0,   58.3,   63.5,   65.8,  999.0,  999.0,  999.0,   42.8,   44.5,   41.4,   37.5,   36.2,   35.2,   40.2,   38.2,   37.0,   34.8,   30.1,   24.1,   23.6,   25.3,   28.8,   29.4,   30.2,   29.0,  999.0,   25.1,   24.9,   23.0,   22.5,   22.5
1994/01/18 03:15,   17.9,   19.6,   20.7,   23.9,   27.4,   27.5,   30.4,   32.9,   33.5,   33.5,   32.9,   33.3,   33.2,   35.5,   36.9,   37.6,   38.2,   37.0,   37.4,   37.5,   39.3,   39.0,   39.1,   39.2,   39.6,   39.8,   40.4,   40.5,   40.9,   40.7,   40.1,   40.5,   42.2,   41.5,   43.0,   43.6,   43.9,   44.5,   44.2,   46.2,   48.2,   47.6,   46.2,   46.6,   48.1,   41.7,   45.1,   47.1,   51.0,   55.2,   60.0,   64.1,   70.1,   70.4,   67.9,   73.2,   77.8,   77.4,  999.0,  999.0,  999.0,  999.0,  999.0,  999.0,  999.0,  999.0,  999.0,  999.0,  999.0,  999.0,  999.0,  999.0,  999.0,  999.0,  999.0,  999.0,  999.0,   76.3,   75.3,   76.0,   68.2,   71.7,   68.4,   65.0,   63.1,   62.8,   60.1,   64.0,  999.0,  999.0,   57.1,   62.0,   65.7,   59.2,   55.3,   45.0,   42.0,   44.1,   40.8,   39.5,   36.1,   35.2,   37.7,   39.1,   34.7,   33.3,   27.7,   22.2,   21.2,   24.2,   27.6,   26.8,   28.2,  999.0,   31.5,   24.3,   24.3,   25.0,   24.8,   18.7
1994/01/18 03:25,   17.4,   19.6,   20.4,   22.5,   25.8,   26.1,   27.6,   29.7,   32.0,   33.0,   33.0,   34.1,   35.7,   37.3,   38.3,   36.5,   36.5,   37.2,   37.4,   37.7,   38.7,   39.1,   40.2,   39.4,   39.9,   39.8,   39.9,   40.2,   40.0,   40.0,   40.6,   41.5,   40.3,   40.4,   42.9,   41.1,   42.0,   43.6,   44.8,   45.3,   46.1,   45.8,   44.8,   43.0,   43.3,   43.2,   45.1,   47.2,   51.6,   58.7,   61.1,   66.6,   70.7,   71.3,   68.2,   75.8,   74.1,   76.3,   77.6,  999.0,  999.0,  999.0,  999.0,  999.0,  999.0,  999.0,  999.0,  999.0,  999.0,  999.0,  999.0,  999.0,  999.0,  999.0,  999.0,  999.0,  999.0,   76.3,   79.6,   71.8,   70.4,   69.5,   67.4,   62.9,   63.4,   63.9,  999.0,  999.0,  999.0,  999.0,  999.0,   59.2,   61.6,   58.9,   51.9,   52.4,   46.0,   41.4,   40.6,   37.0,   34.9,   34.3,   39.0,   37.7,   35.0,   31.8,   26.2,   21.0,   21.2,   24.2,   27.1,   28.1,   28.7,   28.5,  999.0,   24.1,   23.5,   24.7,   24.8,  999.0
1994/01/18 03:35,   17.7,   18.7,   19.9,   21.9,   25.5,   26.9,   28.1,   30.0,   32.5,   32.6,   33.8,   35.0,   37.6,   37.8,   38.8,   36.7,   38.9,   38.3,   37.8,   37.5,   38.6,   38.9,   39.8,   41.4,   40.9,   39.1,   39.0,   39.6,   40.0,   41.7,   42.3,   41.6,   40.9,   42.2,   42.0,   43.0,   43.0,   43.8,   43.9,   45.0,   45.5,   44.7,   43.7,   43.7,   44.4,   44.8,   47.4,   52.6,   58.7,   58.0,   62.7,   70.3,   70.6,   69.0,   73.6,   74.0,   74.3,   79.0,   79.2,   79.1,  999.0,  999.0,  999.0,  999.0,  999.0,  999.0,  999.0,  999.0,  999.0,  999.0,   79.6,  999.0,  999.0,  999.0,  999.0,  999.0,  999.0,   79.2,  999.0,   70.6,   75.9,   63.0,   67.5,   65.2,   63.3,   65.3,   55.3,  999.0,  999.0,  999.0,  999.0,   57.6,   62.8,   57.3,   55.3,   48.9,   47.5,   40.9,   40.4,   35.4,   37.4,   33.5,   38.6,   37.6,   36.1,   30.7,   25.6,   20.6,   20.9,   23.5,   26.1,   27.1,   28.6,   25.9,   24.4,   25.3,   22.6,   22.1,   22.9,  999.0
1994/01/18 03:45,   17.5,   18.9,   20.9,   21.8,   26.3,   26.7,   28.1,   30.4,   33.3,   33.2,   35.1,   35.5,   36.8,   37.0,   36.3,   38.5,   38.9,   37.6,   36.6,   37.4,   38.2,   37.6,   38.2,   38.9,   39.7,   38.0,   38.7,   38.9,   39.4,   40.7,   39.1,   41.4,   42.5,   42.6,   42.6,   43.2,   42.8,   44.7,   45.0,   43.4,   43.7,   43.9,   43.3,   43.6,   45.0,   47.8,   49.3,   55.7,   58.0,   60.0,   66.3,   71.4,   69.6,   71.5,   73.3,   70.4,   74.1,  999.0,   79.0,  999.0,  999.0,  999.0,  999.0,  999.0,  999.0,  999.0,  999.0,  999.0,  999.0,  999.0,   79.5,  999.0,  999.0,  999.0,   79.5,  999.0,  999.0,   76.1,  999.0,   75.6,   75.6,   72.8,   66.3,   65.7,   62.0,   65.9,  999.0,  999.0,  999.0,  999.0,  999.0,   57.0,   61.2,   57.6,   57.2,  999.0,   44.3,   40.8,   38.0,   35.9,   35.2,   35.6,   37.5,   35.4,   33.3,   29.3,   25.6,   19.9,   20.5,   22.6,   26.6,   27.3,   28.3,  999.0,  999.0,  999.0,  999.0,   23.0,   21.3,  999.0
1994/01/18 03:55,   20.1,   20.8,   22.0,   24.1,   25.7,   25.9,   27.2,   29.5,   32.1,   32.6,   34.1,   35.6,   36.8,   36.1,   36.3,   35.9,   36.5,   37.6,   37.9,   37.5,   37.7,   39.2,   39.3,   38.9,   38.7,   36.3,   37.9,   39.2,   39.5,   40.4,   41.2,   42.9,   41.4,   43.4,   43.7,   43.5,   44.2,   42.8,   43.1,   42.9,   42.7,   42.6,   43.2,   43.7,   45.8,   46.1,   50.9,   55.9,   56.2,   60.7,   68.3,   69.2,   71.1,   71.7,   71.6,   71.1,   75.3,  999.0,   78.0,  999.0,  999.0,  999.0,  999.0,  999.0,  999.0,  999.0,  999.0,  999.0,  999.0,  999.0,  999.0,  999.0,  999.0,  999.0,  999.0,   77.4,  999.0,   77.3,   78.5,   78.4,   75.9,   72.8,   65.9,   63.2,   63.8,   65.0,  999.0,  999.0,  999.0,  999.0,  999.0,  999.0,   58.5,   55.3,   54.6,   50.7,   48.8,   41.6,   38.0,   37.9,   36.2,   37.3,   38.6,   38.5,   30.6,   29.3,   24.0,   20.1,   20.7,   23.8,   27.1,   27.7,   27.2,  999.0,  999.0,  999.0,  999.0,   22.5,   24.2,   23.4
1994/01/18 04:05,   19.7,   21.4,   22.5,   25.3,   25.3,   25.5,   26.7,   27.4,   29.5,   31.0,   32.4,   33.4,   33.3,   33.8,   33.3,   33.8,   34.9,   35.6,   37.4,   37.4,   37.3,   39.1,   39.4,   37.0,   38.0,   36.8,   38.3,   39.9,   40.7,   41.3,   41.1,   41.3,   42.3,   44.0,   43.8,   44.7,   44.2,   43.8,   43.0,   42.5,   42.7,   43.0,   43.2,   44.2,   44.8,   46.9,   51.6,   53.3,   54.6,   59.5,   67.1,   68.7,   70.1,   66.5,   71.3,   71.5,   76.3,   79.7,  999.0,   79.7,  999.0,  999.0,  999.0,  999.0,  999.0,  999.0,  999.0,  999.0,  999.0,  999.0,   79.8,  999.0,  999.0,  999.0,   78.1,   79.3,   78.7,   77.8,   77.8,   78.1,  999.0,   70.3,  999.0,   63.0,   63.7,   64.0,   67.7,  999.0,  999.0,  999.0,  999.0,  999.0,   57.3,   56.2,   51.9,   49.7,   48.3,   47.1,   38.1,   38.7,   38.6,   39.4,   40.9,   42.0,   29.7,   31.1,   25.7,   21.5,   21.9,   23.0,   26.8,   26.5,  999.0,  999.0,  999.0,   21.5,   21.4,   22.3,   24.1,  999.0
1994/01/18 04:15,   18.8,   18.6,   20.1,   22.4,   24.4,  999.0,   27.3,   28.7,   30.9,   31.1,   33.3,   32.7,   34.9,   34.5,   32.7,   32.8,   33.5,   33.9,   34.7,   36.1,   36.7,   36.5,   37.8,   37.1,   37.2,   36.3,   38.7,   39.0,   39.0,   40.3,   41.1,   42.2,   42.6,   44.2,   44.9,   43.6,   42.8,   43.1,   43.5,   44.6,   45.1,   44.1,   43.8,   44.3,   45.9,   51.0,   52.1,   52.2,   55.2,   59.6,   66.0,   68.6,   73.1,  999.0,   69.5,   71.6,   77.2,   76.0,   79.3,  999.0,  999.0,  999.0,  999.0,  999.0,  999.0,  999.0,  999.0,  999.0,  999.0,  999.0,   79.8,  999.0,  999.0,  999.0,  999.0,  999.0,   78.7,  999.0,   76.5,  999.0,   78.7,  999.0,  999.0,   65.3,   66.6,   65.0,   71.5,  999.0,  999.0,  999.0,   58.2,   60.8,   60.4,   54.3,   53.4,   50.9,   48.9,   46.9,   42.0,   42.4,   42.3,   44.3,   42.3,   43.9,   45.3,  999.0,   26.9,   22.1,   23.4,   24.7,   27.4,   27.9,  999.0,  999.0,  999.0,  999.0,  999.0,   23.5,   24.8,  999.0
1994/01/18 04:25,   17.7,  999.0,  999.0,   21.0,  999.0,  999.0,  999.0,  999.0,  999.0,   29.8,   31.3,   31.9,   33.1,   32.5,   31.6,   31.8,   33.0,   33.2,   33.8,   35.8,   35.8,   37.2,   35.9,   35.7,   33.8,   35.0,   36.9,   38.0,   39.1,   39.7,   40.8,   42.8,   43.1,   44.7,   41.9,   43.8,   42.9,   43.9,   43.9,   43.4,   43.7,   43.0,   42.2,   44.0,   49.8,   53.6,   51.4,   54.1,   57.9,   62.5,   68.5,   71.4,  999.0,  999.0,   71.9,   73.6,  999.0,   79.5,   79.8,  999.0,  999.0,  999.0,  999.0,  999.0,  999.0,  999.0,  999.0,  999.0,  999.0,  999.0,   79.1,  999.0,  999.0,  999.0,  999.0,  999.0,   76.9,   79.5,  999.0,   77.5,   77.7,   78.6,   78.4,  999.0,   62.0,   66.9,   73.7,  999.0,  999.0,  999.0,   61.7,   63.4,   63.1,  999.0,   51.4,   49.5,   48.1,   47.3,   40.9,   43.8,   43.6,   45.7,   46.8,   43.6,   38.9,   37.9,  999.0,   23.0,   24.4,   26.1,   29.0,   31.7,   27.5,   25.8,   26.7,  999.0,   21.2,   23.9,   26.0,  999.0
1994/01/18 04:35,  999.0,    1.8,   20.3,   22.3,  999.0,   26.4,   27.2,  999.0,  999.0,  999.0,   31.5,   31.7,   32.3,   32.1,   32.4,   31.8,   31.3,   32.9,   34.4,   34.0,   35.7,   36.9,   34.8,   34.2,   34.2,   35.6,   37.3,   39.4,   38.4,   41.5,   41.3,   43.6,   43.4,   41.4,   42.2,   43.0,   44.0,   43.0,   41.7,   41.7,   41.6,   41.3,   40.8,   45.6,   50.2,   50.1,   50.5,   54.0,   56.4,   60.5,   67.8,   71.1,  999.0,  999.0,   68.7,   72.9,   78.5,  999.0,   79.8,  999.0,  999.0,  999.0,  999.0,  999.0,  999.0,  999.0,  999.0,  999.0,  999.0,  999.0,  999.0,  999.0,  999.0,  999.0,   78.2,  999.0,   75.9,   77.0,   79.0,   76.9,   75.5,  999.0,  999.0,  999.0,  999.0,   62.5,   68.2,   75.0,  999.0,  999.0,   61.6,   64.2,  999.0,   48.9,   52.3,   50.2,   47.9,   47.4,   41.6,   45.0,   46.9,   46.5,   46.0,   42.3,   41.3,   33.2,  999.0,   22.4,   22.3,   24.8,   28.3,   26.5,   24.0,   22.8,   23.1,  999.0,   19.5,   21.7,   22.5,  999.0
1994/01/18 04:45,  999.0,    5.1,   20.4,   22.5,  999.0,   27.5,   14.4,  999.0,  999.0,   30.6,   31.3,   32.5,   33.0,   31.9,   32.0,   31.7,   31.2,   31.2,   32.4,   32.4,   34.3,   34.0,   33.3,   35.2,   35.4,   35.7,   37.6,   40.0,   37.7,   40.1,   40.3,   41.0,   40.9,   41.6,   44.1,   44.3,   43.6,   43.3,   42.8,   41.7,   41.3,   40.6,   41.7,   44.7,   48.1,   49.2,   49.9,   52.9,   55.2,   59.8,   67.2,   72.3,  999.0,  999.0,   72.2,   77.1,   79.2,   78.2,  999.0,  999.0,  999.0,  999.0,  999.0,  999.0,  999.0,  999.0,  999.0,   78.1,  999.0,  999.0,   78.0,  999.0,  999.0,  999.0,   75.9,  999.0,  999.0,   78.1,  999.0,   79.2,  999.0,  999.0,  999.0,  999.0,  999.0,   60.9,   67.0,   73.8,  999.0,  999.0,  999.0,   62.2,  999.0,  999.0,   51.4,   48.7,   47.8,   45.2,   41.4,   41.9,   45.5,   48.3,   40.5,   41.5,   39.7,   29.8,   26.2,   19.7,   22.5,   25.4,   28.9,   25.6,  999.0,  999.0,   24.8,   24.6,  999.0,   22.9,   26.2,  999.0
1994/01/18 04:55,    3.3,    1.9,  999.0,   20.8,  999.0,  999.0,   -0.0,  999.0,  999.0,   29.2,   31.9,   32.7,   32.4,   32.3,   31.9,   31.4,   31.4,   31.4,   31.6,   32.4,   32.8,  999.0,   32.9,   34.5,   36.0,   38.3,   38.1,   39.3,   38.2,   38.5,   41.8,   40.8,   39.6,   41.1,   42.7,   45.0,   43.1,   42.6,   43.2,   41.0,   40.3,   41.9,   43.9,   46.4,   47.3,   47.9,   50.5,   52.8,   57.6,   63.3,   69.6,   72.8,  999.0,   70.3,   77.2,   77.0,   79.1,   76.1,  999.0,  999.0,  999.0,  999.0,  999.0,  999.0,  999.0,  999.0,  999.0,  999.0,  999.0,  999.0,   78.4,  999.0,  999.0,  999.0,  999.0,  999.0,  999.0,  999.0,  999.0,   76.7,  999.0,  999.0,  999.0,  999.0,  999.0,  999.0,   62.9,   70.0,  999.0,  999.0,  999.0,  999.0,   63.1,   52.8,   51.3,   48.1,   45.6,   44.1,   39.4,   40.1,   44.0,   45.9,   40.5,   37.2,   36.4,   28.3,   21.8,   18.6,   21.5,   24.3,   26.9,   26.1,   25.9,   27.3,  999.0,   22.3,   21.3,   23.1,   24.2,  999.0
1994/01/18 05:05,    0.2,  999.0,  999.0,  999.0,  999.0,   -0.4,    0.1,  999.0,  999.0,   30.7,   31.8,   33.3,   33.0,   33.5,  999.0,   30.7,   31.0,   30.3,   30.2,   32.1,   31.6,  999.0,   33.0,   34.4,   35.6,   37.2,   36.9,   36.8,   37.9,   39.9,   40.1,   38.0,   40.2,   41.9,   43.7,   45.0,   43.2,   43.5,   43.6,   41.0,   41.9,   42.7,   44.7,   45.9,   47.0,   49.9,   52.0,   54.5,   57.9,   65.4,   70.8,  999.0,  999.0,   75.2,   77.4,   75.5,  999.0,   79.4,  999.0,  999.0,  999.0,  999.0,  999.0,  999.0,  999.0,  999.0,  999.0,  999.0,   79.4,  999.0,  999.0,   78.3,  999.0,  999.0,  999.0,  999.0,   78.7,  999.0,  999.0,   75.1,   77.1,  999.0,  999.0,  999.0,  999.0,  999.0,   60.7,   67.3,  999.0,  999.0,  999.0,   61.2,   59.9,   36.0,  999.0,   48.0,   43.3,   41.7,   41.2,   38.1,   43.4,   42.7,   40.1,   39.2,   35.7,  999.0,   21.1,   16.4,   21.0,   23.6,   27.3,   23.0,   26.9,   23.4,  999.0,   22.6,   21.2,   22.4,   25.5,  999.0
1994/01/18 05:15,    0.1,  999.0,   -0.3,   20.7,    0.1,   -0.0,    0.2,  999.0,  999.0,   31.3,   32.7,   33.2,   32.9,   33.0,  999.0,   32.0,   30.9,   29.5,   30.5,   30.4,   31.7,  999.0,   33.6,   36.4,   37.0,   37.1,   35.5,   36.3,   38.7,   41.8,   42.2,   41.2,   42.2,   43.0,   42.3,   43.4,   44.0,   45.4,   44.8,   41.2,   41.3,   42.4,   45.1,   44.0,   46.4,   48.5,   50.2,   53.8,   59.1,   64.6,   70.7,   66.3,   70.5,   73.6,   76.0,   78.1,   79.1,  999.0,  999.0,  999.0,  999.0,  999.0,   44.3,  999.0,  999.0,  999.0,  999.0,  999.0,  999.0,   77.6,  999.0,   77.1,   78.8,  999.0,  999.0,  999.0,   78.4,  999.0,  999.0,   73.4,   76.1,  999.0,  999.0,  999.0,  999.0,   65.2,   63.5,   68.0,  999.0,  999.0,    8.6,   63.3,   63.3,  999.0,   50.5,   48.9,   47.8,   40.0,   41.0,   37.5,   43.1,   41.0,   39.6,   38.9,   38.3,   25.6,   19.4,   19.2,   21.8,   25.4,   28.0,   24.9,   27.1,  999.0,  999.0,   22.8,   23.1,   23.6,   22.9,  999.0
1994/01/18 05:25,    0.1,  999.0,   21.6,   24.4,    0.1,   -0.2,    0.2,  999.0,  999.0,   29.8,   31.4,   33.2,   33.9,   32.5,   32.2,   32.8,   31.2,   30.6,   29.9,   31.8,   33.0,  999.0,   34.4,   35.9,   37.3,   36.5,   36.5,   38.7,   41.0,   41.6,   39.8,   42.2,   41.4,   43.1,   43.8,   42.7,   42.9,   44.0,   44.2,   39.2,   41.8,   41.2,   43.7,   43.0,   44.5,   46.6,   49.9,   53.2,   58.4,   64.0,   68.0,   70.9,   66.0,   73.1,   77.8,   75.9,   78.8,  999.0,  999.0,  999.0,  999.0,  999.0,  999.0,  999.0,  999.0,  999.0,  999.0,  999.0,  999.0,   78.9,  999.0,   75.3,   79.2,  999.0,  999.0,   75.3,   79.2,  999.0,  999.0,   76.6,   77.6,  999.0,   72.1,  999.0,  999.0,   63.9,   65.2,   70.3,  999.0,  999.0,  999.0,   60.4,   63.2,  999.0,  999.0,   47.9,   47.4,   42.1,   41.0,   39.1,   42.9,   43.1,   45.5,   40.7,   32.2,   29.7,   24.1,   20.3,   24.2,   27.1,  999.0,   27.2,   28.4,  999.0,  999.0,   22.8,   24.3,   26.7,   24.4,  999.0
1994/01/18 05:35,    0.2,  999.0,   20.4,  999.0,    0.0,   -0.0,    0.2,  999.0,    0.4,   30.6,   31.7,   33.0,   33.7,   33.5,   32.1,   31.3,   31.5,   30.3,   31.9,   32.7,   33.3,   34.2,   35.6,   36.7,   37.7,   38.2,   38.7,   40.1,   40.7,   40.7,   40.9,   40.6,   42.6,   43.6,   41.9,   40.1,   39.9,   42.1,   40.8,   40.4,   40.5,   42.1,   43.5,   43.5,   43.8,   47.0,   51.1,   56.1,   60.6,   66.0,   71.1,   72.0,   66.2,   75.2,   78.7,   78.2,  999.0,  999.0,  999.0,  999.0,  999.0,  999.0,  999.0,  999.0,  999.0,  999.0,  999.0,  999.0,  999.0,  999.0,  999.0,   73.9,  999.0,  999.0,  999.0,  999.0,   79.9,  999.0,  999.0,   76.4,   77.5,  999.0,  999.0,  999.0,  999.0,  999.0,   61.7,   67.4,  999.0,  999.0,  999.0,   61.8,   62.3,  999.0,  999.0,   42.6,   45.1,   42.6,   39.9,   41.1,   41.1,   43.3,   43.3,   40.5,   34.0,   27.9,  999.0,   21.0,   23.2,   26.6,   27.6,  999.0,  999.0,  999.0,  999.0,  999.0,   25.5,   28.0,   26.7,  999.0
1994/01/18 05:45,    0.5,  999.0,   19.1,   -0.3,   -0.2,   -0.2,    0.5,  999.0,   26.9,   29.7,   32.8,   33.6,   34.0,   34.3,   33.8,   33.9,   33.5,   32.9,   32.1,   33.1,   34.5,   35.5,   36.5,   37.6,   38.1,   40.0,   40.1,   40.4,   41.4,   40.6,   40.2,   42.9,   42.1,   40.1,   40.9,   40.5,   39.0,   40.3,   40.9,   39.2,   40.7,   42.4,   44.7,   45.0,   46.8,   49.7,   53.2,   56.8,   61.9,   68.7,   71.8,   70.6,   68.7,   75.7,   79.3,   78.4,   79.5,  999.0,  999.0,  999.0,  999.0,  999.0,  999.0,  999.0,  999.0,  999.0,  999.0,  999.0,  999.0,   77.8,  999.0,   70.3,   79.7,  999.0,  999.0,  999.0,   76.5,   75.1,  999.0,   77.7,   78.2,  999.0,  999.0,  999.0,  999.0,  999.0,   62.2,   63.2,  999.0,  999.0,  999.0,   59.2,   57.7,  999.0,  999.0,   43.1,   40.7,   38.1,   37.8,   39.0,   37.9,   37.3,  999.0,   32.9,   28.0,   24.4,   21.4,   17.6,   20.0,   23.6,   25.0,   24.9,   21.4,  999.0,  999.0,  999.0,   24.4,   29.6,  999.0,  999.0
1994/01/18 05:55,    0.1,  999.0,   20.3,  999.0,  999.0,    0.2,   -0.3,  999.0,   26.4,   29.6,   31.6,   32.9,   32.5,   32.4,  999.0,   33.7,   32.9,   33.7,   33.5,   34.0,   33.3,   34.0,   35.5,   36.8,   37.7,   38.8,   41.2,   41.9,   41.3,   40.0,   41.2,   42.0,   42.4,   40.8,   40.8,   39.9,   38.8,   38.8,   39.9,   40.5,   40.8,   43.8,   44.1,   44.7,   48.5,   51.4,   54.6,   59.3,   65.9,   68.2,   71.8,   68.7,   71.7,   74.9,   78.0,   78.3,  999.0,  999.0,  999.0,  999.0,  999.0,  999.0,  999.0,  999.0,  999.0,  999.0,  999.0,  999.0,  999.0,  999.0,  999.0,  999.0,   78.7,  999.0,  999.0,  999.0,  999.0,   75.9,   71.8,  999.0,   78.9,  999.0,  999.0,  999.0,  999.0,  999.0,   62.2,   62.6,  999.0,  999.0,  999.0,   53.9,   60.1,  999.0,  999.0,  999.0,   41.2,   37.4,   36.0,   37.8,   37.4,   38.7,   39.7,   35.9,   27.8,   22.6,   19.9,   17.3,   18.8,   21.1,   22.6,   25.4,  999.0,  999.0,   22.5,   21.5,   24.8,   26.1,   24.5,  999.0
1994/01/18 06:05,   -0.1,   18.5,   20.4,  999.0,    0.3,   -0.3,   -0.2,  999.0,   26.4,   28.0,   30.0,   30.8,   31.2,   31.5,  999.0,   32.4,   33.1,   33.0,   34.0,   32.6,   35.0,   35.2,   37.3,   38.8,   38.0,   39.7,   42.2,   42.0,   41.3,   41.9,   42.5,   41.9,   40.7,   40.2,   38.7,   38.1,   38.2,   37.3,   39.8,   40.1,   42.0,   42.4,   42.1,   44.8,   47.6,   50.9,   55.2,   60.7,   66.6,   66.6,   72.4,   68.1,   70.8,   76.6,   79.0,   80.0,  999.0,   78.8,  999.0,  999.0,  999.0,  999.0,  999.0,  999.0,  999.0,  999.0,  999.0,  999.0,  999.0,  999.0,  999.0,   75.4,  999.0,  999.0,  999.0,  999.0,  999.0,  999.0,   72.7,   78.4,   73.6,  999.0,  999.0,  999.0,  999.0,  999.0,   61.2,   65.7,  999.0,  999.0,   55.6,   61.3,   60.0,   56.5,  999.0,   45.8,   43.0,   40.0,   38.4,   38.8,   39.4,   40.9,   40.0,   36.8,   30.3,   24.0,   20.2,   18.7,   20.0,   21.6,   25.7,   27.5,   25.4,  999.0,   24.2,  999.0,   24.6,   30.5,   31.1,  999.0
1994/01/18 06:15,    0.3,   18.3,   20.4,    0.2,   -0.3,    0.1,    0.7,   24.7,   26.7,   28.5,   28.7,   30.3,   32.0,   31.9,  999.0,   32.5,   32.4,   33.1,   31.7,   33.7,   34.9,   36.5,   38.5,   38.3,   41.7,   44.1,   42.8,   42.5,   41.7,   43.1,   42.7,   40.4,   38.3,   36.5,   36.2,   36.7,   37.0,   37.9,   40.3,   39.8,   42.7,   42.6,   42.7,   44.0,   47.8,   51.2,   55.2,   60.5,   65.8,   66.1,   74.2,   71.0,   72.6,  999.0,   73.9,   79.1,  999.0,   78.8,  999.0,  999.0,  999.0,  999.0,  999.0,  999.0,  999.0,  999.0,  999.0,  999.0,  999.0,  999.0,  999.0,   77.2,  999.0,  999.0,  999.0,  999.0,  999.0,  999.0,   72.7,   78.0,   77.9,  999.0,  999.0,  999.0,  999.0,  999.0,   60.8,   64.1,  999.0,  999.0,   56.6,   62.9,   60.8,  999.0,  999.0,   46.2,   45.8,   40.6,   40.3,   41.9,   43.3,   46.4,   49.1,   36.9,   36.6,  999.0,   19.7,   20.7,   22.1,   22.0,   25.3,   29.7,   22.0,  999.0,   22.7,   22.5,   25.6,   23.5,   27.7,  999.0
1994/01/18 06:25,    0.2,   18.4,   20.4,   -0.0,    0.0,   -0.2,    0.0,   24.8,   26.8,   29.3,   29.5,   30.7,   31.8,   32.9,   -0.2,   31.2,   30.9,   30.8,   31.5,   33.6,   34.4,   34.5,   37.7,   38.1,   41.0,   43.3,   42.7,   41.5,   42.7,   42.3,   41.9,   39.3,   38.2,   38.4,   36.2,   36.2,   38.2,   37.0,   40.9,   40.7,   43.3,   43.7,   42.3,   43.9,   46.9,   49.6,   53.8,   59.0,   65.0,   69.9,   73.8,   70.1,   73.9,   78.8,  999.0,  999.0,  999.0,  999.0,  999.0,  999.0,  999.0,  999.0,  999.0,  999.0,  999.0,  999.0,  999.0,  999.0,  999.0,  999.0,  999.0,   76.5,  999.0,  999.0,  999.0,  999.0,  999.0,  999.0,   77.2,  999.0,   73.2,  999.0,  999.0,  999.0,  999.0,  999.0,   64.6,   64.3,   34.4,  999.0,   59.5,   63.3,   62.3,  999.0,  999.0,   45.7,   44.7,   41.1,   40.0,   42.2,  999.0,  999.0,  999.0,  999.0,   33.4,   31.2,  999.0,   21.4,   19.8,   21.3,   23.6,   26.0,   21.7,   21.0,   19.7,   20.8,   23.2,  999.0,   23.6,   19.8
1994/01/18 06:35,    2.6,  999.0,   18.2,  999.0,  999.0,   -0.5,  999.0,   25.7,   27.3,   25.9,   28.6,   30.2,   31.6,   31.5,   -0.2,   30.9,   31.9,   33.9,   35.3,   35.8,   35.0,   34.8,   35.8,   37.4,   39.5,   41.6,   41.3,   40.8,   41.6,   41.7,   40.0,   38.7,   39.1,   40.2,   38.2,   38.7,   38.1,   39.8,   42.9,   40.7,   44.2,   45.4,   42.6,   42.0,   44.8,   49.6,   54.3,   59.2,   64.6,   70.3,   73.9,   70.6,   73.2,  999.0,  999.0,  999.0,  999.0,  999.0,   79.8,  999.0,  999.0,  999.0,  999.0,  999.0,  999.0,  999.0,  999.0,  999.0,  999.0,  999.0,  999.0,   77.6,  999.0,  999.0,  999.0,  999.0,  999.0,  999.0,  999.0,  999.0,   76.7,  999.0,  999.0,  999.0,  999.0,  999.0,   65.8,   66.7,  999.0,  999.0,   65.6,   64.6,   61.3,   54.2,   49.3,   45.8,   44.8,   42.4,   40.7,  999.0,  999.0,  999.0,   40.6,  999.0,   40.2,   29.3,  999.0,   21.3,   19.0,   20.2,   22.5,   23.7,   22.1,   21.5,   19.1,   20.7,   22.9,   24.2,   23.1,   20.8
1994/01/18 06:45,    3.5,  999.0,   19.0,   19.9,    0.0,   -0.1,  999.0,   24.6,   26.7,  999.0,  999.0,   31.5,   30.4,   30.3,  999.0,   32.6,   33.3,   34.6,   34.3,   35.0,   36.1,   35.6,   35.9,   37.8,   39.4,   41.6,   39.4,   39.9,   40.2,   40.0,   41.0,   39.9,   38.2,   40.6,   40.0,   40.5,   40.6,   39.0,   41.4,   42.5,   44.2,   44.3,  999.0,   43.5,   43.7,   47.3,   51.5,   56.2,   61.9,   67.7,   74.5,   72.9,   70.5,   77.6,  999.0,   77.3,  999.0,   78.8,  999.0,  999.0,  999.0,  999.0,  999.0,  999.0,  999.0,  999.0,  999.0,  999.0,  999.0,  999.0,   71.6,  999.0,  999.0,  999.0,  999.0,  999.0,  999.0,  999.0,  999.0,  999.0,  999.0,  999.0,  999.0,  999.0,  999.0,  999.0,   61.7,   66.6,  999.0,  999.0,   61.2,   64.4,   61.5,   51.0,   47.5,   45.7,   43.0,   40.3,   40.8,  999.0,  999.0,  999.0,  999.0,  999.0,   35.6,  999.0,   17.4,   18.5,   18.5,   19.5,   22.6,   24.4,   23.5,   24.4,   21.8,   20.6,   23.0,   24.4,  999.0,   21.3
1994/01/18 06:55,    2.8,  999.0,   20.0,   21.5,  999.0,    0.2,  999.0,   23.1,   26.0,   27.0,   30.2,   32.5,   33.4,   30.2,   -0.0,   32.0,   33.0,   33.3,   35.9,   37.9,   36.6,   36.5,   37.6,   39.0,   40.0,   39.8,   40.4,   40.6,   40.8,   40.8,   41.2,   40.4,   40.7,   41.8,   41.9,   41.7,   42.9,   41.6,   41.5,   42.8,   42.3,   43.5,   43.3,   42.7,   44.9,   48.9,   51.3,   55.6,   61.6,   66.6,   72.2,   74.6,   70.0,   74.1,  999.0,   76.8,   79.6,  999.0,  999.0,  999.0,  999.0,  999.0,  999.0,  999.0,  999.0,  999.0,  999.0,  999.0,  999.0,  999.0,  999.0,   77.4,   45.6,  999.0,  999.0,  999.0,   74.1,  999.0,  999.0,  999.0,   75.8,  999.0,  999.0,  999.0,  999.0,  999.0,   61.9,   66.3,  999.0,  999.0,   61.4,   65.9,   64.3,   55.5,   47.4,   46.1,   43.9,   41.7,   39.5,   43.3,   40.0,   43.0,   38.7,   31.3,   25.7,   25.6,   20.3,   15.3,   17.3,   19.1,   21.8,   23.9,   24.5,   23.6,  999.0,   20.1,   20.7,   23.2,   21.8,   19.9
1994/01/18 07:05,   -0.0,   19.5,   20.7,   -0.0,   -0.1,    0.1,  999.0,   24.1,   25.5,   27.2,   27.5,   29.7,   32.0,   32.7,  999.0,   36.5,   37.3,   37.9,   37.7,   37.3,   38.7,   39.6,   40.4,   41.4,   40.4,   40.1,   40.5,   40.2,   40.7,   41.8,   42.0,   41.6,   41.9,   41.3,   40.5,   43.5,   43.3,   44.1,   40.9,   42.4,   44.8,   45.4,   46.8,   48.1,   50.1,   51.0,   55.4,   61.0,   66.9,   73.2,   75.1,   75.5,   71.2,  999.0,  999.0,   76.6,  999.0,  999.0,  999.0,  999.0,  999.0,  999.0,  999.0,  999.0,  999.0,  999.0,  999.0,  999.0,  999.0,  999.0,  999.0,   78.5,  999.0,  999.0,  999.0,  999.0,  999.0,  999.0,  999.0,  999.0,   78.9,  999.0,  999.0,  999.0,  999.0,  999.0,   60.8,   61.8,  999.0,  999.0,  999.0,   60.7,   61.8,   59.1,  999.0,   49.9,   42.4,   43.9,   43.8,   45.0,   45.5,   48.3,  999.0,  999.0,  999.0,  999.0,  999.0,  999.0,   25.1,   25.0,   25.8,   25.6,  999.0,   22.0,   19.7,   19.5,   19.7,   19.6,   17.8,   15.3
1994/01/18 07:15,    3.3,   20.0,   22.1,    0.1,    0.1,   -0.1,    0.1,   23.4,  999.0,    0.5,   28.6,   30.1,   32.4,   31.0,  999.0,   37.3,   37.2,   38.3,   37.9,   37.6,   38.2,   38.8,   40.4,   40.4,   39.9,   39.3,   39.6,   41.0,   40.5,   41.2,   42.4,   41.0,   41.2,   41.0,   42.6,   45.1,   43.4,   40.8,   42.9,   45.0,   45.0,   45.3,   48.2,   50.9,   46.6,   51.4,   57.0,   61.7,   67.9,   74.6,   75.8,   71.7,   74.2,  999.0,  999.0,  999.0,  999.0,  999.0,  999.0,  999.0,  999.0,  999.0,  999.0,  999.0,  999.0,  999.0,  999.0,  999.0,   40.8,  999.0,  999.0,  999.0,  999.0,  999.0,  999.0,  999.0,  999.0,  999.0,  999.0,  999.0,  999.0,  999.0,  999.0,  999.0,   71.9,  999.0,   57.8,   65.8,  999.0,  999.0,  999.0,   62.9,   65.4,   35.0,   57.8,   51.4,   46.8,   43.5,   44.8,   43.9,   45.2,   48.4,   50.2,   54.4,  999.0,  999.0,  999.0,   27.7,   27.6,   26.6,   25.1,   25.1,  999.0,   23.3,   21.1,   20.0,  999.0,  999.0,  999.0,   16.7
1994/01/18 07:25,    6.0,   18.9,  999.0,    0.4,    0.1,   -0.7,    1.4,   24.7,   26.7,    0.3,   28.7,   30.4,   31.6,   31.4,   34.1,   36.9,   37.7,   37.0,   37.5,   36.2,   38.4,   39.3,   40.6,   38.6,   39.5,   40.4,   41.1,   40.7,   40.4,   39.4,   40.7,   40.1,   39.9,   41.0,   43.1,   44.5,   43.8,   44.6,   45.2,   45.5,   46.3,   47.7,   47.1,   47.5,   48.2,   53.2,   58.1,   63.0,   70.6,   73.5,  999.0,   71.3,   76.0,  999.0,  999.0,  999.0,  999.0,  999.0,  999.0,  999.0,  999.0,  999.0,  999.0,  999.0,  999.0,  999.0,  999.0,  999.0,  999.0,  999.0,  999.0,  999.0,  999.0,  999.0,  999.0,  999.0,  999.0,  999.0,  999.0,  999.0,  999.0,  999.0,  999.0,  999.0,  999.0,  999.0,   58.2,   64.8,  999.0,  999.0,  999.0,   58.7,   60.4,   59.4,   54.9,   49.5,   46.4,   44.1,   43.2,   44.3,   43.4,   42.7,   42.9,   41.0,   37.2,   31.4,   22.6,   22.8,   25.0,   23.0,   24.8,   28.6,  999.0,   26.0,   24.1,   20.6,   21.1,   21.7,   22.1,   22.4
1994/01/18 07:35,    0.7,   18.2,    0.3,   -0.0,    0.1,    0.4,    0.3,   25.7,  999.0,   -0.0,   29.6,   32.1,   34.1,   34.6,   19.1,   38.3,   36.3,   37.1,   36.3,   37.9,   38.0,   38.7,  999.0,   39.5,   40.4,   41.4,   41.3,   39.2,   39.4,   40.9,   40.8,   41.2,   42.0,   43.9,   45.5,   45.7,   45.9,   46.4,   46.5,   46.8,   46.9,   46.8,   45.7,   47.3,   51.0,   54.4,   58.1,   63.0,   70.7,   74.3,   75.2,   71.4,   75.5,  999.0,  999.0,  999.0,  999.0,  999.0,  999.0,  999.0,  999.0,  999.0,  999.0,  999.0,  999.0,  999.0,  999.0,  999.0,  999.0,  999.0,  999.0,  999.0,  999.0,  999.0,  999.0,  999.0,  999.0,  999.0,  999.0,  999.0,  999.0,   48.7,  999.0,  999.0,  999.0,   62.4,   61.7,   67.4,  999.0,  999.0,  999.0,   61.2,   61.1,  999.0,   55.3,   47.1,   44.0,   42.1,   41.4,   41.2,   41.5,   42.1,   40.9,   38.6,   36.4,   28.4,   23.5,   19.5,   21.1,   21.0,   23.3,   24.5,   22.4,   24.7,   21.3,   19.3,  999.0,  999.0,  999.0,   20.7
1994/01/18 07:45,  999.0,   18.4,    0.0,   -0.0,    0.1,    0.3,   25.3,  999.0,   -0.5,    0.0,   31.4,   33.8,   35.1,   36.6,   37.2,   38.3,   33.4,   35.8,   37.7,   36.0,   37.5,  999.0,  999.0,   39.4,   39.8,   39.4,   39.7,   40.5,   41.5,   41.5,   42.5,   44.1,   42.0,   46.1,   46.2,   46.9,   48.0,   46.5,   46.8,   48.0,   46.5,   45.7,   48.9,   51.0,   54.0,   58.3,   61.4,   68.4,   74.1,   75.6,   75.2,   74.4,  999.0,  999.0,  999.0,  999.0,  999.0,  999.0,  999.0,  999.0,  999.0,  999.0,  999.0,  999.0,  999.0,  999.0,  999.0,  999.0,  999.0,  999.0,  999.0,  999.0,  999.0,  999.0,   76.6,  999.0,  999.0,  999.0,  999.0,  999.0,  999.0,  999.0,  999.0,  999.0,  999.0,  999.0,   63.2,   65.8,  999.0,  999.0,  999.0,   62.5,  999.0,  999.0,  999.0,   48.2,   44.6,   43.2,   41.0,   40.7,   41.8,  999.0,   42.1,   41.1,   33.4,   27.1,   21.2,   19.4,   20.4,   20.8,   23.3,   24.7,   24.7,   25.7,   22.0,   22.5,   22.7,  999.0,  999.0,   21.7
1994/01/18 07:55,    0.0,   17.7,    0.0,    0.2,  999.0,    0.3,   27.2,   29.2,   -0.5,    0.7,   31.7,   34.5,   35.2,   35.8,   36.6,   37.6,   38.9,   36.3,   37.3,   37.6,   37.5,  999.0,   36.6,   37.9,   38.5,   39.6,   40.5,   41.1,   41.2,   42.8,   42.4,   44.1,   41.4,   44.0,   45.5,   45.7,   46.6,   48.7,   49.0,   46.7,   45.2,   47.4,   48.7,   51.5,   55.5,   58.8,   62.8,   71.1,   75.9,   77.2,   74.1,   73.6,   74.1,  999.0,  999.0,  999.0,  999.0,   77.9,  999.0,  999.0,  999.0,  999.0,  999.0,  999.0,  999.0,  999.0,  999.0,  999.0,  999.0,  999.0,  999.0,  999.0,  999.0,  999.0,   74.8,  999.0,  999.0,  999.0,  999.0,  999.0,  999.0,  999.0,  999.0,  999.0,  999.0,  999.0,   62.5,   63.5,  999.0,  999.0,  999.0,   60.9,  999.0,  999.0,   50.6,   47.7,   43.5,   42.3,   41.5,   41.5,   40.4,   42.6,   42.6,  999.0,   32.4,   26.5,   19.2,   20.3,   20.4,   21.0,   23.2,   27.0,   22.9,   27.4,   26.2,   23.0,   22.9,  999.0,   23.5,  999.0
1994/01/18 08:05,   15.2,   16.1,    0.2,   -0.1,  999.0,  999.0,   27.4,   29.1,   -0.2,   -0.4,   30.1,   32.5,   33.0,   34.1,   35.1,   35.9,   35.4,   36.4,   38.6,   37.7,   37.5,   -0.7,   37.2,   37.2,   37.3,   39.3,   40.3,   41.6,   41.4,   41.9,   42.2,   41.0,   41.4,   43.6,   44.6,   44.9,   47.9,   46.9,   46.4,   46.4,   46.1,   46.6,   49.2,   52.7,   58.0,   58.3,   63.8,   71.4,   76.2,  999.0,  999.0,   71.1,   74.5,  999.0,  999.0,  999.0,  999.0,  999.0,  999.0,  999.0,  999.0,  999.0,  999.0,  999.0,  999.0,  999.0,  999.0,  999.0,  999.0,  999.0,  999.0,  999.0,  999.0,  999.0,  999.0,  999.0,  999.0,  999.0,  999.0,  999.0,  999.0,  999.0,  999.0,  999.0,  999.0,  999.0,   63.9,   66.2,  999.0,  999.0,  999.0,   65.8,  999.0,  999.0,  999.0,   45.7,   44.5,   41.9,   43.5,   40.0,   40.5,   41.9,   41.9,   36.7,   35.0,   26.3,   19.8,   20.4,   19.3,   19.5,   21.8,   26.5,   25.1,   26.6,   24.0,   24.2,  999.0,  999.0,  999.0,  999.0
1994/01/18 08:15,  999.0,   18.0,  999.0,  999.0,  999.0,   -0.0,   26.6,  999.0,    0.2,    0.0,   27.1,   29.2,   33.8,   34.0,   34.8,   35.1,   36.4,   37.1,   37.1,   37.7,   38.2,   -0.0,   37.5,   38.4,   39.1,   41.1,   41.8,   39.6,   41.4,   41.7,   40.0,   39.9,   40.6,   42.4,   43.4,   43.9,   47.3,   47.7,   46.6,   45.4,   45.1,   47.7,   50.2,   50.7,   56.4,   55.9,   60.2,   67.3,   71.8,   76.7,  999.0,   66.6,   74.9,  999.0,  999.0,   80.0,  999.0,  999.0,   79.8,  999.0,  999.0,  999.0,  999.0,  999.0,  999.0,  999.0,  999.0,  999.0,  999.0,  999.0,  999.0,  999.0,  999.0,  999.0,  999.0,  999.0,  999.0,  999.0,  999.0,  999.0,  999.0,  999.0,  999.0,  999.0,  999.0,  999.0,   64.0,   61.7,  999.0,  999.0,  999.0,   52.8,  999.0,  999.0,  999.0,   47.3,   45.9,   44.0,   42.0,   39.8,   41.1,   40.2,   42.6,   39.1,   35.6,   28.7,   19.7,   19.4,   19.9,   20.4,   24.1,   25.4,   24.8,   28.3,   25.0,  999.0,  999.0,   26.4,   19.6,   16.6
1994/01/18 08:25,   16.0,   16.8,   -0.2,    0.1,    0.8,   -0.6,    0.1,    0.0,   -0.3,   13.0,   29.5,   34.1,   35.8,   35.4,   34.2,   36.1,   37.8,   38.6,   38.6,   37.5,   36.4,   36.9,   36.9,   37.3,   37.9,   39.0,   39.4,   38.5,   41.2,   40.6,   40.0,   39.9,   40.1,   41.5,   42.1,   44.3,   44.8,   47.6,   46.3,   45.3,   47.4,   51.3,   50.2,   50.7,   54.2,   55.4,   59.4,   66.6,   72.9,   74.0,  999.0,   73.6,   73.5,  999.0,  999.0,  999.0,  999.0,  999.0,  999.0,  999.0,  999.0,  999.0,  999.0,  999.0,  999.0,  999.0,  999.0,  999.0,  999.0,  999.0,  999.0,  999.0,  999.0,  999.0,  999.0,  999.0,  999.0,  999.0,  999.0,  999.0,  999.0,  999.0,  999.0,  999.0,  999.0,  999.0,   64.2,   57.1,  999.0,  999.0,  999.0,  999.0,   58.9,  999.0,  999.0,  999.0,   39.0,   39.8,   40.0,   39.9,   41.0,   38.4,   39.9,   36.9,   35.7,   24.2,   20.5,   21.1,   21.1,   22.9,   27.4,   30.9,   28.3,   31.3,  999.0,  999.0,   23.8,   26.5,  999.0,  999.0
1994/01/18 08:35,   13.8,   18.1,   -0.2,   -0.1,   -0.2,   -0.2,   -0.3,    0.2,    0.3,   26.9,   30.8,   34.2,   35.4,   37.1,   38.6,   39.2,   38.8,   36.9,   36.6,   36.0,   35.8,   36.8,   39.4,   39.6,   39.3,   39.4,   39.3,   40.0,   40.4,   40.9,   38.8,   39.6,   39.3,   41.8,   42.3,   45.2,   46.4,   47.1,   46.3,   48.7,   49.5,   50.4,   50.5,   51.6,   53.7,   56.1,   58.6,   66.2,   72.0,   74.0,   76.9,  999.0,   73.2,  999.0,  999.0,   75.1,  999.0,  999.0,  999.0,  999.0,  999.0,  999.0,  999.0,  999.0,  999.0,  999.0,  999.0,  999.0,  999.0,  999.0,  999.0,  999.0,  999.0,  999.0,  999.0,  999.0,  999.0,  999.0,  999.0,  999.0,  999.0,  999.0,  999.0,  999.0,  999.0,   62.8,   66.8,  999.0,  999.0,  999.0,  999.0,  999.0,  999.0,  999.0,  999.0,  999.0,  999.0,   40.2,   41.2,   41.2,   38.3,   39.6,   42.6,   37.2,   33.7,   24.4,   20.2,   21.1,   21.4,   22.1,   25.6,   30.7,  999.0,   29.3,  999.0,  999.0,  999.0,  999.0,  999.0,  999.0
1994/01/18 08:45,   14.9,   17.4,    0.0,   -0.0,   -0.2,   -0.1,   -0.2,    0.1,   -0.3,   26.2,   33.7,   36.0,   38.3,   39.0,   39.4,   37.9,   38.2,   36.6,   36.9,   37.0,   36.8,  999.0,   38.3,   39.0,   40.1,   39.8,   39.8,   40.1,   39.9,   40.5,   38.5,   38.4,   40.0,   42.5,   44.6,   47.3,   46.0,   48.4,   49.9,   48.5,   48.7,   52.1,   52.5,   50.8,   53.0,   56.4,   58.2,   65.5,   71.4,   73.7,   78.3,   73.0,   74.7,   76.4,  999.0,  999.0,  999.0,  999.0,  999.0,  999.0,  999.0,  999.0,  999.0,  999.0,  999.0,  999.0,  999.0,  999.0,  999.0,  999.0,   -0.7,  999.0,  999.0,  999.0,  999.0,  999.0,  999.0,  999.0,  999.0,  999.0,  999.0,  999.0,  999.0,  999.0,  999.0,   63.5,   70.9,   61.4,  999.0,  999.0,    2.6,  999.0,  999.0,  999.0,  999.0,  999.0,   43.6,   42.9,   43.0,   43.4,   39.9,   41.7,   41.4,   36.5,   31.0,   25.7,   20.1,   18.6,   20.8,   20.5,   23.1,   25.9,   26.0,   28.0,   25.7,   25.0,   25.6,  999.0,  999.0,   19.8
1994/01/18 08:55,   15.9,   17.7,    0.0,    0.0,    0.1,    0.2,   -0.2,    0.0,    0.1,   29.0,   34.6,   38.0,   38.9,   39.0,   39.0,   37.6,   36.9,   36.6,   37.2,   37.9,   37.4,  999.0,   39.8,   39.7,   40.4,   39.5,   38.8,   38.1,   38.6,   38.8,   39.6,   38.3,   41.1,   42.7,   45.6,   45.5,   45.2,   48.1,   48.1,   48.7,   51.0,   53.8,  999.0,   50.6,   52.9,   54.9,   57.7,   63.8,   68.7,   72.8,   76.5,  999.0,   72.5,   76.3,   77.3,  999.0,  999.0,   79.3,  999.0,   78.4,   59.4,  999.0,  999.0,  999.0,  999.0,  999.0,  999.0,  999.0,  999.0,  999.0,  999.0,  999.0,  999.0,  999.0,  999.0,  999.0,  999.0,  999.0,  999.0,  999.0,  999.0,  999.0,  999.0,  999.0,  999.0,  999.0,  999.0,  999.0,   -0.4,  999.0,    0.2,  999.0,  999.0,  999.0,  999.0,  999.0,   42.3,   43.4,   42.9,   43.4,   41.3,   43.8,   40.7,   36.5,   27.7,   26.2,   17.0,   19.0,   20.6,   21.8,   25.5,  999.0,   27.0,   27.8,  999.0,  999.0,   26.3,  999.0,  999.0,   22.6
1994/01/18 09:05,   17.0,   18.4,    0.0,    0.0,   -0.1,    0.0,   24.7,   26.2,  999.0,   29.1,   33.5,   37.4,   38.5,   38.4,   36.1,   36.5,   36.3,   37.2,   39.4,   40.2,   39.7,  999.0,   39.5,   39.9,   40.5,   39.4,   39.7,   38.4,   37.4,   36.6,   37.7,   38.0,   39.8,   42.6,   44.4,   43.9,   46.3,   46.7,   48.7,   51.5,  999.0,  999.0,   51.7,   52.8,   53.6,   53.8,   58.2,   64.1,   69.5,   71.6,   77.6,   73.8,   73.8,  999.0,  999.0,  999.0,  999.0,  999.0,  999.0,  999.0,  999.0,  999.0,  999.0,  999.0,  999.0,  999.0,  999.0,  999.0,  999.0,  999.0,  999.0,  999.0,  999.0,  999.0,  999.0,  999.0,  999.0,  999.0,  999.0,  999.0,   77.6,   74.4,  999.0,  999.0,  999.0,   63.7,   65.8,   64.2,   -0.8,  999.0,  999.0,   59.9,   59.9,  999.0,    5.4,  999.0,   41.8,   43.1,   43.6,   42.8,   36.5,   44.4,   43.8,   40.1,   28.4,   25.8,   23.8,   27.5,   20.8,   23.3,   28.0,  999.0,  999.0,  999.0,   24.9,  999.0,   24.9,   27.2,   26.5,   23.5
1994/01/18 09:15,  999.0,   17.2,    0.3,    0.0,    0.2,    0.0,   23.5,   26.6,  999.0,   28.2,   33.9,   36.1,   37.0,   35.9,   35.1,   35.9,   36.5,   37.5,   38.7,   38.8,   39.7,  999.0,   40.2,   39.4,   39.4,   39.1,   39.3,   38.3,   38.9,   37.4,   39.7,   41.3,   41.2,   42.2,   45.8,   46.2,   47.1,   48.5,   50.1,   50.0,  999.0,   51.1,   52.4,   55.1,   53.0,   54.2,   59.6,   63.2,   66.7,   72.1,   78.5,   74.8,   73.9,   74.9,  999.0,  999.0,  999.0,  999.0,  999.0,  999.0,  999.0,  999.0,  999.0,  999.0,  999.0,  999.0,  999.0,  999.0,   77.5,  999.0,  999.0,  999.0,  999.0,  999.0,  999.0,  999.0,  999.0,  999.0,    0.6,  999.0,  999.0,  999.0,  999.0,  999.0,  999.0,  999.0,   70.8,   65.0,  999.0,  999.0,   65.3,   62.7,   61.2,  999.0,  999.0,  999.0,   43.5,   43.2,   42.9,   41.4,   42.5,   43.1,   40.8,   36.4,   31.0,   22.9,   21.9,   20.7,   18.0,   20.2,   24.4,  999.0,  999.0,   24.3,   26.9,   22.7,  999.0,  999.0,  999.0,   22.1
1994/01/18 09:25,  999.0,   17.5,   -0.0,    0.0,    0.2,   -0.1,   25.2,  999.0,  999.0,   29.9,   34.5,   35.9,   39.1,   37.4,  999.0,   37.1,   36.1,   36.4,   36.7,   39.4,   39.4,  999.0,   37.8,   38.6,   38.0,   40.1,   39.3,   39.6,   38.9,   39.3,   39.1,   40.4,   41.8,   43.3,   44.9,   44.1,   45.1,   47.7,   47.9,   48.2,   48.8,   50.4,   52.8,   52.3,   52.4,   54.5,   60.6,   62.1,   67.3,   73.2,   78.4,  999.0,   74.9,  999.0,  999.0,   77.1,  999.0,  999.0,  999.0,  999.0,  999.0,  999.0,  999.0,  999.0,  999.0,  999.0,  999.0,  999.0,  999.0,  999.0,  999.0,  999.0,  999.0,  999.0,  999.0,  999.0,  999.0,  999.0,  999.0,   10.9,  999.0,  999.0,   43.1,  999.0,  999.0,  999.0,  999.0,  999.0,   -0.1,  999.0,   65.8,   63.4,   66.9,  999.0,  999.0,   46.4,   43.5,   43.1,   42.9,   40.6,   40.4,   43.3,   38.0,   35.3,   30.3,   27.1,  999.0,   16.8,  999.0,  999.0,   24.7,   27.8,  999.0,   24.4,   24.2,   21.6,   25.7,   23.8,  999.0,   20.0
1994/01/18 09:35,    1.1,   17.2,    0.0,    0.4,    0.1,   -0.2,   24.5,  999.0,  999.0,  999.0,   34.3,   37.1,   38.3,   38.9,  999.0,   38.8,   37.4,   38.5,   39.2,   39.1,   39.7,  999.0,   39.9,   39.1,   38.8,   39.5,   38.6,   40.0,   38.2,   39.0,   40.5,   39.6,   40.5,   42.4,   42.6,   44.4,   46.1,   46.8,   47.6,   48.4,   48.5,   50.8,   52.0,   52.9,   51.9,   54.9,   58.5,   62.0,   66.5,   73.1,   78.0,  999.0,   72.8,   72.7,  999.0,  999.0,  999.0,   76.9,  999.0,  999.0,  999.0,  999.0,  999.0,  999.0,  999.0,  999.0,  999.0,  999.0,  999.0,  999.0,  999.0,  999.0,  999.0,  999.0,  999.0,  999.0,  999.0,  999.0,  999.0,  999.0,  999.0,  999.0,  999.0,  999.0,  999.0,  999.0,  999.0,  999.0,  999.0,  999.0,  999.0,   64.3,   63.7,  999.0,  999.0,   47.5,   45.8,   47.0,   45.7,   43.5,   46.5,  999.0,   34.2,   32.8,  999.0,   29.8,  999.0,  999.0,  999.0,  999.0,   24.1,   28.2,   27.3,   24.3,   22.3,   23.9,   25.4,   23.7,  999.0,   20.1
1994/01/18 09:45,   -0.0,   18.4,   -0.2,    0.0,    0.0,   -0.0,  999.0,  999.0,  999.0,  999.0,   34.1,   36.8,   35.9,   35.4,  999.0,   37.8,   37.0,   37.2,   37.4,   39.3,   39.3,  999.0,   39.7,   38.6,   38.7,   39.5,   39.4,   38.8,   39.4,   39.6,   40.2,   39.0,   41.0,   41.5,   42.8,   46.8,   46.8,  999.0,   46.9,   49.5,   47.4,   50.1,   51.5,   53.3,   51.8,   53.7,   58.2,   63.4,   68.4,   74.8,  999.0,   72.3,   74.1,  999.0,  999.0,  999.0,   78.3,  999.0,   77.9,  999.0,  999.0,  999.0,  999.0,  999.0,  999.0,  999.0,  999.0,  999.0,  999.0,  999.0,  999.0,  999.0,  999.0,  999.0,  999.0,  999.0,  999.0,  999.0,  999.0,  999.0,  999.0,  999.0,  999.0,  999.0,  999.0,  999.0,  999.0,  999.0,  999.0,  999.0,  999.0,  999.0,   64.1,  999.0,  999.0,  999.0,   45.6,   48.3,   50.0,   46.0,   45.8,   47.5,   44.9,   36.8,   32.0,   28.7,  999.0,  999.0,  999.0,  999.0,   25.2,  999.0,  999.0,   23.3,   23.4,   22.8,   25.6,   24.3,   18.0,   20.3
1994/01/18 09:55,  999.0,   19.0,    0.1,    0.0,    0.0,   -0.1,  999.0,  999.0,  999.0,  999.0,   36.0,   38.0,   36.7,   36.8,  999.0,   37.0,   36.7,   37.8,   38.7,   39.2,   39.3,  999.0,   38.6,   38.4,   38.2,   37.9,   38.6,   39.5,   39.6,   40.6,   41.5,   40.3,   41.9,   44.3,   47.7,   45.8,   45.9,  999.0,   47.1,   48.5,   50.5,   50.6,   52.9,   52.8,   51.0,   56.1,   60.6,   65.8,   72.8,  999.0,  999.0,   72.1,   74.4,   76.5,  999.0,  999.0,  999.0,  999.0,  999.0,  999.0,  999.0,  999.0,  999.0,  999.0,  999.0,  999.0,  999.0,  999.0,  999.0,  999.0,  999.0,  999.0,  999.0,  999.0,  999.0,  999.0,  999.0,  999.0,  999.0,  999.0,  999.0,  999.0,  999.0,  999.0,  999.0,  999.0,  999.0,  999.0,  999.0,  999.0,  999.0,  999.0,  999.0,  999.0,  999.0,  999.0,   49.0,   51.1,   49.1,   46.9,   49.0,   48.7,  999.0,   40.1,   29.4,   26.1,   26.0,   18.5,   19.1,   22.9,   26.7,   31.4,  999.0,   25.6,   21.5,   22.4,   25.0,  999.0,   17.5,   18.6
1994/01/18 10:05,    0.6,   18.4,    0.6,    0.3,    0.4,    0.2,  999.0,  999.0,  999.0,  999.0,   37.5,   38.5,   35.2,   36.1,   39.4,   36.6,   37.0,   39.2,   39.5,   39.3,   38.6,  999.0,   38.0,   37.1,   37.8,   38.1,   39.5,   40.1,   40.8,   41.9,   42.3,   43.1,   43.2,   46.0,   47.4,   46.7,   47.1,   46.7,   48.3,   49.7,   51.9,   50.8,   51.8,   50.5,   51.6,   57.5,   62.9,   69.6,   75.3,  999.0,  999.0,   74.6,   74.4,   75.9,  999.0,  999.0,   77.3,  999.0,   79.1,  999.0,  999.0,  999.0,  999.0,  999.0,  999.0,  999.0,  999.0,  999.0,  999.0,  999.0,  999.0,  999.0,  999.0,  999.0,  999.0,  999.0,  999.0,  999.0,  999.0,  999.0,  999.0,  999.0,    0.7,  999.0,  999.0,  999.0,  999.0,  999.0,  999.0,  999.0,  999.0,  999.0,  999.0,  999.0,  999.0,  999.0,  999.0,   45.1,   43.9,   43.6,   46.0,   45.9,   40.8,   39.5,   25.6,   23.9,   21.2,   21.3,  999.0,   23.0,   25.8,   30.5,  999.0,   24.0,   25.9,   22.1,   25.2,  999.0,  999.0,   16.9
1994/01/18 10:15,  999.0,   18.4,    1.0,    0.6,    0.3,    1.2,   25.8,  999.0,  999.0,  999.0,   38.3,   37.3,   35.3,   36.2,   37.1,   36.7,   36.6,   38.4,   39.2,   37.0,   37.6,  999.0,   35.9,   36.7,   38.5,   38.6,   38.3,   39.0,   41.0,   42.5,   42.0,   43.1,   43.2,   44.6,   45.7,   46.5,   47.6,   46.7,   48.9,   49.2,   49.9,   52.4,   51.6,   50.6,   52.8,   59.8,   66.3,   72.5,   78.2,  999.0,   70.4,   75.7,   74.9,  999.0,  999.0,  999.0,   78.3,  999.0,   79.8,  999.0,  999.0,  999.0,  999.0,  999.0,  999.0,  999.0,  999.0,  999.0,  999.0,  999.0,  999.0,  999.0,  999.0,  999.0,  999.0,  999.0,   77.0,  999.0,  999.0,  999.0,  999.0,  999.0,  999.0,  999.0,  999.0,  999.0,  999.0,  999.0,  999.0,   59.1,  999.0,   60.9,   63.0,  999.0,  999.0,  999.0,  999.0,   44.4,   44.2,   44.4,   44.0,   46.3,   42.0,   39.5,   32.0,   24.3,   20.3,   21.5,  999.0,   27.7,   29.8,  999.0,  999.0,   24.3,   25.9,   26.6,  999.0,  999.0,  999.0,   17.7
1994/01/18 10:25,  999.0,   19.1,    0.1,    0.0,  999.0,   -0.1,   -0.6,  999.0,  999.0,  999.0,   38.3,   38.6,   36.0,   35.4,   36.0,   36.5,   38.2,   39.4,   38.6,   38.9,   36.3,   39.8,   37.8,   38.9,   39.3,   39.8,   39.3,   40.7,   41.6,   40.9,   41.3,   42.9,   44.4,   44.8,   47.5,   45.5,   47.1,   47.2,   48.3,   50.3,   52.0,   50.5,  999.0,   51.6,   53.4,   60.2,   67.7,   74.1,   77.8,  999.0,   69.3,   75.8,   73.2,  999.0,   76.5,  999.0,  999.0,  999.0,  999.0,  999.0,  999.0,  999.0,  999.0,   23.5,  999.0,  999.0,  999.0,  999.0,  999.0,  999.0,  999.0,  999.0,  999.0,  999.0,  999.0,  999.0,  999.0,  999.0,  999.0,  999.0,  999.0,  999.0,    1.0,  999.0,  999.0,  999.0,  999.0,  999.0,  999.0,   58.0,   61.5,  999.0,   61.1,  999.0,  999.0,  999.0,  999.0,   43.5,   42.3,   46.1,   43.1,   48.0,   42.0,   38.8,   30.9,   23.9,   23.7,   19.8,  999.0,  999.0,   28.5,  999.0,   30.2,   25.6,   24.0,   22.7,   25.2,  999.0,   18.9,   17.6
1994/01/18 10:35,    0.6,   16.8,   -0.1,    0.2,   -0.1,    0.3,   -0.0,   31.3,   35.0,  999.0,   37.8,   36.7,   36.0,   36.8,   38.0,   38.3,   37.8,   37.0,   36.9,   36.0,   37.5,   41.1,   39.4,   39.1,   40.9,   42.7,   41.2,   41.4,   42.5,   41.6,   43.0,   44.2,   46.2,   46.9,   46.2,   45.3,   46.5,   47.3,   49.1,   51.9,   50.3,   51.3,   51.5,   51.8,   56.8,   61.6,   68.1,   75.4,  999.0,  999.0,   70.5,   76.3,   75.6,   73.9,   77.1,   79.3,   77.9,  999.0,  999.0,  999.0,  999.0,  999.0,  999.0,  999.0,  999.0,  999.0,  999.0,  999.0,  999.0,  999.0,  999.0,  999.0,  999.0,  999.0,  999.0,  999.0,  999.0,  999.0,  999.0,  999.0,  999.0,  999.0,  999.0,  999.0,  999.0,  999.0,  999.0,  999.0,  999.0,   57.8,   62.3,   60.5,   63.7,  999.0,  999.0,  999.0,   46.0,   46.7,   41.7,   43.9,   43.1,   48.3,   42.6,   40.5,  999.0,   26.6,   22.1,  999.0,  999.0,  999.0,   28.1,  999.0,  999.0,   23.6,   23.7,   22.8,   25.2,  999.0,   19.4,   18.1
1994/01/18 10:45,    0.1,   17.8,    0.1,    0.3,  999.0,    0.0,   -0.3,   31.8,   33.2,    0.1,   36.1,   36.8,   35.5,   38.3,  999.0,   35.6,   35.9,   36.0,   35.3,   37.0,   39.1,   39.4,   40.5,   41.5,   42.1,   41.9,   42.9,   43.1,   43.6,   43.6,   46.5,   46.0,   47.2,   46.2,   46.2,   46.9,   47.7,   48.6,   50.3,   51.7,   49.6,   50.4,   50.9,   52.3,   58.4,   65.3,   71.1,   76.6,  999.0,  999.0,   68.5,   74.8,   76.9,   76.5,   77.4,   79.8,   77.8,  999.0,  999.0,  999.0,  999.0,  999.0,  999.0,  999.0,  999.0,  999.0,  999.0,  999.0,  999.0,  999.0,  999.0,  999.0,  999.0,  999.0,  999.0,  999.0,  999.0,  999.0,  999.0,  999.0,  999.0,  999.0,  999.0,  999.0,  999.0,  999.0,  999.0,  999.0,  999.0,   61.4,  999.0,   62.4,   65.2,  999.0,  999.0,   53.3,   46.0,   45.8,   45.7,   44.9,   41.0,   47.7,   45.1,   41.8,   38.0,  999.0,   26.0,  999.0,  999.0,   24.9,   28.5,   26.6,  999.0,  999.0,   25.6,  999.0,   24.3,   20.0,   18.1,   18.9
1994/01/18 10:55,    0.5,  999.0,    0.1,   22.6,  999.0,    0.6,   -0.4,  999.0,   30.7,  999.0,   34.5,   37.7,   40.9,   42.2,  999.0,   35.5,   37.7,   37.2,   37.2,   37.9,   39.6,   40.7,   40.5,   40.7,   40.3,   40.7,   42.0,   43.0,   44.1,   45.9,   48.0,   49.3,   47.6,   49.7,   47.4,   50.2,   48.7,   49.4,   51.6,   49.8,   49.6,   50.0,   51.2,   56.7,   61.6,   68.1,   72.9,  999.0,  999.0,  999.0,   69.8,   76.4,   74.1,   76.4,   78.8,  999.0,   77.0,  999.0,  999.0,  999.0,  999.0,  999.0,  999.0,  999.0,  999.0,  999.0,  999.0,   36.9,  999.0,  999.0,  999.0,  999.0,  999.0,  999.0,  999.0,  999.0,  999.0,  999.0,  999.0,  999.0,  999.0,  999.0,  999.0,  999.0,  999.0,  999.0,  999.0,  999.0,  999.0,   64.5,   63.1,  999.0,   67.0,  999.0,  999.0,  999.0,  999.0,   44.8,   47.9,   44.0,   41.5,   46.6,   46.0,  999.0,  999.0,  999.0,   25.8,   23.7,  999.0,   26.3,   28.9,  999.0,   39.7,  999.0,   23.2,  999.0,  999.0,  999.0,   17.9,   16.6
1994/01/18 11:05,  999.0,  999.0,  999.0,   21.6,  999.0,   -0.1,   27.1,  999.0,   32.0,  999.0,   36.5,   40.1,   42.0,   44.0,  999.0,   41.8,   38.1,   37.4,   37.8,   39.0,   39.2,  999.0,   38.7,   40.2,   40.8,   40.5,   42.4,   43.9,   45.7,   45.2,   47.6,   46.8,   46.5,   47.6,   48.5,   47.4,   49.6,   49.7,   50.2,   47.8,   49.8,   48.3,   51.9,   57.4,   63.2,   67.2,   72.5,  999.0,  999.0,   69.5,   70.3,   75.8,   73.1,   77.8,   79.2,  999.0,   76.6,  999.0,  999.0,  999.0,  999.0,  999.0,  999.0,   31.0,  999.0,  999.0,  999.0,  999.0,  999.0,  999.0,  999.0,  999.0,  999.0,  999.0,  999.0,  999.0,   74.7,  999.0,  999.0,  999.0,   72.4,  999.0,  999.0,  999.0,  999.0,  999.0,  999.0,   68.0,  999.0,   59.6,   63.6,   62.4,   63.0,  999.0,   59.8,   54.4,   49.4,   44.7,   43.5,   45.1,   38.5,   42.5,   44.3,   39.6,   34.9,   32.8,   25.5,   22.2,  999.0,   25.6,  999.0,  999.0,  999.0,   25.7,   23.0,  999.0,   22.6,  999.0,   17.3,   17.6
1994/01/18 11:15,    0.3,   -0.2,   -0.1,   23.3,  999.0,   -0.2,  999.0,   27.6,  999.0,   32.7,   34.9,   36.9,   40.8,   42.4,  999.0,   39.7,   39.1,   38.9,  999.0,   39.4,   39.3,  999.0,   39.3,   40.6,   41.5,   43.1,   44.3,   44.1,   45.5,   44.5,   46.2,   46.9,   47.4,   47.0,   48.7,   49.5,   50.0,   49.4,   50.2,   47.1,   48.5,   49.0,   54.5,   58.9,   62.0,   67.7,   73.3,  999.0,  999.0,   66.2,   71.8,   77.7,   71.9,   75.8,   76.3,  999.0,  999.0,   79.0,  999.0,  999.0,  999.0,  999.0,  999.0,  999.0,  999.0,  999.0,  999.0,  999.0,  999.0,  999.0,  999.0,  999.0,  999.0,  999.0,  999.0,  999.0,   71.1,  999.0,  999.0,   76.6,   79.1,  999.0,  999.0,  999.0,  999.0,  999.0,  999.0,  999.0,  999.0,   59.6,  999.0,  999.0,   62.4,  999.0,  999.0,   52.1,   52.5,   44.9,   44.3,   44.3,   38.9,   43.8,   44.7,   41.9,   37.0,   28.4,  999.0,  999.0,   24.3,   27.1,  999.0,  999.0,   26.0,  999.0,   19.4,   21.0,   19.5,   22.1,   18.6,   17.2
1994/01/18 11:25,    0.2,    0.1,    0.0,   -0.1,  999.0,    0.3,   24.7,   27.1,  999.0,   30.2,   34.2,   35.6,   37.7,   40.0,  999.0,   41.5,   42.3,   42.6,  999.0,   38.7,   39.1,   40.3,   40.0,   41.4,   44.1,   44.8,   43.9,   43.9,   46.5,   45.3,   46.4,   46.6,   47.6,   47.1,   48.5,   48.6,   49.5,   49.3,   48.0,   47.4,   48.0,   53.2,   56.5,   60.0,   64.2,   69.0,   75.0,  999.0,   68.2,   68.6,   73.7,   76.7,   73.2,   75.0,   78.3,   79.1,   78.3,  999.0,  999.0,  999.0,  999.0,  999.0,  999.0,  999.0,  999.0,  999.0,  999.0,  999.0,  999.0,  999.0,  999.0,  999.0,  999.0,  999.0,   79.6,  999.0,   76.3,  999.0,   71.7,   63.2,  999.0,  999.0,  999.0,  999.0,  999.0,  999.0,  999.0,  999.0,  999.0,   60.3,   62.4,   63.9,   65.0,  999.0,  999.0,  999.0,  999.0,   39.9,   41.9,   42.8,  999.0,   43.7,   45.2,   43.7,   37.3,   34.8,   22.9,   28.4,  999.0,   27.4,   31.7,   24.1,   25.0,   24.1,  999.0,  999.0,   21.3,  999.0,  999.0,   16.8
1994/01/18 11:35,    0.1,   -0.5,    0.0,    0.1,  999.0,   -0.0,   24.5,   27.7,  999.0,   29.1,   31.0,   33.5,   36.6,   38.7,   40.9,   42.0,   42.8,   42.4,  999.0,   41.2,   40.0,   39.7,   41.0,   40.9,   42.4,   42.7,   43.9,   46.2,   46.3,   46.2,   46.8,   47.1,   46.8,   47.7,   47.4,   47.4,   48.6,   46.6,   47.3,   49.5,   51.8,   53.8,   55.7,   60.5,   64.1,   68.6,   73.2,   76.5,  999.0,   68.5,   74.7,   77.4,   74.7,   77.6,   79.8,   79.9,  999.0,  999.0,  999.0,  999.0,  999.0,  999.0,  999.0,  999.0,  999.0,  999.0,  999.0,  999.0,  999.0,  999.0,  999.0,  999.0,  999.0,  999.0,  999.0,  999.0,   77.4,  999.0,  999.0,   77.4,  999.0,  999.0,  999.0,  999.0,  999.0,  999.0,  999.0,   60.6,   63.9,   62.5,   64.3,   64.8,   63.7,   64.1,  999.0,   51.7,   48.1,   45.6,   41.6,   44.2,  999.0,   39.6,   44.9,   43.9,   42.6,  999.0,   29.0,   24.8,   22.7,   27.3,   25.1,   23.3,   24.8,   24.2,  999.0,   20.7,   19.8,   20.0,   21.5,   15.9
1994/01/18 11:45,    0.2,   -0.0,  999.0,  999.0,  999.0,  999.0,   29.2,   29.9,   30.1,   31.9,   34.6,   35.1,   37.8,   40.6,   41.2,   42.1,   44.0,   42.2,   43.3,   43.4,   42.7,  999.0,   40.0,   39.5,   40.9,   42.4,   44.8,   45.7,   44.8,   44.8,   46.5,   46.2,   47.8,   46.7,   46.4,   46.7,   46.8,   49.4,   49.6,   48.9,   51.7,   53.9,   56.8,   61.4,   65.1,   68.3,   73.9,   77.3,  999.0,   71.0,   75.5,   72.6,   76.0,   78.3,  999.0,   78.0,   77.4,  999.0,  999.0,  999.0,  999.0,  999.0,  999.0,  999.0,  999.0,  999.0,  999.0,  999.0,  999.0,  999.0,  999.0,  999.0,  999.0,  999.0,  999.0,  999.0,  999.0,  999.0,  999.0,   77.8,  999.0,  999.0,  999.0,  999.0,  999.0,  999.0,   71.5,   65.0,   62.4,   64.1,   65.1,   66.8,   64.8,  999.0,   56.4,   54.6,   49.4,   42.2,   42.4,   44.1,  999.0,   40.0,   44.4,   45.4,   43.8,   31.6,   29.9,  999.0,  999.0,  999.0,   29.7,   22.3,   24.5,  999.0,  999.0,   22.7,   20.2,   19.5,   18.9,   14.9
1994/01/18 11:55,   -0.0,    0.5,    0.5,    3.0,  999.0,   25.2,   30.2,   30.7,   31.3,   35.1,   34.7,   36.1,   38.6,   39.8,  999.0,   42.2,   43.2,   42.5,   42.5,   42.9,   43.3,  999.0,   39.4,   40.6,   42.5,   43.9,   44.7,   44.3,   44.5,   45.0,   45.5,   46.0,   45.8,   47.2,   47.5,   48.1,   47.5,   48.9,   50.6,   50.8,   52.2,   53.3,   56.7,   61.8,   65.9,   70.1,   74.7,  999.0,  999.0,   71.4,   74.1,   72.0,   76.8,   76.3,  999.0,  999.0,  999.0,  999.0,  999.0,  999.0,  999.0,  999.0,  999.0,  999.0,  999.0,  999.0,  999.0,  999.0,  999.0,  999.0,  999.0,  999.0,  999.0,  999.0,  999.0,  999.0,  999.0,  999.0,  999.0,  999.0,  999.0,  999.0,  999.0,  999.0,  999.0,  999.0,   68.5,   63.1,   65.3,   61.1,   64.1,   65.8,   64.0,  999.0,   56.1,   49.3,   47.5,   44.4,   42.8,   43.4,   34.1,   39.7,   42.8,   39.2,   39.5,  999.0,  999.0,   23.0,  999.0,   27.1,   30.3,  999.0,   23.3,   23.8,  999.0,   22.3,   22.6,   18.6,   19.4,   13.2
1994/01/18 12:05,    2.0,    0.2,    0.1,   25.7,  999.0,  999.0,   28.9,   29.5,   30.3,   32.5,   34.8,   37.4,   39.1,   39.5,   41.1,   43.7,   44.4,   44.7,   42.8,   41.5,   42.2,   43.1,   41.3,   42.3,   42.6,   44.0,   44.0,   44.2,   44.0,   43.0,   43.6,   43.8,   44.6,   46.3,   46.4,   46.8,   47.8,   47.8,   50.8,   49.1,   49.6,   55.5,   58.7,   61.6,   66.5,   71.0,   74.5,  999.0,  999.0,   76.7,   71.3,   76.9,   77.1,   75.7,  999.0,  999.0,   77.0,  999.0,  999.0,  999.0,  999.0,  999.0,  999.0,  999.0,  999.0,  999.0,  999.0,  999.0,  999.0,  999.0,  999.0,  999.0,  999.0,  999.0,  999.0,  999.0,  999.0,  999.0,  999.0,  999.0,  999.0,  999.0,  999.0,  999.0,  999.0,  999.0,  999.0,   65.4,  999.0,   59.7,   63.7,   65.9,   65.4,  999.0,   53.5,   47.3,   46.7,   41.2,   43.5,   45.3,   39.4,   37.8,   41.1,   36.4,  999.0,  999.0,  999.0,  999.0,  999.0,  999.0,  999.0,  999.0,   22.3,   22.3,   23.3,   23.6,   24.7,   21.5,   21.2,   15.1
1994/01/18 12:15,    0.2,   -0.0,   -0.0,  999.0,  999.0,   -0.1,   27.6,   29.9,  999.0,    0.5,   34.4,   37.0,   38.6,   41.0,   43.7,   46.4,   43.8,   44.4,   44.3,   44.1,   44.4,   45.1,   43.5,   42.7,   43.5,   44.9,   44.4,   43.8,   42.9,   42.2,   42.8,   43.9,   44.0,   45.6,   45.6,   46.2,   48.9,   46.7,   50.4,   50.8,   51.8,   55.3,   59.2,   62.7,   66.9,   74.3,   73.4,   73.1,   75.8,   70.1,   74.1,   76.5,   78.4,  999.0,   79.4,   75.8,  999.0,  999.0,  999.0,  999.0,  999.0,  999.0,  999.0,  999.0,  999.0,  999.0,  999.0,  999.0,  999.0,  999.0,  999.0,  999.0,  999.0,  999.0,  999.0,   78.2,   74.3,  999.0,  999.0,  999.0,  999.0,  999.0,  999.0,  999.0,  999.0,  999.0,   64.5,   60.6,   62.7,   54.6,   60.2,   62.7,   63.1,   45.0,   61.5,  999.0,   41.6,   41.3,   38.8,   40.8,   38.7,   40.8,   43.3,  999.0,  999.0,  999.0,   21.7,   23.3,   24.2,  999.0,   23.6,   27.7,   23.2,   24.7,   22.5,   25.2,   23.3,   20.6,   20.1,   16.7
1994/01/18 12:25,    0.1,    0.0,  999.0,  999.0,  999.0,    0.3,   27.5,   29.8,  999.0,  999.0,   32.8,   36.1,   39.9,   42.5,  999.0,   43.9,   43.2,   44.1,   45.1,   45.4,   45.9,   47.3,   47.2,   46.4,   44.6,   44.5,   44.5,   43.4,   43.6,   43.8,   45.0,   43.2,   46.3,   45.1,   45.2,   44.9,   47.5,   50.1,   50.7,   52.0,   52.4,   57.2,   60.7,   64.4,   68.6,   72.6,   76.7,   76.7,   78.5,   72.6,   76.1,   76.7,   78.1,  999.0,   77.9,   76.4,  999.0,  999.0,  999.0,  999.0,  999.0,  999.0,  999.0,  999.0,  999.0,  999.0,  999.0,  999.0,  999.0,  999.0,  999.0,  999.0,  999.0,  999.0,  999.0,   73.2,   77.3,  999.0,  999.0,   77.0,  999.0,  999.0,  999.0,  999.0,   69.3,  999.0,   65.3,   60.4,  999.0,   51.8,   58.6,   63.5,   62.8,   61.6,  999.0,  999.0,  999.0,   40.8,   42.9,   37.7,   41.3,   37.8,   44.1,   40.6,   33.8,  999.0,  999.0,   21.3,  999.0,   22.3,   25.9,   28.1,   23.0,   24.0,   22.4,   25.7,   21.9,   22.1,   22.2,   18.3
1994/01/18 12:35,    0.1,   -0.3,    0.1,  999.0,  999.0,   -0.1,   25.7,   28.8,  999.0,   29.2,   32.2,   35.1,   38.2,   41.0,  999.0,   42.6,   45.0,   45.1,   45.9,   46.5,   45.7,   46.6,   46.5,   47.2,   47.8,   45.5,   45.2,   44.6,   42.8,   44.4,   44.6,   42.7,   44.3,   44.9,   46.4,   48.8,   49.5,   50.4,   53.2,   52.1,   54.9,   59.2,   62.3,   66.6,   72.7,   76.1,  999.0,   77.2,  999.0,   72.5,   75.4,   77.8,   78.6,  999.0,  999.0,   78.2,  999.0,  999.0,  999.0,  999.0,  999.0,  999.0,  999.0,  999.0,  999.0,  999.0,  999.0,  999.0,  999.0,  999.0,  999.0,  999.0,  999.0,  999.0,  999.0,   79.5,  999.0,   78.4,  999.0,  999.0,  999.0,  999.0,   24.1,  999.0,   54.5,  999.0,   61.9,   59.3,  999.0,   51.5,   55.7,   58.5,   60.1,   44.1,  999.0,   53.7,  999.0,   43.7,   42.0,   40.6,   40.5,   38.9,   42.2,   42.3,   38.9,   31.0,  999.0,  999.0,  999.0,   21.5,   24.0,   30.0,   24.3,   25.7,   24.7,   23.1,   25.0,   19.2,  999.0,   16.4
1994/01/18 12:45,    0.1,   -0.1,    0.1,   20.9,  999.0,   -0.2,   26.3,   28.0,   29.1,   31.0,   35.3,   38.2,   39.7,   41.4,  999.0,   44.0,   45.0,   47.4,   47.6,   47.5,   46.9,   47.0,   47.1,   47.0,   47.5,   47.2,   46.7,   45.2,   46.6,   45.2,   45.3,   44.5,   44.2,   46.7,   46.3,   48.0,   47.3,   50.8,   52.7,   50.6,   53.2,   58.3,   61.6,   64.6,   70.0,   76.8,  999.0,  999.0,   76.2,   74.2,   77.0,   76.3,   79.0,  999.0,  999.0,   79.3,  999.0,  999.0,  999.0,  999.0,  999.0,  999.0,  999.0,  999.0,  999.0,  999.0,  999.0,  999.0,  999.0,  999.0,  999.0,  999.0,  999.0,  999.0,   76.9,  999.0,  999.0,  999.0,  999.0,  999.0,  999.0,  999.0,  999.0,  999.0,   70.6,   67.5,   60.0,   38.0,  999.0,   50.3,   36.8,   60.0,   42.0,   61.1,  999.0,   51.8,   48.1,  999.0,   40.4,   42.3,   41.8,   39.8,   43.9,   26.5,   42.1,  999.0,  999.0,  999.0,  999.0,   23.9,   26.5,   30.5,   31.4,   29.0,   26.2,   26.4,   22.0,   22.4,   22.0,   17.1
1994/01/18 12:55,   -0.1,   -0.1,    0.1,   19.9,    0.2,    0.1,   26.3,   27.2,  999.0,   30.4,   34.6,   38.1,   39.5,   39.8,  999.0,   44.3,   46.8,   47.6,   47.3,   47.4,   46.3,   47.0,   47.7,   47.3,   48.4,   47.5,   45.7,   45.6,   45.8,   45.3,   45.2,   44.0,   44.4,   46.2,   46.1,   48.6,   50.5,   50.7,   52.3,   50.4,   51.7,   56.3,   59.7,   63.6,   68.0,   73.4,   77.8,  999.0,  999.0,   74.9,   76.1,   75.2,   79.4,  999.0,  999.0,   78.8,  999.0,  999.0,  999.0,  999.0,  999.0,  999.0,  999.0,  999.0,  999.0,  999.0,  999.0,  999.0,  999.0,  999.0,  999.0,  999.0,  999.0,  999.0,  999.0,  999.0,  999.0,  999.0,  999.0,  999.0,  999.0,  999.0,  999.0,  999.0,   66.9,   65.7,   60.5,   63.8,  999.0,   51.5,   56.6,   60.9,   62.5,   32.0,  -10.4,   54.0,  999.0,  999.0,   45.7,   42.9,   43.9,   44.2,   44.1,   47.2,   43.5,  999.0,   26.3,   27.4,  999.0,   24.0,   24.6,   29.1,   25.6,   25.5,   24.8,   24.9,   23.0,   20.7,   20.3,   17.5
1994/01/18 13:05,   -0.2,  999.0,  999.0,   20.9,  999.0,  999.0,   25.3,   28.6,  999.0,  999.0,   34.5,   36.5,   37.8,   39.0,  999.0,   43.5,   46.1,   46.4,   46.0,   46.8,   46.9,   48.9,   47.1,   47.6,   47.6,   48.5,   49.8,   49.3,   47.5,   47.3,   45.6,   47.1,   46.5,   46.9,   47.6,   49.0,   51.1,   51.6,   52.3,   50.9,   55.5,   57.3,   60.0,   62.8,   67.7,   72.0,   76.3,  999.0,   74.9,   77.8,   70.6,   74.6,  999.0,  999.0,  999.0,   79.6,  999.0,  999.0,  999.0,  999.0,  999.0,  999.0,  999.0,  999.0,  999.0,  999.0,  999.0,  999.0,  999.0,  999.0,  999.0,  999.0,  999.0,  999.0,  999.0,  999.0,  999.0,  999.0,  999.0,  999.0,  999.0,  999.0,  999.0,   70.2,   68.4,   65.4,   63.9,   62.6,  999.0,   52.8,   57.2,   57.7,   59.6,  999.0,  999.0,  999.0,  999.0,  999.0,  999.0,  999.0,   38.4,   39.8,   41.1,   46.7,  999.0,  999.0,  999.0,   26.1,  999.0,   25.8,   28.6,  999.0,   23.0,  999.0,  999.0,   24.1,   19.2,  999.0,   17.5,  999.0
1994/01/18 13:15,    0.1,  999.0,   20.4,    0.0,  999.0,    0.1,  999.0,   27.9,  999.0,   29.7,   34.8,   36.1,   38.3,   41.3,  999.0,   45.3,   44.7,   44.0,  999.0,   45.4,   46.9,   48.1,   48.6,   47.2,   45.9,   47.4,   47.8,   49.7,   48.5,   46.4,   46.2,   47.7,   48.0,   49.1,   49.6,   50.3,   50.3,   51.5,   51.7,   51.1,   55.2,   59.0,   62.6,   66.4,  999.0,   78.0,  999.0,    0.9,   51.1,    0.8,   71.7,   57.0,  999.0,  999.0,  999.0,  999.0,   78.8,  999.0,  999.0,  999.0,  999.0,  999.0,  999.0,  999.0,  999.0,  999.0,  999.0,  999.0,  999.0,  999.0,  999.0,  999.0,  999.0,  999.0,  999.0,  999.0,  999.0,  999.0,  999.0,  999.0,  999.0,  999.0,  999.0,   68.4,   72.0,   64.7,   63.3,   65.9,  999.0,   39.4,   57.0,   59.3,   60.5,  999.0,  999.0,  999.0,  999.0,  999.0,  999.0,  999.0,  999.0,  999.0,   41.5,   47.1,  999.0,  999.0,  999.0,  999.0,  999.0,  999.0,  999.0,   25.4,   23.1,   23.6,  999.0,   22.3,   19.6,   16.8,  999.0,  999.0
1994/01/18 13:25,    0.1,  999.0,   18.2,  999.0,    0.1,    0.1,  999.0,  999.0,   29.0,   31.8,   34.1,   37.2,   40.3,   41.5,  999.0,   44.5,   44.9,   43.5,   46.6,   47.7,   44.9,   46.8,   46.1,   45.9,   45.2,   46.7,   46.3,   47.3,   47.6,   44.9,   48.7,   48.3,   49.0,   48.4,   48.8,   50.6,   49.4,   49.6,   51.5,   55.7,   58.7,   60.8,   63.8,   67.6,   72.4,   75.5,  999.0,   70.8,  999.0,  999.0,   75.3,   77.8,   79.7,  999.0,  999.0,  999.0,  999.0,  999.0,  999.0,  999.0,  999.0,  999.0,  999.0,  999.0,  999.0,  999.0,  999.0,  999.0,  999.0,  999.0,  999.0,  999.0,  999.0,  999.0,  999.0,  999.0,  999.0,  999.0,  999.0,  999.0,  999.0,  999.0,  999.0,  999.0,  999.0,   66.4,   63.2,   62.1,  999.0,   52.2,   56.0,   60.5,   60.3,  999.0,  999.0,  999.0,  999.0,  999.0,  999.0,  999.0,  999.0,  999.0,   39.5,  999.0,  999.0,  999.0,  999.0,  999.0,  999.0,  999.0,  999.0,   24.5,   22.3,  999.0,  999.0,  999.0,   20.4,   19.2,  999.0,  999.0
1994/01/18 13:35,  999.0,  999.0,   -0.0,  999.0,   -0.1,   -0.0,  999.0,   27.8,  999.0,   32.1,   35.8,   38.2,   39.7,   41.8,  999.0,   43.4,   42.9,   46.8,  999.0,   47.8,   46.3,   47.4,   48.5,   47.6,   46.5,   47.5,   46.7,   48.7,   49.8,   49.5,   48.7,   50.6,   50.4,   50.5,   50.6,   48.6,   48.7,   50.6,   53.6,   56.9,   59.3,   62.6,   65.0,   69.0,   72.8,   76.1,  999.0,   71.7,   77.6,  999.0,   72.7,   77.3,   79.6,  999.0,  999.0,  999.0,   77.8,   79.3,  999.0,  999.0,  999.0,  999.0,  999.0,  999.0,  999.0,  999.0,  999.0,  999.0,  999.0,  999.0,  999.0,  999.0,  999.0,  999.0,  999.0,   80.0,  999.0,  999.0,  999.0,  999.0,  999.0,  999.0,  999.0,  999.0,  999.0,  999.0,   61.4,   61.2,  999.0,   52.6,   57.2,   61.4,   59.1,  999.0,  999.0,  999.0,  999.0,   45.5,   44.6,   42.3,   44.4,   41.5,   45.9,   46.6,   40.5,   35.6,  999.0,  999.0,   23.2,   27.5,  999.0,   29.1,   24.5,   25.6,   24.7,   21.6,   18.6,   17.7,   17.2,   11.4
1994/01/18 13:45,  999.0,  999.0,    0.0,    0.2,  999.0,   -0.2,   25.4,   27.4,   29.2,   31.6,   35.3,   36.4,   38.3,   40.2,  999.0,   41.4,  999.0,   48.1,   47.8,   48.0,   48.5,   47.9,   47.7,   48.6,   49.7,   47.9,   48.9,   49.4,   48.7,   47.3,   49.1,   51.9,   49.9,   50.0,   51.0,   50.3,   50.7,   51.7,   54.4,   58.2,   61.4,   65.3,   67.9,   69.6,   73.0,   77.6,  999.0,   75.2,   76.8,   75.0,   71.9,   75.0,   78.1,  999.0,  999.0,  999.0,   79.4,   76.9,  999.0,  999.0,  999.0,  999.0,  999.0,  999.0,  999.0,  999.0,  999.0,  999.0,  999.0,  999.0,  999.0,  999.0,  999.0,  999.0,  999.0,   78.5,   78.2,  999.0,  999.0,  999.0,  999.0,  999.0,  999.0,  999.0,  999.0,  999.0,   61.5,   61.4,   62.2,   52.9,   57.5,   59.0,   59.2,  999.0,  999.0,  999.0,  999.0,   42.4,   41.2,   36.5,   40.8,   39.0,   44.8,   45.7,   43.9,   37.0,   31.7,  999.0,   21.9,  999.0,  999.0,  999.0,  999.0,   22.5,   25.1,   22.6,   18.0,   17.1,   16.8,  999.0
1994/01/18 13:55,   -0.1,  999.0,    0.0,    0.1,   -0.1,   -0.1,   26.5,   29.4,  999.0,   31.9,   35.5,   37.9,   38.7,   41.4,  999.0,   47.0,   49.0,   48.6,   48.5,   49.0,   48.4,   48.5,   47.8,   48.6,   49.0,   48.0,   47.5,   48.1,   48.6,   48.4,   48.9,   48.9,   49.7,   50.9,   50.5,   50.4,   50.1,   51.9,   55.7,   59.8,   64.2,   68.8,   69.2,   70.6,   73.4,  999.0,  999.0,   75.7,  999.0,   77.1,   71.1,   75.6,   79.0,  999.0,  999.0,  999.0,  999.0,  999.0,  999.0,  999.0,  999.0,  999.0,  999.0,  999.0,  999.0,  999.0,  999.0,  999.0,  999.0,  999.0,  999.0,  999.0,  999.0,  999.0,  999.0,   76.0,  999.0,  999.0,  999.0,  999.0,  999.0,  999.0,   73.0,  999.0,  999.0,   66.3,   64.8,   61.9,   59.8,   54.1,   59.5,   61.8,   62.1,  999.0,  999.0,  999.0,  999.0,   41.7,   44.1,   44.2,  999.0,   40.6,   44.0,   46.8,   46.0,   41.3,   31.7,  999.0,   24.7,   28.0,  999.0,  999.0,   29.5,   27.4,   23.0,   24.0,   19.7,   20.1,   16.6,  999.0
1994/01/18 14:05,    0.4,  999.0,    1.3,    0.1,    0.1,   -0.2,   26.5,   27.6,  999.0,   30.1,   33.7,   37.7,   39.1,   42.1,  999.0,   46.2,   45.9,   46.9,   45.9,   46.7,   47.7,   47.8,   48.3,   48.3,   47.5,   47.3,   48.5,   47.9,   47.0,   48.6,   48.0,   49.3,   49.5,   50.3,   49.4,   49.9,   49.7,   52.6,   56.0,   58.6,   62.7,   66.6,   71.4,   73.1,   75.2,  999.0,  999.0,  999.0,  999.0,   77.8,   75.1,   74.0,   78.8,  999.0,  999.0,   79.4,  999.0,   74.8,  999.0,  999.0,  999.0,  999.0,  999.0,  999.0,  999.0,  999.0,  999.0,  999.0,  999.0,  999.0,  999.0,  999.0,  999.0,  999.0,  999.0,  999.0,  999.0,  999.0,  999.0,  999.0,  999.0,  999.0,  999.0,  999.0,  999.0,  999.0,   64.2,   62.7,   61.6,   60.7,   57.6,   61.1,   61.5,  999.0,  999.0,  999.0,  999.0,  999.0,   43.6,   48.8,   41.7,   41.3,   43.7,   46.3,   43.7,   37.7,   32.9,   28.6,   24.6,   26.5,   27.1,  999.0,  999.0,   26.3,   24.7,   23.3,   17.6,   15.3,  999.0,  999.0
1994/01/18 14:15,    5.0,   18.5,    0.3,    0.3,  999.0,    0.3,   27.9,   27.7,  999.0,   29.7,   33.2,   36.6,   38.6,   41.1,  999.0,   45.4,   45.9,   45.6,   46.2,   48.2,   48.0,   48.7,   48.1,   49.4,   49.2,   48.2,   48.5,   48.6,   48.9,   48.1,   48.1,   48.2,   47.4,   48.7,   49.3,   51.1,   53.0,   56.1,   57.0,   61.3,   65.5,   68.7,   70.6,   72.3,   75.0,  999.0,  999.0,  999.0,  999.0,   76.3,   72.9,   77.2,   78.7,  999.0,  999.0,   79.2,  999.0,  999.0,  999.0,  999.0,  999.0,  999.0,  999.0,   54.5,  999.0,  999.0,  999.0,  999.0,  999.0,  999.0,  999.0,  999.0,  999.0,  999.0,  999.0,  999.0,  999.0,  999.0,  999.0,  999.0,  999.0,  999.0,  999.0,  999.0,  999.0,  999.0,   70.0,   61.0,   62.6,   58.4,   62.1,   60.6,   59.6,  999.0,  999.0,  999.0,  999.0,  999.0,   41.2,   38.9,   43.4,  999.0,   43.4,   46.3,   40.0,   32.0,   31.2,  999.0,  999.0,   25.8,  999.0,  999.0,  999.0,  999.0,   24.8,   25.3,   23.6,  999.0,   12.6,  999.0
1994/01/18 14:25,   -0.0,   13.4,   -0.1,    0.1,   -0.2,   -0.2,   27.6,   27.9,  999.0,   30.9,  999.0,   36.1,   36.9,   39.4,  999.0,   45.5,   45.7,   46.2,   46.8,   47.2,   47.9,   48.0,   47.4,   47.7,   47.6,   48.0,   48.8,   48.5,   48.1,   49.4,   48.7,   48.9,   49.4,   50.5,   52.7,   54.0,   54.3,   56.1,   58.9,   62.2,   66.7,   70.1,   71.9,   72.6,  999.0,  999.0,  999.0,  999.0,  999.0,   72.1,  999.0,   75.0,  999.0,  999.0,  999.0,   79.6,  999.0,  999.0,  999.0,   79.0,  999.0,  999.0,  999.0,  999.0,  999.0,  999.0,  999.0,  999.0,  999.0,  999.0,  999.0,  999.0,  999.0,  999.0,   78.9,  999.0,  999.0,  999.0,  999.0,  999.0,  999.0,  999.0,   74.5,  999.0,  999.0,  999.0,   67.4,   61.9,   60.9,   57.9,   61.3,   58.9,   60.7,  999.0,  999.0,  999.0,   48.7,   44.6,   43.1,   42.3,   40.2,   42.0,   43.0,   45.1,   43.9,   31.5,   31.6,   28.4,  999.0,   26.9,  999.0,   25.7,  999.0,   24.3,   22.8,   22.9,   18.1,  999.0,  999.0,  999.0
1994/01/18 14:35,    2.2,   13.6,    0.8,    0.1,   -0.2,    0.1,   27.1,  999.0,  999.0,   30.9,   32.4,   36.3,   38.4,   39.7,  999.0,   45.2,   46.6,   47.4,   48.0,   45.9,   46.9,   46.2,   47.2,   46.6,   48.2,   49.0,   50.0,   49.5,   47.8,   49.3,   50.5,   51.3,   51.7,   52.1,   52.3,   52.5,   52.2,   56.1,   60.7,   63.0,   66.6,   71.3,   71.9,   70.3,   75.1,  999.0,  999.0,  999.0,  999.0,  999.0,   74.7,  999.0,  999.0,  999.0,  999.0,  999.0,  999.0,  999.0,  999.0,  999.0,  999.0,  999.0,  999.0,  999.0,  999.0,  999.0,  999.0,  999.0,  999.0,  999.0,  999.0,  999.0,  999.0,  999.0,   76.2,   78.1,  999.0,  999.0,  999.0,  999.0,  999.0,  999.0,   71.0,  999.0,  999.0,  999.0,   63.8,   63.6,   62.3,   59.3,   60.7,   60.7,   58.5,  999.0,  999.0,  999.0,   47.8,   40.9,   41.5,   43.7,  999.0,  999.0,   40.9,   44.0,   43.3,   39.7,   32.5,   29.7,   30.6,   26.7,  999.0,   24.7,   22.0,   20.6,   20.9,   21.5,  999.0,  999.0,  999.0,    8.7
1994/01/18 14:45,    1.3,  999.0,    0.0,    0.2,    0.1,    0.0,   26.6,  999.0,  999.0,   31.1,   33.4,   34.3,   38.4,   42.1,  999.0,   46.1,   46.4,   45.6,   45.8,   46.2,   47.9,   49.8,   48.4,   49.0,   50.2,   49.7,   50.4,   51.7,   49.7,   50.7,   50.2,   50.7,   50.8,   50.8,   51.6,   51.9,   53.3,   57.9,   61.1,   63.7,   67.3,   70.6,   69.5,   71.9,   75.1,   70.2,  999.0,  999.0,  999.0,  999.0,  999.0,  999.0,   77.5,  999.0,  999.0,   79.3,  999.0,  999.0,  999.0,  999.0,  999.0,  999.0,  999.0,  999.0,  999.0,  999.0,  999.0,  999.0,  999.0,  999.0,  999.0,  999.0,  999.0,  999.0,   77.6,  999.0,  999.0,  999.0,  999.0,  999.0,  999.0,  999.0,  999.0,  999.0,  999.0,   64.3,   61.9,   60.1,   62.0,   59.1,   57.2,   59.3,   60.8,  999.0,  999.0,   47.7,   47.4,   44.4,   39.0,   38.4,   42.2,   40.0,   38.4,   41.4,  999.0,  999.0,  999.0,  999.0,   26.6,  999.0,  999.0,   24.0,   20.1,   18.6,   19.5,   17.7,   12.4,  999.0,    7.3,  999.0
1994/01/18 14:55,    0.1,   -0.2,   -0.1,    0.2,    0.0,   -0.1,  999.0,  999.0,  999.0,    0.4,   31.1,   34.3,   39.1,   42.2,  999.0,   44.8,   44.8,   46.9,   47.5,   48.1,   47.8,   49.6,   49.9,   48.8,   48.9,   48.6,   49.5,   50.3,   50.2,   49.0,   48.6,   49.6,   50.2,   51.4,   51.9,   54.4,   57.4,   60.5,   65.7,   64.5,   69.7,   67.3,   73.2,   74.5,  999.0,   72.0,  999.0,  999.0,  999.0,   75.7,  999.0,  999.0,   77.5,  999.0,  999.0,  999.0,  999.0,  999.0,   77.5,  999.0,  999.0,  999.0,  999.0,   44.2,  999.0,  999.0,  999.0,  999.0,  999.0,  999.0,   78.4,  999.0,  999.0,  999.0,   75.0,   80.0,   76.4,  999.0,  999.0,  999.0,  999.0,  999.0,  999.0,  999.0,  999.0,  999.0,   65.9,   62.0,   57.1,   59.4,  999.0,   56.0,   60.0,  999.0,  999.0,   45.6,   45.7,   44.0,   40.1,   35.4,   40.2,   39.3,   38.5,   41.5,   39.9,   39.7,   30.0,   29.3,   24.8,   23.6,   25.9,  999.0,  999.0,  999.0,   24.2,  999.0,  999.0,  999.0,  999.0,  999.0
1994/01/18 15:05,    0.2,  999.0,    0.1,    0.1,  999.0,   -0.0,  999.0,    0.1,  999.0,  999.0,   31.9,   37.2,   41.7,   44.4,  999.0,   46.1,   47.9,   47.9,   48.4,   50.1,   50.8,  999.0,   49.6,   49.2,   49.6,   49.8,   49.2,   49.2,   50.1,   51.1,   51.0,   51.6,   52.1,   52.1,   52.5,   53.8,   57.3,   61.1,   65.0,   66.3,   70.0,   72.8,   71.9,   75.5,  999.0,  999.0,  999.0,  999.0,  999.0,  999.0,  999.0,  999.0,   76.3,  999.0,  999.0,  999.0,   79.9,   78.5,  999.0,  999.0,  999.0,  999.0,  999.0,  999.0,  999.0,  999.0,  999.0,  999.0,  999.0,  999.0,  999.0,  999.0,  999.0,  999.0,  999.0,  999.0,   76.2,   79.3,  999.0,  999.0,  999.0,  999.0,  999.0,  999.0,  999.0,  999.0,  999.0,   58.6,   58.3,   58.3,   57.8,   61.1,  999.0,  999.0,  999.0,  999.0,   43.5,   42.6,   40.7,   39.2,   35.4,   37.2,  999.0,  999.0,   40.4,   40.5,   27.9,   29.4,   26.6,  999.0,   26.1,   32.3,  999.0,  999.0,   23.5,  999.0,  999.0,  999.0,  999.0,  999.0
1994/01/18 15:15,    2.1,  999.0,    0.0,   -0.0,    0.1,   -0.1,  999.0,   -0.2,   -0.2,   29.6,   31.2,   36.0,   41.9,   41.7,  999.0,   47.4,   48.0,   50.4,   49.0,   48.4,   49.9,  999.0,   52.2,   52.3,   51.8,   51.4,   51.3,   51.1,   50.9,   50.4,   50.5,   50.1,   50.3,   50.5,   51.9,   54.3,   56.2,   60.0,   65.7,   68.0,   68.7,   72.0,   72.9,   76.1,  999.0,  999.0,  999.0,  999.0,  999.0,  999.0,  999.0,  999.0,   78.3,  999.0,   42.0,  999.0,  999.0,   78.0,  999.0,  999.0,  999.0,  999.0,  999.0,  999.0,  999.0,  999.0,  999.0,  999.0,  999.0,  999.0,  999.0,  999.0,   77.7,  999.0,   76.1,  999.0,   79.1,  999.0,  999.0,  999.0,  999.0,  999.0,   71.5,  999.0,  999.0,  999.0,   70.2,   56.1,   58.0,   60.5,   61.0,  999.0,  999.0,  999.0,  999.0,   47.3,   42.5,   44.0,   42.5,  999.0,   39.4,   39.3,  999.0,  999.0,   38.4,  999.0,   34.2,   26.6,   26.9,  999.0,  999.0,  999.0,  999.0,   41.4,  999.0,  999.0,  999.0,  999.0,  999.0,  999.0
1994/01/18 15:25,    0.2,  999.0,   -0.0,   -0.0,  999.0,   -0.2,   27.0,   -0.1,    0.0,   28.4,   29.4,   36.4,   40.7,   42.6,  999.0,   46.2,   47.9,   47.2,   47.1,   49.5,   51.0,  999.0,   50.2,   50.3,   52.0,   50.5,   52.2,   52.1,   51.5,   51.6,   52.2,   51.6,   52.9,   52.7,   53.7,   54.3,   56.6,   61.1,   66.0,   68.6,   70.5,   71.5,   74.5,  999.0,  999.0,  999.0,  999.0,  999.0,  999.0,  999.0,  999.0,  999.0,   76.4,  999.0,  999.0,  999.0,   79.7,   79.0,  999.0,  999.0,  999.0,  999.0,  999.0,  999.0,  999.0,  999.0,  999.0,  999.0,  999.0,  999.0,  999.0,  999.0,  999.0,  999.0,  999.0,  999.0,   52.6,  999.0,  999.0,  999.0,  999.0,  999.0,  999.0,  999.0,  999.0,  999.0,   67.4,   59.9,   63.7,   62.9,   61.2,   59.2,  999.0,  999.0,  999.0,   50.0,   45.3,  999.0,   40.7,  999.0,  999.0,  999.0,  999.0,  999.0,  999.0,  999.0,  999.0,  999.0,   29.0,  999.0,  999.0,  999.0,  999.0,  999.0,  999.0,  999.0,  999.0,  999.0,  999.0,  999.0
1994/01/18 15:35,    5.9,   19.8,    0.1,    0.0,    0.1,    0.1,   26.4,   26.7,   -1.5,   30.6,   30.5,   35.3,   38.3,   39.7,  999.0,   44.7,   45.5,   45.2,   46.0,   45.5,   46.0,   49.5,   49.5,   47.5,   48.6,   50.0,   50.6,   50.0,   50.4,   51.7,   52.3,   52.0,   51.3,   53.4,   54.1,   54.5,   56.5,   61.7,   66.7,   68.9,   70.6,   71.7,   73.7,   78.2,  999.0,  999.0,  999.0,  999.0,  999.0,  999.0,  999.0,  999.0,   78.0,  999.0,  999.0,  999.0,   79.9,   78.3,  999.0,  999.0,  999.0,  999.0,  999.0,  999.0,  999.0,  999.0,  999.0,  999.0,  999.0,  999.0,  999.0,  999.0,  999.0,  999.0,  999.0,  999.0,  999.0,  999.0,  999.0,  999.0,  999.0,  999.0,  999.0,  999.0,  999.0,  999.0,   72.4,   60.2,   63.6,   64.4,   62.5,   61.3,  999.0,  999.0,  999.0,   44.8,   45.7,  999.0,   39.2,   41.8,   40.4,   42.7,   45.2,  999.0,   44.4,   45.1,  999.0,   33.7,   30.1,   29.1,  999.0,   32.8,  999.0,  999.0,  999.0,  999.0,   23.5,  999.0,  999.0,  999.0
1994/01/18 15:45,    1.5,  999.0,    0.0,    0.4,  999.0,    0.2,   27.2,   27.6,   -0.4,   30.0,   30.7,   34.3,   35.9,   39.2,  999.0,   45.4,   43.5,   44.3,   46.0,   44.3,   45.3,  999.0,   48.8,   49.3,   49.5,   50.9,   52.1,   51.4,   49.5,   51.1,   51.5,   51.1,   52.1,   53.8,   54.6,   55.7,   57.6,   61.7,   66.8,   69.7,   71.3,   71.3,   74.3,   79.1,  999.0,  999.0,  999.0,  999.0,  999.0,  999.0,  999.0,  999.0,   78.0,  999.0,  999.0,  999.0,   79.3,   78.3,   79.1,  999.0,  999.0,  999.0,  999.0,  999.0,  999.0,  999.0,  999.0,  999.0,  999.0,  999.0,  999.0,  999.0,  999.0,  999.0,  999.0,  999.0,  999.0,  999.0,  999.0,  999.0,  999.0,  999.0,   75.8,  999.0,  999.0,  999.0,   70.9,   60.8,   63.8,   65.2,   65.4,  999.0,  999.0,  999.0,  999.0,   46.0,   46.1,   46.4,   39.3,   43.5,   40.8,   43.1,   46.7,   49.6,   48.7,   44.0,  999.0,   34.2,   32.5,   30.0,   31.3,   32.9,   35.2,   35.2,  999.0,   27.2,   26.3,   25.0,  999.0,   11.5
1994/01/18 15:55,    0.1,  999.0,   -0.1,    0.1,    0.6,   -0.2,   25.5,   26.0,    0.0,  999.0,   29.5,   32.3,   35.4,   37.5,    0.0,   43.6,   42.1,   43.7,   43.2,   43.8,   45.9,  999.0,   50.2,   48.8,   50.3,   50.3,   51.3,   51.5,   51.4,   51.3,   50.8,   52.1,   53.2,   54.4,   54.1,   56.1,   59.8,   65.7,   70.7,   68.6,   69.6,   70.6,   73.5,   79.1,  999.0,  999.0,  999.0,  999.0,  999.0,  999.0,  999.0,   68.0,   79.3,  999.0,  999.0,  999.0,   78.1,   78.9,   79.8,  999.0,  999.0,  999.0,  999.0,  999.0,  999.0,  999.0,  999.0,  999.0,  999.0,  999.0,  999.0,  999.0,  999.0,  999.0,   56.7,  999.0,  999.0,  999.0,  999.0,  999.0,  999.0,  999.0,  999.0,  999.0,   79.7,   10.1,   62.5,   64.6,   66.2,   67.9,   64.6,  999.0,  999.0,  999.0,  999.0,  999.0,   45.7,   46.5,  999.0,  999.0,  999.0,   44.3,   48.9,   51.1,   52.2,  999.0,  999.0,   34.8,   32.5,   29.4,  999.0,  999.0,   36.6,  999.0,   35.0,   29.2,   29.4,   28.2,   18.1,   17.4
1994/01/18 16:05,    0.2,  999.0,  999.0,    0.3,    0.3,    0.0,   26.1,   26.7,   -0.3,    0.3,   30.1,   33.6,   36.4,   40.3,   -0.3,   44.1,   44.4,   44.9,   45.2,   47.6,   46.9,  999.0,   49.2,   49.7,   50.7,   50.5,   51.9,   51.2,   51.8,   50.3,   50.9,   53.0,   53.6,   54.5,   55.3,   55.7,   59.7,   65.4,   70.1,   72.3,   68.3,   71.4,   72.4,   76.9,  999.0,  999.0,  999.0,  999.0,  999.0,   76.6,  999.0,   75.9,  999.0,  999.0,  999.0,  999.0,  999.0,   78.3,  999.0,  999.0,  999.0,  999.0,  999.0,  999.0,  999.0,  999.0,  999.0,  999.0,  999.0,  999.0,  999.0,  999.0,  999.0,  999.0,  999.0,  999.0,  999.0,  999.0,  999.0,  999.0,  999.0,  999.0,  999.0,  999.0,  999.0,  999.0,   65.6,   60.1,   63.1,   67.2,   64.0,  999.0,  999.0,  999.0,  999.0,   45.1,  999.0,   42.5,   45.2,  999.0,  999.0,   43.6,   45.0,  999.0,  999.0,  999.0,  999.0,   36.6,  999.0,  999.0,  999.0,  999.0,  999.0,  999.0,  999.0,   29.2,  999.0,   27.2,  999.0,  999.0
1994/01/18 16:15,    0.1,   20.2,    0.1,    0.1,   -0.1,   -0.1,   26.2,   26.2,   -0.1,    0.2,   28.9,   31.9,   33.7,   37.3,    0.1,   43.0,   43.6,   44.2,   47.1,   46.6,   47.1,  999.0,   49.1,   50.5,   51.7,   50.5,   52.0,   51.4,   50.9,   52.5,   52.3,   52.2,   53.4,   55.5,   55.9,   55.7,   59.8,   64.9,   71.6,   71.1,   71.4,   72.4,   75.0,  999.0,  999.0,  999.0,  999.0,  999.0,  999.0,   77.2,   79.3,   74.6,  999.0,  999.0,  999.0,   79.3,   79.6,   78.4,  999.0,  999.0,  999.0,  999.0,  999.0,  999.0,  999.0,  999.0,  999.0,  999.0,  999.0,  999.0,  999.0,  999.0,  999.0,  999.0,  999.0,  999.0,  999.0,  999.0,  999.0,  999.0,  999.0,  999.0,  999.0,  999.0,  999.0,  999.0,  999.0,   58.6,   63.9,   61.8,   63.6,  999.0,  999.0,  999.0,  999.0,   45.9,   39.7,  999.0,  999.0,  999.0,  999.0,  999.0,  999.0,  999.0,  999.0,  999.0,  999.0,  999.0,  999.0,  999.0,  999.0,  999.0,  999.0,  999.0,   30.3,   30.4,  999.0,   23.7,  999.0,  999.0
1994/01/18 16:25,    0.0,  999.0,   -0.1,    0.2,    0.1,   -0.1,   27.2,   26.1,   -0.1,    0.3,   29.6,  999.0,   33.5,   36.9,  999.0,   41.8,  999.0,   44.1,   45.2,   46.6,   46.4,    0.1,   49.0,   51.7,   53.1,   52.6,   52.3,   52.5,   51.4,   51.2,   53.6,   55.4,   56.8,   57.3,   56.0,   59.5,   64.2,   71.0,   68.2,   70.6,   70.3,   75.5,  999.0,  999.0,  999.0,  999.0,  999.0,  999.0,  999.0,   78.2,   75.6,   78.1,  999.0,  999.0,   78.4,  999.0,   78.6,  999.0,   78.1,  999.0,  999.0,  999.0,  999.0,  999.0,  999.0,  999.0,  999.0,  999.0,  999.0,  999.0,  999.0,  999.0,  999.0,  999.0,  999.0,  999.0,   77.7,   23.6,  999.0,  999.0,  999.0,  999.0,  999.0,  999.0,  999.0,  999.0,  999.0,   58.0,  999.0,   58.4,   61.1,  999.0,  999.0,  999.0,  999.0,  999.0,   40.1,   42.7,  999.0,  999.0,  999.0,  999.0,  999.0,  999.0,  999.0,  999.0,  999.0,  999.0,  999.0,  999.0,   32.3,  999.0,  999.0,  -15.5,  999.0,  999.0,  999.0,  999.0,  999.0,   21.8
1994/01/18 16:35,    0.1,    0.4,   -0.1,   -0.1,    0.0,    0.1,   26.5,   26.4,   -0.3,   -0.3,  999.0,    0.8,  999.0,   38.3,  999.0,   42.7,   40.9,   43.9,  999.0,   46.2,   47.2,   -0.5,   48.8,   50.5,   52.8,   55.8,   55.3,   53.6,   51.7,   52.2,   53.6,   55.6,   55.3,   57.2,   55.6,   59.8,   67.7,   69.3,   67.9,   71.5,   72.8,  999.0,  999.0,  999.0,  999.0,  999.0,  999.0,  999.0,   76.1,   78.5,   76.2,  999.0,  999.0,  999.0,   75.7,  999.0,   78.5,  999.0,  999.0,  999.0,  999.0,  999.0,  999.0,  999.0,  999.0,  999.0,  999.0,  999.0,  999.0,  999.0,  999.0,  999.0,  999.0,  999.0,  999.0,  999.0,  999.0,   76.0,  999.0,  999.0,  999.0,   77.1,  999.0,  999.0,  999.0,  999.0,  999.0,   60.8,   55.3,   58.9,  999.0,  999.0,  999.0,  999.0,  999.0,  999.0,  999.0,  999.0,  999.0,  999.0,  999.0,  999.0,   44.2,  999.0,   -5.3,  999.0,  999.0,   10.5,  999.0,  999.0,  999.0,  999.0,  999.0,   23.8,  999.0,  999.0,  999.0,  999.0,  999.0,  999.0
1994/01/18 16:45,    0.2,   -0.1,    0.1,    0.1,    0.2,    0.2,   24.8,   25.6,   -0.5,    0.1,   30.6,    0.1,   -0.2,   38.2,  999.0,   42.6,   42.1,   44.0,   43.5,   45.4,   47.6,   -0.2,   48.5,   51.6,   54.4,   56.9,   55.8,   52.4,   53.5,   55.9,   57.0,   56.6,   56.9,   56.1,   58.1,   61.0,   68.9,   69.1,   71.6,   75.7,  999.0,  999.0,  999.0,  999.0,  999.0,  999.0,   78.5,  999.0,  999.0,   79.2,   76.6,  999.0,  999.0,  999.0,   79.4,   79.2,   79.3,  999.0,  999.0,  999.0,  999.0,  999.0,  999.0,  999.0,  999.0,  999.0,  999.0,  999.0,  999.0,  999.0,  999.0,  999.0,  999.0,  999.0,  999.0,  999.0,   28.0,  999.0,  999.0,  999.0,  999.0,   75.0,  999.0,  999.0,  999.0,  999.0,   62.2,   61.3,   60.3,   58.9,  999.0,  999.0,  999.0,   46.4,  999.0,  999.0,  999.0,  999.0,  999.0,  999.0,  999.0,  999.0,  999.0,  999.0,  999.0,  999.0,  999.0,  999.0,  999.0,  -10.9,  999.0,   25.5,  999.0,   26.3,  999.0,  999.0,   -7.9,  999.0,  999.0,  999.0
1994/01/18 16:55,   -0.1,    0.0,    0.1,   -0.1,   -0.2,   -0.1,   24.8,   25.3,  999.0,   -0.1,   30.3,   -0.1,   -1.0,   36.8,   39.6,   41.0,   42.1,   44.5,  999.0,   44.5,   46.3,   -0.2,   50.5,   50.5,   54.1,   57.6,   59.1,   56.6,   57.5,   57.7,   57.2,   57.2,   56.3,   56.2,   59.5,   65.6,   71.3,   70.9,   71.7,   73.4,   75.6,  999.0,  999.0,  999.0,  999.0,   74.4,  999.0,  999.0,  999.0,   76.9,   76.6,  999.0,  999.0,  999.0,  999.0,   79.2,  999.0,  999.0,  999.0,   77.7,  999.0,  999.0,  999.0,  999.0,  999.0,  999.0,  999.0,  999.0,  999.0,  999.0,  999.0,  999.0,  999.0,  999.0,  999.0,   -0.3,  999.0,  999.0,  999.0,  999.0,   75.7,   76.3,   77.9,  999.0,  999.0,  999.0,  999.0,   57.0,   56.1,   56.3,  999.0,  999.0,  999.0,  999.0,   42.4,   42.2,  999.0,  999.0,  999.0,  999.0,  999.0,  999.0,   43.6,  999.0,  999.0,  999.0,  999.0,  999.0,  999.0,  999.0,  999.0,   10.7,  999.0,  999.0,  999.0,   34.6,  999.0,  999.0,  999.0,  999.0
1994/01/18 17:05,    0.5,  999.0,    0.3,   -0.0,   -0.2,    0.2,   24.2,   24.4,  999.0,    0.9,   29.9,  999.0,  999.0,   35.9,   38.9,   41.3,   42.2,   43.7,  999.0,   45.1,   46.8,   -0.1,   48.4,   51.4,   54.0,   56.2,   57.9,   59.0,   59.3,   59.1,   59.1,   58.3,   57.3,   56.3,   61.3,   69.0,   70.8,   72.6,   74.0,  999.0,  999.0,  999.0,  999.0,  999.0,  999.0,   77.7,  999.0,  999.0,   75.8,   79.6,   78.5,   79.9,  999.0,  999.0,  999.0,   78.5,   79.9,  999.0,  999.0,   79.3,  999.0,  999.0,  999.0,  999.0,  999.0,  999.0,  999.0,  999.0,  999.0,  999.0,  999.0,  999.0,  999.0,  999.0,  999.0,  999.0,  999.0,  999.0,  999.0,  999.0,  999.0,  999.0,  999.0,  999.0,  999.0,  999.0,   63.9,   59.9,   57.6,   58.1,  999.0,  999.0,  999.0,  999.0,   44.3,   41.9,   40.0,   39.6,  999.0,  999.0,  999.0,  999.0,   38.9,   37.9,   39.8,   31.1,  999.0,  999.0,   14.7,   11.0,   10.9,   12.3,   13.0,   15.9,   20.5,   17.4,   13.8,  999.0,  999.0,  999.0
1994/01/18 17:15,   10.0,  999.0,    0.2,    0.3,    0.3,   -0.1,   25.7,   27.6,    0.1,    0.3,   29.6,   31.8,   35.4,   38.5,   39.9,   41.1,   44.9,   43.8,  999.0,   46.7,   46.3,    0.3,   49.6,  999.0,   52.4,   55.1,   57.6,   59.1,   60.0,   60.2,   59.3,   59.2,   55.6,   58.1,   65.4,   70.1,   69.3,   70.6,  999.0,  999.0,  999.0,  999.0,  999.0,  999.0,  999.0,  999.0,  999.0,  999.0,   72.8,   78.6,  999.0,  999.0,  999.0,  999.0,   76.7,   79.5,  999.0,  999.0,   76.9,  999.0,  999.0,  999.0,  999.0,  999.0,  999.0,  999.0,  999.0,  999.0,  999.0,  999.0,  999.0,  999.0,  999.0,  999.0,  999.0,  999.0,  999.0,  999.0,  999.0,  999.0,  999.0,  999.0,  999.0,  999.0,  999.0,   66.3,   64.7,  999.0,   55.6,   60.4,  999.0,  999.0,  999.0,  999.0,   39.6,   40.1,   28.6,   34.5,   38.2,  999.0,   29.5,   32.3,   36.3,   34.7,   31.1,  999.0,   25.9,   19.1,   12.2,   12.2,   11.7,   13.0,   14.2,  999.0,  999.0,  999.0,  999.0,  999.0,  999.0,  999.0
1994/01/18 17:25,  999.0,  999.0,    0.2,    0.2,   -0.1,    0.1,  999.0,  999.0,   -0.4,    0.0,   27.3,   29.9,   34.1,    0.2,  999.0,  999.0,  999.0,   43.3,   41.1,   43.7,  999.0,   -0.4,  999.0,   49.9,   52.7,   55.0,   56.9,   59.2,   59.7,   60.1,   60.8,   61.3,   56.6,   57.0,  999.0,   71.1,   69.9,  999.0,  999.0,  999.0,  999.0,  999.0,   -2.3,    0.2,  999.0,  999.0,  999.0,  999.0,   76.9,   78.7,   78.7,  999.0,  999.0,  999.0,  999.0,  999.0,  999.0,  999.0,   79.6,  999.0,  999.0,  999.0,  999.0,  999.0,  999.0,  999.0,  999.0,  999.0,  999.0,  999.0,  999.0,  999.0,  999.0,  999.0,  999.0,  999.0,  999.0,  999.0,  999.0,  999.0,  999.0,  999.0,  999.0,  999.0,  999.0,   70.7,   63.7,   61.4,   61.3,   62.1,  999.0,  999.0,  999.0,   43.1,   41.2,   40.1,   33.2,   33.6,  999.0,  999.0,  999.0,   31.7,   35.2,   35.8,   25.9,  999.0,   22.5,   18.7,   12.0,   12.2,   11.5,  999.0,    9.9,  999.0,  999.0,  999.0,  999.0,  999.0,  999.0,  999.0
1994/01/18 17:35,    1.3,  999.0,    1.0,    0.1,   -0.2,   -0.1,   23.6,  999.0,    0.3,    0.3,   27.7,   29.6,   33.1,    0.9,  999.0,   42.7,  999.0,   42.3,   45.1,   46.1,   47.2,  999.0,  999.0,  999.0,   54.1,   55.3,   57.2,   59.6,   60.9,   61.1,   60.5,   61.2,   55.3,   59.7,   68.7,   71.2,   71.1,   73.2,   75.2,   75.5,  999.0,  999.0,    0.4,    5.7,  999.0,  999.0,  999.0,  999.0,   77.4,   77.1,  999.0,  999.0,  999.0,  999.0,   78.1,  999.0,  999.0,   77.0,   77.6,  999.0,  999.0,  999.0,  999.0,  999.0,  999.0,  999.0,  999.0,  999.0,  999.0,  999.0,  999.0,  999.0,  999.0,  999.0,  999.0,  999.0,  999.0,  999.0,  999.0,  999.0,  999.0,  999.0,  999.0,  999.0,  999.0,   68.7,   65.9,   60.6,   63.5,   61.9,  999.0,  999.0,  999.0,   44.4,  999.0,  999.0,   35.4,   35.8,  999.0,   -1.2,  999.0,   31.3,   34.8,   34.3,  999.0,  999.0,   23.2,   18.1,   14.1,   13.4,   10.3,   13.2,   15.0,  999.0,  999.0,  999.0,  999.0,   11.7,   14.9,  999.0
1994/01/18 17:45,    0.4,    1.4,    0.2,    0.1,    0.0,    0.0,   22.0,   23.5,   -0.6,    0.2,   28.1,   28.7,   34.8,   36.7,  999.0,   43.0,  999.0,   44.3,   45.9,   47.7,   49.6,   -0.1,  999.0,   53.2,   54.5,   55.6,   58.4,   59.9,   60.8,   60.8,   60.5,   58.7,   57.7,   63.5,   72.2,   72.3,   73.4,  999.0,   62.6,   77.3,   77.3,  999.0,    0.4,   -0.1,   -0.1,   72.3,  999.0,  999.0,   79.5,   77.1,  999.0,  999.0,  999.0,  999.0,   78.5,  999.0,   78.8,   76.9,   79.1,  999.0,  999.0,  999.0,  999.0,  999.0,  999.0,  999.0,  999.0,  999.0,  999.0,  999.0,  999.0,   78.8,  999.0,  999.0,  999.0,  999.0,  999.0,  999.0,  999.0,  999.0,  999.0,  999.0,  999.0,  999.0,  999.0,   67.0,   70.0,   61.2,   64.1,   64.0,  999.0,  999.0,  999.0,   46.1,  999.0,   42.0,   36.1,   38.6,  999.0,  999.0,  999.0,   33.2,   37.9,  999.0,   31.4,  999.0,  999.0,   21.8,   19.7,   15.6,   15.9,   16.4,   19.7,  999.0,  999.0,  999.0,  999.0,   14.7,  999.0,  999.0
1994/01/18 17:55,    0.1,   -0.1,   -0.1,    0.1,   -0.1,   -0.2,   -0.3,  999.0,  999.0,    0.4,  999.0,   -0.2,   36.8,   35.8,  999.0,  999.0,  999.0,   46.5,  999.0,   49.9,   51.7,  999.0,   54.3,   54.3,   55.7,   57.1,   59.5,   60.7,   60.2,   59.5,   59.9,   57.9,   57.8,   64.0,   71.3,   72.2,   74.2,   78.5,  999.0,   74.4,   76.6,  999.0,   -0.5,    0.1,    0.9,  999.0,  999.0,  999.0,   79.5,   78.2,  999.0,  999.0,  999.0,  999.0,   79.2,   79.2,  999.0,   78.4,   78.2,  999.0,  999.0,  999.0,  999.0,  999.0,  999.0,  999.0,  999.0,  999.0,  999.0,  999.0,  999.0,  999.0,  999.0,  999.0,  999.0,  999.0,  999.0,  999.0,  999.0,  999.0,  999.0,  999.0,  999.0,  999.0,  999.0,   65.5,   68.6,   59.6,   61.5,   61.4,   60.9,  999.0,  999.0,  999.0,   42.9,   37.9,   32.8,   37.1,  999.0,  999.0,  999.0,   31.9,   35.7,   32.8,   31.9,   27.7,   24.4,   21.0,   18.2,   16.4,  999.0,  999.0,  999.0,   23.2,  999.0,  999.0,  999.0,  999.0,  999.0,  999.0
1994/01/18 18:05,   -0.0,  999.0,   -0.2,    0.0,    0.6,   -0.0,    0.2,   24.1,  999.0,    0.2,  999.0,    0.2,  999.0,   34.8,   -0.1,    0.3,   42.2,   45.7,  999.0,   51.3,   53.4,   -0.1,   53.9,   55.9,   56.5,   57.4,   59.6,   59.4,   59.3,   59.9,   59.4,   57.0,   59.8,   67.0,   71.2,   73.0,   75.1,  999.0,  999.0,   78.0,  999.0,  999.0,  999.0,   -0.2,   -0.6,    0.4,  999.0,  999.0,  999.0,   78.1,  999.0,  999.0,   78.8,   79.6,  999.0,   79.2,   79.5,   74.9,  999.0,  999.0,  999.0,  999.0,  999.0,  999.0,  999.0,  999.0,  999.0,  999.0,  999.0,  999.0,  999.0,  999.0,  999.0,  999.0,  999.0,  999.0,  999.0,   25.3,  999.0,  999.0,   78.0,  999.0,  999.0,  999.0,   67.5,   67.8,   69.6,   58.6,   57.6,   63.9,  999.0,  999.0,   47.5,  999.0,   30.7,   42.5,   33.3,   33.6,  999.0,  999.0,  999.0,   30.8,   33.5,   30.5,   30.7,   27.8,   22.8,   19.8,   15.5,   15.3,   15.2,   16.5,  999.0,   17.6,  999.0,  999.0,  999.0,  999.0,  999.0,  999.0
1994/01/18 18:15,   15.3,  999.0,    0.1,   -0.1,   -0.3,    0.2,   -0.1,  999.0,  999.0,   -0.2,   -0.0,    0.1,    0.0,   35.7,    0.0,    0.3,   43.0,   47.1,  999.0,   52.0,   54.3,   -0.2,   55.7,   58.1,   58.5,   58.5,   58.9,   59.3,   58.9,   58.3,   56.9,   57.6,   62.9,   69.7,   73.6,   74.2,   76.1,   56.2,   75.9,   79.7,  999.0,  999.0,  999.0,   -0.0,   -0.7,  999.0,  999.0,  999.0,  999.0,   76.1,  999.0,  999.0,   77.3,   79.5,  999.0,   78.6,   79.5,   77.3,  999.0,  999.0,  999.0,  999.0,  999.0,  999.0,  999.0,   79.5,  999.0,   75.1,  999.0,  999.0,  999.0,  999.0,  999.0,  999.0,  999.0,  999.0,  999.0,  999.0,  999.0,  999.0,  999.0,  999.0,  999.0,  999.0,  999.0,   68.8,   70.7,   56.4,   61.9,   64.3,   61.5,  999.0,   48.2,   47.4,   43.5,   42.4,   36.3,   32.9,   35.6,  999.0,  999.0,   31.5,   33.1,   33.5,   31.9,   27.7,   23.7,   19.8,   16.5,   14.2,   15.1,   15.6,   17.6,   19.9,  999.0,  999.0,  999.0,   18.8,   20.8,  999.0
1994/01/18 18:25,  999.0,  999.0,    0.1,   -0.0,   -0.3,    0.0,    0.2,  999.0,   -0.4,   -0.1,   -0.1,    0.1,  999.0,   37.7,    0.0,   -0.1,   44.8,   46.8,   48.2,   50.9,   52.6,  999.0,   58.6,   60.8,   61.6,   60.7,   60.0,   60.2,   58.5,   57.0,   57.7,   60.6,   65.6,   70.6,   73.8,   75.6,   78.8,   77.7,   77.7,  999.0,  999.0,  999.0,   10.2,  999.0,  999.0,  999.0,  999.0,  999.0,   77.8,  999.0,   78.7,  999.0,  999.0,   76.5,  999.0,  999.0,   78.4,  999.0,  999.0,  999.0,  999.0,  999.0,  999.0,  999.0,  999.0,  999.0,  999.0,  999.0,  999.0,  999.0,  999.0,  999.0,  999.0,  999.0,  999.0,  999.0,  999.0,  999.0,  999.0,  999.0,  999.0,  999.0,  999.0,  999.0,  999.0,   66.1,   72.5,   58.0,   56.8,   62.1,   59.5,  999.0,  999.0,   45.9,   44.6,   41.4,   41.6,   32.3,   31.8,   35.2,  999.0,   35.7,   33.8,   35.1,   32.0,   29.5,   25.2,   20.1,   18.8,   15.0,   17.4,   18.8,   20.1,   26.2,  999.0,   22.0,   23.9,   22.0,   23.1,   25.0
1994/01/18 18:35,    1.8,  999.0,   -0.0,   -0.1,    0.2,    1.3,   -0.2,  999.0,    0.4,   -0.0,   -0.0,   -0.2,  999.0,   38.0,    0.0,  999.0,   44.7,   46.3,   48.0,   49.6,   51.8,   -0.1,   56.9,   59.0,   59.5,   59.8,   60.6,   60.3,   59.7,   58.3,   57.9,   58.2,   64.3,   69.6,   73.0,   76.6,   76.0,   78.6,   77.8,  999.0,  999.0,   -3.2,    0.1,   -0.2,  999.0,  999.0,  999.0,  999.0,  999.0,   79.7,   76.3,  999.0,  999.0,   78.2,   78.5,  999.0,   78.3,   78.9,  999.0,  999.0,  999.0,  999.0,  999.0,  999.0,  999.0,  999.0,  999.0,  999.0,  999.0,  999.0,  999.0,  999.0,  999.0,  999.0,  999.0,  999.0,  999.0,  999.0,   11.1,  999.0,  999.0,  999.0,  999.0,   -4.7,  999.0,   69.5,   73.0,   60.4,   58.6,   62.6,  999.0,    4.2,   48.7,   50.6,   47.3,   44.2,   41.4,   33.5,   34.1,   36.6,  999.0,   36.0,   38.2,   37.2,   34.0,   30.2,   24.9,   22.6,   18.0,   12.2,   17.8,   21.5,   23.1,   26.8,   30.0,   24.4,   24.7,   23.0,   21.6,   23.0
1994/01/18 18:45,    1.6,  999.0,    0.8,    0.1,  999.0,    0.6,   -0.3,   22.0,  999.0,   -0.1,    0.6,  999.0,  999.0,   36.8,  999.0,  999.0,   42.9,   44.1,   45.9,   48.0,   50.1,   -0.0,   53.4,   56.5,   58.6,   58.0,   58.5,   58.3,   58.4,   56.9,   56.3,   58.5,   63.7,   69.2,   73.5,   76.3,   77.4,   75.7,   79.0,  999.0,  999.0,   -0.5,   -0.3,   19.1,  999.0,  999.0,  999.0,  999.0,  999.0,   75.5,   76.4,  999.0,  999.0,   78.3,   79.4,  999.0,   77.2,  999.0,  999.0,  999.0,  999.0,  999.0,  999.0,  999.0,  999.0,  999.0,  999.0,  999.0,  999.0,  999.0,  999.0,  999.0,  999.0,  999.0,  999.0,  999.0,  999.0,  999.0,  999.0,  999.0,  999.0,  999.0,  999.0,  999.0,   71.3,   68.5,   68.5,   58.6,   54.1,   62.0,  999.0,  999.0,  999.0,  999.0,   47.7,   43.6,   42.3,   34.3,   34.2,   36.7,  999.0,   35.9,   38.3,   36.5,   32.5,   29.2,   22.3,   20.5,   18.4,   16.8,   19.5,   22.5,   23.4,   27.1,   28.6,   24.1,   23.0,   22.1,   20.7,   19.2
1994/01/18 18:55,    2.1,   15.5,   -0.1,   -0.2,  999.0,    0.0,  999.0,   22.4,  999.0,   -0.5,   25.2,   26.1,  999.0,   34.4,   36.7,   37.6,   40.9,   43.2,   44.5,   45.9,   47.3,  999.0,   51.8,   54.4,   55.4,   56.0,   57.0,   56.5,   56.4,   56.1,   57.2,   61.7,   64.4,   68.9,   73.0,   77.0,   77.1,   76.8,   79.4,  999.0,  999.0,  999.0,  999.0,  999.0,  999.0,   79.7,  999.0,  999.0,  999.0,  999.0,   78.1,  999.0,  999.0,  999.0,   78.2,  999.0,   79.1,  999.0,  999.0,  999.0,  999.0,   79.1,  999.0,  999.0,  999.0,  999.0,  999.0,  999.0,  999.0,  999.0,  999.0,  999.0,  999.0,  999.0,  999.0,  -10.6,  999.0,  999.0,   77.9,  999.0,  999.0,  999.0,  999.0,  999.0,   73.5,  999.0,   66.6,   57.6,   61.2,   59.8,  999.0,  999.0,   26.3,  999.0,   46.0,   44.6,   41.7,   38.4,   33.0,   35.6,   37.2,   38.5,   38.6,   40.7,   31.8,   27.5,   25.9,   20.8,   18.7,   17.0,   20.9,   24.1,   25.9,   29.5,   29.6,   24.4,   23.1,   22.1,   19.9,   22.6
1994/01/18 19:05,  999.0,   18.1,  999.0,  999.0,  999.0,  999.0,   20.5,   22.0,  999.0,   -0.0,   25.9,    0.0,   32.6,   36.0,  999.0,    0.4,   42.0,   43.7,   44.7,   46.3,   47.2,   -0.2,   51.5,   53.2,   54.6,   56.7,   58.0,   57.6,   57.1,   56.2,   57.9,   61.0,   63.4,   69.7,   74.0,   77.3,   77.2,   78.3,  999.0,  999.0,  999.0,  999.0,  999.0,    0.2,  999.0,  999.0,  999.0,  999.0,  999.0,   72.2,   79.2,  999.0,  999.0,   75.5,   77.8,  999.0,   79.1,  999.0,  999.0,  999.0,  999.0,   78.4,  999.0,  999.0,  999.0,  999.0,  999.0,  999.0,  999.0,  999.0,  999.0,  999.0,  999.0,  999.0,  999.0,  999.0,  999.0,  999.0,   74.5,  999.0,  999.0,  999.0,  999.0,  999.0,   70.0,  999.0,   65.9,   54.3,   56.1,   57.4,   54.8,  999.0,  999.0,  999.0,   43.1,   39.2,   38.3,   35.2,   31.8,   32.6,   34.8,   35.4,   36.5,   36.6,  999.0,   28.8,   25.1,   21.5,   20.0,   18.2,   20.3,   23.7,   24.5,   27.5,   26.8,   22.2,   22.4,   19.2,   17.1,   19.2
1994/01/18 19:15,   -0.2,  999.0,   19.3,  999.0,   -0.0,  999.0,   20.8,   21.2,   21.2,    0.0,   23.9,   -0.9,  999.0,   32.9,    0.1,   -0.2,   40.6,   42.3,   43.6,  999.0,   47.5,    0.1,   51.7,   53.3,   54.2,   55.0,   55.7,   55.0,   53.8,   55.4,   58.0,   60.0,   64.8,   69.3,   73.6,   77.9,   76.5,   77.4,  999.0,  999.0,   78.8,  999.0,    1.0,    0.1,  999.0,   43.9,  999.0,   77.8,  999.0,   75.3,  999.0,  999.0,  999.0,  999.0,   75.8,   79.1,  999.0,  999.0,  999.0,  999.0,  999.0,   78.6,  999.0,  999.0,  999.0,  999.0,  999.0,  999.0,  999.0,  999.0,  999.0,  999.0,  999.0,  999.0,  999.0,  999.0,  999.0,  999.0,   76.5,   79.9,  999.0,  999.0,  999.0,  999.0,   69.4,   67.1,   68.1,   54.1,   56.5,   57.0,   54.7,  999.0,  999.0,    0.2,   45.4,   40.0,   37.0,   36.3,   34.8,   32.0,   34.8,   35.7,   37.6,   39.2,   36.8,   28.5,   26.7,   23.5,   20.9,   19.8,   23.3,   25.7,   28.1,   30.1,   29.7,   25.5,   22.8,   22.2,   20.1,   17.9
1994/01/18 19:25,    0.2,  999.0,    0.7,   -0.1,    0.1,    0.1,   21.8,   21.7,    0.2,    0.4,   23.5,  999.0,   29.8,  999.0,   -0.2,  999.0,   40.2,   41.6,   45.2,   48.3,   50.4,  999.0,   52.5,   53.9,   55.0,   55.0,   54.1,   51.1,   52.5,   55.8,   58.5,   58.9,   63.1,   68.2,   73.7,   78.9,   78.2,   77.4,  999.0,  999.0,   78.5,  999.0,  999.0,   -0.1,  999.0,  999.0,  999.0,  999.0,  999.0,   76.0,  999.0,  999.0,  999.0,  999.0,   77.1,   78.0,  999.0,   77.8,   79.8,  999.0,  999.0,   79.5,  999.0,  999.0,  999.0,  999.0,  999.0,  999.0,  999.0,  999.0,  999.0,  999.0,  999.0,  999.0,  999.0,   21.0,  999.0,  999.0,  999.0,   79.5,  999.0,  999.0,  999.0,  999.0,   69.0,   68.2,   69.3,   54.1,   56.8,   57.1,   54.2,  999.0,  999.0,  999.0,   17.9,   38.8,   35.3,   36.0,   34.4,   31.2,   35.6,   31.4,   36.2,   36.4,   31.8,   27.2,   25.3,   22.7,   19.6,   26.0,   20.3,   25.6,  999.0,   29.7,   29.1,   25.9,   23.6,   22.6,   20.5,   20.9
1994/01/18 19:35,    0.5,  999.0,    0.1,   -0.0,   -0.0,  999.0,   22.3,  999.0,  999.0,    0.2,   23.4,   26.9,   29.6,  999.0,    0.0,  999.0,   40.7,   41.8,   44.1,   45.5,   48.8,  999.0,   -0.7,   54.1,   55.2,   51.7,   52.5,   48.5,   51.3,   54.5,   58.9,   57.3,   62.2,   68.5,   73.6,   77.3,   77.4,   76.4,   79.7,  999.0,  999.0,  999.0,   79.7,   -0.7,    0.1,    0.1,    0.2,  999.0,  999.0,   76.1,  999.0,   78.5,  999.0,  999.0,   77.1,   76.2,   78.8,   77.5,   78.1,   42.5,   78.4,  999.0,  999.0,  999.0,  999.0,  999.0,  999.0,  999.0,  999.0,  999.0,  999.0,  999.0,  999.0,  999.0,  999.0,  999.0,  999.0,  999.0,   36.2,  999.0,  999.0,  999.0,  999.0,  999.0,   67.9,   67.3,   59.5,   56.8,   56.8,   55.6,   43.9,  999.0,  999.0,    0.8,  999.0,   39.9,   35.9,   34.7,   34.8,   32.4,   37.1,   34.1,   39.0,   36.7,   30.5,   26.9,   23.3,   21.8,   20.4,   20.4,   24.1,   24.6,   27.3,   29.8,   28.0,   23.4,   21.2,   21.2,   17.6,   18.6
1994/01/18 19:45,    0.6,  999.0,    0.4,    0.1,   -0.1,    1.0,  999.0,  999.0,  999.0,    0.0,   23.8,    0.1,   29.5,   33.9,    0.1,   -0.2,   38.8,   41.9,   40.8,   41.6,   46.9,  999.0,   27.3,   51.7,   54.4,   52.7,   51.7,   48.0,   49.4,   53.9,   56.5,   55.8,   61.7,   67.2,   72.0,   76.5,   48.8,   73.9,   79.0,  999.0,  999.0,  999.0,   79.2,  999.0,  999.0,  999.0,  999.0,  999.0,  999.0,   76.0,   79.2,  999.0,  999.0,   76.0,   78.0,   77.3,   78.8,  999.0,   78.6,  999.0,   74.6,  999.0,  999.0,  999.0,  999.0,  999.0,  999.0,  999.0,  999.0,  999.0,  999.0,  999.0,  999.0,  999.0,  999.0,  999.0,  999.0,  999.0,  999.0,   79.6,  999.0,  999.0,  999.0,  999.0,   69.3,   75.3,   59.9,   59.3,   49.8,   57.6,  999.0,  999.0,  999.0,  999.0,   42.7,   40.0,   36.7,   35.5,   34.0,   34.8,   38.3,   35.9,   38.6,   37.2,   30.2,   27.1,   25.0,   21.2,   21.6,   21.6,   24.9,   24.4,   27.8,   32.4,   32.7,   26.4,   22.3,   23.5,   17.5,   16.2
1994/01/18 19:55,    0.2,   -0.3,   -0.0,    0.3,  999.0,   -0.1,    0.2,  999.0,  999.0,   22.4,   23.5,   28.3,   29.4,   33.7,    0.2,   -0.0,   39.1,   39.5,   39.9,   44.4,   49.7,  999.0,   -0.3,   -2.6,   -0.3,  999.0,   50.8,   47.5,   50.4,   53.0,   53.9,   57.7,   63.6,   68.5,   74.0,   76.8,   77.9,   77.2,   77.9,  999.0,  999.0,  999.0,  999.0,  999.0,  999.0,   50.2,  999.0,   78.3,  999.0,  999.0,   78.4,  999.0,   78.2,   77.1,  999.0,   79.8,   79.7,   78.7,   78.2,   79.4,  999.0,  999.0,  999.0,  999.0,  999.0,  999.0,  999.0,  999.0,  999.0,  999.0,  999.0,  999.0,  999.0,  999.0,  999.0,  999.0,  999.0,  999.0,  999.0,  999.0,  999.0,  999.0,  999.0,  999.0,   72.9,  999.0,   58.3,   63.3,  999.0,   60.0,  999.0,   41.3,  999.0,   45.5,   44.2,   40.8,   37.0,   36.3,   32.7,   36.1,   38.7,   37.2,   39.0,   34.8,   30.9,   26.4,   24.6,   22.9,  999.0,   22.2,   25.9,   25.7,   34.4,   33.0,   31.9,   27.1,   23.3,   24.1,   19.9,   18.4
1994/01/18 20:05,   -0.1,    0.0,   -0.0,    0.2,  999.0,    0.1,    0.2,  999.0,   22.2,   22.6,   23.7,   28.6,   32.0,   34.5,    0.0,   -1.1,   38.1,   39.4,   40.8,   44.6,   48.2,  999.0,    0.1,    0.4,    0.3,   49.4,   49.4,   49.2,   51.9,   53.6,   52.1,   57.0,   63.4,   67.8,   71.9,   77.4,  999.0,  999.0,   75.5,   77.9,  999.0,  999.0,  999.0,  999.0,  999.0,  999.0,  999.0,  999.0,   71.4,  999.0,  999.0,  999.0,   79.2,   78.5,   79.4,   78.8,  999.0,  999.0,  999.0,   79.5,   80.0,  999.0,  999.0,  999.0,  999.0,  999.0,  999.0,  999.0,   47.8,  999.0,  999.0,  999.0,  999.0,   12.9,  999.0,  999.0,  999.0,  999.0,  999.0,  999.0,  999.0,  999.0,  999.0,  999.0,   74.5,  999.0,   58.0,   63.6,   56.4,   58.8,  999.0,   27.5,  999.0,  999.0,   43.9,   41.3,   39.3,   35.2,   32.9,   37.5,  999.0,   37.6,   37.5,   29.7,   28.7,   24.1,   23.2,   23.7,  999.0,   19.8,   22.7,  999.0,   25.3,   28.1,   28.2,   26.5,   23.1,  999.0,  999.0,  999.0
1994/01/18 20:15,   -0.1,  999.0,   -0.0,   -0.1,  999.0,    0.1,   10.8,   -0.1,   23.2,   11.8,   28.7,   31.2,   33.0,   34.0,   -0.2,   -0.1,   39.1,   38.6,   41.4,   44.9,   49.0,   52.0,   32.8,   -0.2,   -0.1,   20.4,   47.6,   51.2,   53.0,   50.5,   54.6,   59.5,   65.6,   70.3,   74.0,   78.5,   78.0,   78.9,   78.1,   76.2,   78.3,  999.0,  999.0,  999.0,  999.0,  999.0,  999.0,  999.0,   75.2,  999.0,   79.0,   79.3,   79.7,   74.8,   79.0,   79.5,  999.0,  999.0,   78.5,  999.0,   79.1,  999.0,  999.0,  999.0,  999.0,  999.0,  999.0,  999.0,  999.0,  999.0,  999.0,  999.0,  999.0,  999.0,  999.0,  999.0,  999.0,  999.0,  999.0,  999.0,  999.0,  999.0,   73.9,   72.5,   74.4,  999.0,   57.6,   63.3,   55.1,   57.8,   56.4,  999.0,  999.0,  999.0,   42.2,   40.3,   37.9,   35.7,   34.0,   36.7,   38.7,   41.2,   39.0,   32.5,   32.4,   25.4,   23.7,   22.0,   20.9,   19.8,   20.0,   21.4,   23.1,   25.1,   27.1,  999.0,   22.0,   19.8,   17.2,   18.6
1994/01/18 20:25,    0.6,    0.2,    6.1,    5.3,    1.3,    0.1,   20.7,  999.0,   22.4,    0.4,   27.4,   30.5,   31.9,   33.1,   -0.1,   -0.2,   35.4,   39.0,   38.3,   42.0,   45.0,   48.9,   52.2,   40.0,   26.2,   49.6,   51.5,   51.9,   49.3,   50.5,   54.0,   59.2,   65.1,   70.9,   74.2,   78.0,   77.8,   78.4,   76.5,   78.5,   78.5,   79.0,   78.0,   79.8,   30.1,  999.0,  999.0,  999.0,   77.0,  999.0,   79.3,   79.6,   77.8,   79.4,   78.3,  999.0,  999.0,  999.0,  999.0,  999.0,   79.8,  999.0,  999.0,  999.0,  999.0,  999.0,  999.0,   23.1,  999.0,  999.0,  999.0,  999.0,  999.0,  999.0,  999.0,  999.0,   73.4,  999.0,  999.0,  999.0,  999.0,  999.0,   73.9,   73.1,   77.9,   70.5,   61.0,   62.8,   61.5,   58.5,   57.9,  999.0,  999.0,   46.0,   44.1,   41.2,   39.0,   38.8,   35.0,   37.6,   40.4,   43.5,   44.9,   37.2,   33.7,   29.4,   25.7,   24.0,  999.0,   20.2,   19.6,   21.7,  999.0,   25.5,   27.7,   26.6,   23.7,   23.8,   19.6,   19.9
1994/01/18 20:35,   15.6,   14.2,    4.9,    0.1,   17.0,    0.0,   19.8,   20.1,   21.1,   23.3,   24.8,   29.6,   30.8,   32.3,    0.1,   -0.2,   36.2,   37.0,   37.2,   38.7,   40.3,   43.9,   46.6,   48.3,   49.0,   49.3,   49.2,   49.9,   48.0,   49.1,   52.4,   57.1,   62.7,   67.5,   71.7,   74.8,   75.7,   77.1,   78.0,   77.5,   78.2,   78.5,  999.0,  999.0,   72.8,  999.0,  999.0,  999.0,   75.8,  999.0,   77.7,   78.1,  999.0,  999.0,   77.0,   79.4,  999.0,   77.2,   80.0,  999.0,  999.0,  999.0,  999.0,  999.0,  999.0,  999.0,   58.1,  999.0,  999.0,  999.0,  999.0,  999.0,  999.0,  999.0,  999.0,   65.6,  999.0,  999.0,  999.0,  999.0,  999.0,  999.0,  999.0,   74.4,   78.9,   66.5,   62.6,   65.9,   62.3,   60.0,   58.1,  999.0,  999.0,   45.9,   43.2,   40.3,   39.3,   38.0,   33.8,   36.8,   39.5,   42.7,   45.0,   36.8,   33.4,   28.6,   25.2,   24.5,   19.4,   19.4,   20.4,   21.8,  999.0,   24.4,   27.2,   25.5,  999.0,  999.0,  999.0,   18.9
1994/01/18 20:45,   16.0,   14.9,    9.3,   -0.0,  999.0,   13.1,   18.4,   19.3,   20.4,   23.3,   24.7,   29.6,   30.5,   32.0,  999.0,   33.9,   34.8,   34.9,   34.3,   36.6,   38.3,   38.9,   42.7,   46.1,   48.0,   48.9,   48.9,   47.3,   47.7,   50.7,   55.0,   60.9,   65.1,   69.5,   75.5,   75.6,   77.9,   78.3,   79.0,   77.8,   79.8,  999.0,  999.0,  999.0,   78.9,   79.1,  999.0,   56.0,  999.0,   19.7,   80.0,  999.0,  999.0,  999.0,   77.7,  999.0,  999.0,  999.0,   79.1,   79.3,  999.0,  999.0,  999.0,  999.0,  999.0,  999.0,  999.0,  999.0,  999.0,  999.0,  999.0,  999.0,  999.0,  999.0,  999.0,  999.0,  999.0,  999.0,  999.0,  999.0,  999.0,  999.0,  999.0,   74.7,   72.3,   67.0,   65.7,   65.0,   61.4,   61.2,   53.5,  999.0,  999.0,   46.2,   40.8,   40.2,   38.6,   35.5,   32.6,   36.7,   38.2,   41.0,   41.8,   33.4,   29.1,   27.7,   25.6,   22.7,  999.0,   21.0,   20.6,   21.6,  999.0,   25.3,   26.7,   26.3,   24.4,   24.2,   22.0,   19.8
1994/01/18 20:55,   15.4,   14.9,   14.5,    1.9,  999.0,  999.0,   18.7,   20.1,   20.7,   22.7,   26.7,   29.8,   29.8,   32.0,  999.0,   34.6,   33.4,   32.0,   34.0,   34.1,   35.3,   37.6,   40.3,   42.1,   45.8,   46.9,   47.4,   47.0,   47.8,   52.2,   56.9,   61.7,   65.9,   71.6,   77.1,   75.7,   78.1,   78.7,   77.8,   78.9,  999.0,  999.0,  999.0,  999.0,  999.0,  999.0,  999.0,  999.0,  999.0,   -0.1,  999.0,  999.0,   78.6,  999.0,   76.5,  999.0,   78.5,  999.0,   74.0,   74.0,   77.0,   78.5,  999.0,  999.0,  999.0,  999.0,   78.4,  999.0,  999.0,  999.0,  999.0,  999.0,  999.0,  999.0,  999.0,   79.4,  999.0,  999.0,   24.5,  999.0,  999.0,  999.0,  999.0,   68.6,   68.2,   60.4,   59.4,   58.4,   54.1,   52.0,   51.1,  999.0,   40.8,  999.0,   37.8,   34.7,   33.9,   32.8,   34.4,   38.8,   48.5,   45.9,  999.0,  999.0,   39.9,   33.5,   31.8,  999.0,   24.6,   24.6,   20.7,   21.7,  999.0,   26.2,   26.1,   26.3,   25.9,  999.0,   19.3,   17.9
1994/01/18 21:05,   16.6,   16.6,   17.6,   -0.2,  999.0,    9.7,   20.6,   21.4,   22.6,   23.8,   27.6,   30.4,   32.2,   34.0,   36.0,   36.8,   37.2,   38.4,   36.6,   36.8,   37.7,   37.4,   40.0,   42.2,   45.4,   47.4,   47.5,   47.8,   48.9,   52.3,   55.7,   60.7,   66.3,   72.0,   78.1,   75.4,   76.9,   78.1,   78.6,   77.5,  999.0,   79.2,  999.0,  999.0,  999.0,  999.0,  999.0,  999.0,  999.0,  999.0,  999.0,  999.0,   78.6,  999.0,   75.8,  999.0,   79.3,  999.0,   75.6,   75.6,   78.5,  999.0,   77.5,   78.7,  999.0,  999.0,   76.3,  999.0,   79.0,   79.0,  999.0,  999.0,  999.0,   78.9,  999.0,   76.1,   75.8,   75.1,   79.5,   70.3,  999.0,   62.1,   65.8,   63.5,   62.9,   51.3,   53.6,   53.8,   49.4,   49.7,   46.3,   43.2,   39.8,   36.7,   35.7,   31.1,   29.1,   29.7,   30.6,   32.7,   35.4,   38.3,   38.1,   33.0,   31.3,   28.5,   27.3,   25.5,   25.9,   28.6,   27.1,   21.5,  999.0,  999.0,   25.4,  999.0,  999.0,  999.0,  999.0,  999.0
1994/01/18 21:15,   14.9,   15.2,   13.6,   16.1,   14.3,   15.6,   18.3,   19.1,   20.1,   20.5,   22.4,   23.9,   26.9,   28.7,   32.5,   34.0,   34.5,   36.3,   36.4,   38.5,   37.4,   38.4,   39.5,   41.6,   45.1,   44.0,   45.2,   47.0,   47.9,   49.4,   53.5,   58.4,   63.2,   70.1,   75.2,   74.7,   75.9,   75.9,   76.1,   74.0,   79.1,  999.0,  999.0,  999.0,  999.0,  999.0,  999.0,   45.1,  999.0,  999.0,  999.0,   78.3,   77.5,   79.4,   74.5,   79.9,   75.2,   77.5,   75.6,   74.7,   78.9,   75.3,   79.8,   79.1,  999.0,   78.4,   78.4,  999.0,   77.8,   78.2,  999.0,  999.0,  999.0,   77.2,  999.0,   73.9,   78.5,   77.1,  999.0,   75.8,  999.0,   63.3,   67.2,   68.9,   61.4,   55.2,   54.2,   55.2,   50.0,   47.5,   46.9,   46.1,   41.8,   37.5,   35.9,   34.0,   31.1,   30.0,   29.5,   32.7,   35.0,   37.0,   37.2,   32.5,   30.2,   29.0,   25.0,   24.7,   25.9,   23.6,   25.0,  999.0,  999.0,   25.6,  999.0,  999.0,  999.0,  999.0,  999.0,  999.0
1994/01/18 21:25,   12.8,   12.8,   11.8,   12.2,   12.7,   13.8,   15.0,   16.6,   18.1,   19.7,   21.5,   24.9,   26.3,   28.1,   30.4,  999.0,   35.4,   36.8,   37.8,   38.8,   37.9,   39.0,   41.4,   43.6,   44.0,   44.0,   44.3,   46.2,   48.9,   52.4,   56.8,   63.6,   71.2,   73.2,   74.4,   75.6,   75.8,   76.0,   76.9,   77.9,   79.4,  999.0,  999.0,  999.0,  999.0,  999.0,  999.0,  999.0,  999.0,  999.0,  999.0,   77.1,   78.4,   79.6,   74.9,   79.1,   75.8,   78.6,   75.7,   78.4,   79.6,   77.4,  999.0,  999.0,  999.0,   79.9,   78.9,   79.7,  999.0,  999.0,  999.0,  999.0,   77.2,  999.0,  999.0,   76.1,   76.0,  999.0,  999.0,  999.0,  999.0,  999.0,   79.0,  999.0,   66.2,   61.3,   58.8,   53.8,   52.4,  999.0,   56.1,  999.0,   45.8,   38.2,   42.5,   38.0,   35.6,   34.0,   32.1,   31.4,   35.8,   36.5,   37.9,   33.7,   31.0,   27.6,   25.6,   24.8,   22.5,   24.8,  999.0,  999.0,  999.0,  999.0,   41.1,  999.0,  999.0,  999.0,  999.0,  999.0
1994/01/18 21:35,   12.7,   12.6,   11.5,   12.8,   14.9,   16.3,   19.0,   19.5,   22.4,   24.6,   26.2,   28.9,   31.7,   33.3,   34.3,   36.3,   38.6,   38.8,   40.4,   40.9,   39.2,   39.8,   40.3,   42.4,   43.4,   45.1,   46.7,   48.2,   51.6,   56.2,   62.9,   69.3,   75.2,   74.9,   76.4,   77.4,   77.3,   77.8,   77.6,   78.7,  999.0,  999.0,  999.0,  999.0,  999.0,  999.0,  999.0,  999.0,  999.0,  999.0,   79.6,   76.3,   78.1,  999.0,   78.0,  999.0,   77.6,   79.9,   76.0,  999.0,  999.0,   79.4,  999.0,  999.0,   79.8,  999.0,  999.0,  999.0,  999.0,  999.0,  999.0,  999.0,  999.0,  999.0,  999.0,  999.0,  999.0,  999.0,  999.0,  999.0,  999.0,   77.0,  999.0,  999.0,  999.0,  999.0,   64.0,  999.0,  999.0,  999.0,  999.0,  999.0,  999.0,   17.9,  999.0,   40.0,   37.3,   35.2,   34.1,   32.9,   36.3,   37.5,   41.6,   36.7,   34.2,   30.5,   26.2,   24.7,   23.2,   23.1,   24.7,   27.7,   23.7,   25.6,  999.0,   20.8,   19.9,   20.6,   15.2,   15.6
1994/01/18 21:45,   12.6,   12.9,   13.3,   13.9,   14.9,   15.9,   21.2,   25.0,   25.8,   27.8,   29.4,   31.2,   34.0,   35.3,   37.5,   38.0,   38.6,   40.4,   39.8,   41.9,   38.8,   38.9,   38.6,   41.2,   43.7,   44.9,   46.0,   47.4,   52.0,   58.3,   65.6,   72.2,   75.7,   75.1,   76.5,   77.4,   77.8,   77.9,   78.2,   80.0,  999.0,  999.0,  999.0,  999.0,  999.0,  999.0,  999.0,  999.0,  999.0,   79.6,  999.0,   79.8,  999.0,   75.9,   79.4,   77.4,   78.8,   78.7,   79.1,  999.0,  999.0,  999.0,  999.0,  999.0,  999.0,  999.0,  999.0,  999.0,  999.0,  999.0,  999.0,  999.0,  999.0,  999.0,  999.0,  999.0,  999.0,  999.0,  999.0,  999.0,  999.0,   77.9,  999.0,  999.0,   69.7,   71.6,   65.5,  999.0,  999.0,  999.0,  999.0,  999.0,  999.0,  999.0,  999.0,   43.9,   37.4,   38.9,   36.7,   33.9,   35.2,   39.6,   42.7,   37.7,   34.4,   30.3,   28.3,   26.2,   24.7,   22.0,   23.7,   25.9,  999.0,  999.0,   26.7,  999.0,  999.0,  999.0,   16.4,   15.9
1994/01/18 21:55,   12.4,   13.1,   13.6,   13.8,   14.8,   17.9,   21.2,   24.3,   24.8,   26.9,   29.2,   30.5,   32.8,   34.7,   35.5,   36.3,   39.5,   40.6,   43.1,   41.2,   40.2,   41.5,   40.8,   41.3,   42.9,   44.3,   46.2,   48.2,   53.5,   60.3,   68.2,   74.0,   72.8,   75.2,   76.5,   77.1,   77.4,   78.3,   78.8,   78.9,  999.0,  999.0,  999.0,  999.0,   79.0,  999.0,  999.0,  999.0,  999.0,   78.1,  999.0,  999.0,  999.0,   77.3,  999.0,   79.7,   76.9,  999.0,  999.0,  999.0,  999.0,  999.0,  999.0,  999.0,  999.0,  999.0,  999.0,  999.0,  999.0,  999.0,  999.0,  999.0,  999.0,  999.0,  999.0,  999.0,  999.0,  999.0,  999.0,  999.0,   78.2,   78.0,   72.8,   75.4,   68.9,  999.0,   64.5,   64.1,  999.0,  999.0,   54.9,  999.0,  999.0,  999.0,  999.0,   43.8,   41.3,   34.0,   33.8,   33.2,   32.4,   36.8,   39.8,   35.7,   33.1,   30.2,   26.8,   24.6,   21.9,   21.0,   19.4,   21.3,   21.7,   21.7,   19.7,   18.3,   15.6,   13.7,    9.9,    6.4
1994/01/18 22:05,   14.3,   16.0,   16.3,   15.3,   16.1,   18.7,   22.2,   24.7,   26.2,   29.1,   30.3,   31.3,   34.2,   35.7,   36.5,   36.3,   37.9,   41.0,   43.7,   42.7,   40.3,   40.8,   42.1,   42.9,   42.7,   45.4,   48.0,   48.6,   54.2,   61.2,   69.3,   72.1,  999.0,   74.9,   75.8,   76.4,   76.1,   74.7,   77.7,   78.2,  999.0,  999.0,  999.0,  999.0,  999.0,   58.7,  999.0,  999.0,   79.4,  999.0,  999.0,  999.0,  999.0,   76.8,  999.0,   77.8,   78.8,  999.0,  999.0,  999.0,  999.0,  999.0,  999.0,   78.1,  999.0,  999.0,  999.0,  999.0,  999.0,  999.0,  999.0,  999.0,  999.0,  999.0,  999.0,  999.0,  999.0,  999.0,  999.0,   72.6,   79.0,   76.3,   71.9,   74.5,   72.1,   64.5,   59.7,   59.1,  999.0,   58.1,   58.9,  999.0,   57.8,   53.0,   48.6,   42.7,  999.0,   34.4,   33.8,   33.9,   34.3,   38.9,   39.9,   38.1,   35.9,   32.7,   29.6,   28.0,   24.8,   23.9,   24.5,   28.0,   23.1,  999.0,  999.0,  999.0,  999.0,  999.0,  999.0,  999.0
1994/01/18 22:15,   16.0,   15.7,   13.9,   15.6,   17.5,   19.2,   22.2,   24.1,   26.0,   29.4,   30.4,   32.3,   34.3,   35.4,   37.7,   37.0,   40.6,   41.9,   44.5,  999.0,   43.5,   42.4,   42.0,   42.1,   43.6,   45.5,   47.5,   47.3,   52.4,   59.5,   66.3,   73.1,  999.0,   73.4,   75.2,   75.7,   74.9,   75.7,   76.9,   76.9,  999.0,  999.0,  999.0,   79.3,  999.0,  999.0,  999.0,  999.0,   78.6,   78.2,  999.0,   79.3,  999.0,   80.0,  999.0,   79.9,   77.2,  999.0,  999.0,   79.6,  999.0,  999.0,  999.0,  999.0,  999.0,  999.0,  999.0,  999.0,  999.0,  999.0,  999.0,  999.0,  999.0,  999.0,  999.0,  999.0,  999.0,  999.0,  999.0,  999.0,   77.2,  999.0,   71.1,   70.5,   68.7,   67.5,   59.7,   60.8,   62.4,   58.8,   59.3,  999.0,   57.1,  999.0,  999.0,   42.4,   42.3,  999.0,   38.3,   35.3,   39.0,   42.2,   42.2,   38.0,   37.1,   35.6,   32.9,   30.3,   28.5,   28.9,   27.6,   31.3,   32.4,   33.9,  999.0,   33.4,   26.9,   25.0,  999.0,  999.0
1994/01/18 22:25,   13.8,   14.2,   14.8,   15.4,   16.8,   18.4,   23.2,   24.8,   28.4,   31.6,   32.4,   35.3,   35.4,   37.2,   38.2,   40.0,   42.7,   43.5,   42.2,   45.1,   43.9,   42.6,   42.4,   41.8,   42.4,   45.4,   46.9,   47.0,   52.3,   59.2,   67.2,   73.4,   71.4,   72.3,   75.2,   75.9,   75.1,   75.1,   75.6,   76.5,  999.0,  999.0,  999.0,  999.0,  999.0,  999.0,  999.0,  999.0,   79.5,  999.0,   79.7,  999.0,   79.9,   79.2,  999.0,  999.0,   75.2,  999.0,  999.0,  999.0,  999.0,  999.0,  999.0,  999.0,  999.0,  999.0,  999.0,  999.0,  999.0,  999.0,  999.0,  999.0,  999.0,  999.0,  999.0,  999.0,  999.0,  999.0,  999.0,  999.0,   75.8,   68.1,   74.1,   75.4,   70.8,  999.0,   62.4,   61.8,   61.2,   62.1,   59.1,  999.0,  999.0,  999.0,   46.9,   43.2,   43.7,   41.9,   43.1,  999.0,   44.3,  999.0,  999.0,  999.0,  999.0,  999.0,  999.0,  999.0,  999.0,  999.0,  999.0,  999.0,  999.0,  999.0,  999.0,  999.0,   29.7,  999.0,  999.0,  999.0
1994/01/18 22:35,   14.7,   15.8,   16.0,   17.1,   18.3,   21.1,   22.7,   25.8,   29.1,   31.1,  999.0,   37.7,   36.2,   37.7,  999.0,   39.6,   41.6,   43.4,  999.0,   41.8,   44.5,   44.7,   43.0,   42.9,   43.1,   44.4,   45.7,   45.3,   49.7,   57.0,   64.3,   71.3,   72.7,   73.2,   74.3,   75.8,   76.0,   75.4,   76.5,   79.4,   58.3,  999.0,  999.0,  999.0,  999.0,   78.6,  999.0,  999.0,  999.0,   79.4,   79.1,  999.0,   79.1,   78.8,  999.0,   78.7,   75.4,   79.7,   79.6,  999.0,  999.0,   79.3,  999.0,   79.6,  999.0,  999.0,  999.0,  999.0,  999.0,  999.0,  999.0,  999.0,   64.8,  999.0,  999.0,  999.0,  999.0,  999.0,  999.0,  999.0,   72.9,   78.3,   76.0,   73.0,   68.2,   64.6,   63.0,   58.1,   59.6,   58.7,   59.3,   56.2,   52.0,  999.0,   44.1,   41.6,   40.5,   37.7,   39.2,   38.0,   40.9,   44.3,   44.9,   43.1,   40.8,   37.7,   35.4,   37.8,   32.5,   30.3,   29.1,   31.1,   33.6,  999.0,   37.6,   34.0,   31.1,   23.8,   20.3,    9.1
1994/01/18 22:45,   15.5,   16.3,   17.3,   16.6,   17.3,   19.3,   21.7,   24.3,   28.2,   29.5,   32.7,   35.5,   36.7,   38.8,   38.1,   40.0,   43.2,   44.7,   44.8,   46.2,   42.2,   44.1,   44.0,   42.9,   43.5,   43.6,   44.6,   46.6,   52.2,   58.7,   66.3,   72.8,   71.8,   73.6,   75.6,   76.1,   76.0,   75.3,   77.0,   78.5,  999.0,  999.0,  999.0,  999.0,  999.0,   77.6,  999.0,   78.2,  999.0,   79.6,  999.0,  999.0,   78.4,   79.5,  999.0,  999.0,   76.0,   79.4,  999.0,  999.0,  999.0,  999.0,  999.0,  999.0,  999.0,  999.0,  999.0,  999.0,  999.0,  999.0,  999.0,  999.0,  999.0,  999.0,  999.0,  999.0,  999.0,  999.0,  999.0,  999.0,   69.0,   73.8,   73.2,   74.7,   64.3,   64.6,   62.9,   59.8,   56.9,   56.6,   56.4,   52.3,   53.1,  999.0,   42.2,   40.0,   40.4,   35.9,   39.0,   38.6,   42.8,   48.3,  999.0,   47.1,   46.4,   41.9,   39.6,  999.0,  999.0,  999.0,  999.0,  999.0,  999.0,   44.7,  999.0,   35.3,   31.9,   26.8,   23.6,  999.0
1994/01/18 22:55,   17.1,   17.0,   17.2,   17.8,   18.2,   19.2,   22.1,   24.6,   25.7,   27.4,   31.4,   35.8,   38.2,   39.0,   38.6,   40.1,   43.9,  999.0,   43.8,   44.7,   43.2,   43.1,   45.2,   43.0,   44.3,   43.8,   44.6,   46.0,   49.8,   55.6,   63.5,   70.5,   70.1,   71.8,   73.8,   75.5,   76.2,   73.6,   78.6,  999.0,  999.0,  999.0,  999.0,  999.0,  999.0,  999.0,  999.0,   79.3,  999.0,  999.0,   79.5,  999.0,  999.0,   78.3,   79.9,   78.9,   77.1,   79.1,  999.0,  999.0,  999.0,   79.3,  999.0,   77.9,  999.0,  999.0,  999.0,  999.0,  999.0,  999.0,  999.0,  999.0,  999.0,  999.0,   79.2,   73.4,  999.0,  999.0,  999.0,  999.0,   76.1,   74.3,   76.6,   71.9,   66.7,   62.5,  999.0,   56.3,   57.4,  999.0,  999.0,  999.0,  999.0,   44.0,   45.4,   39.2,   40.4,   33.1,   34.6,   34.5,   38.5,   42.2,   43.7,   42.6,   37.0,   37.2,   32.5,  999.0,   30.8,   24.8,  999.0,  999.0,  999.0,  999.0,   28.7,   31.1,   26.7,   23.7,   27.3,  999.0
1994/01/18 23:05,   17.4,   17.6,   16.8,   18.2,   18.1,   19.2,   21.5,   24.6,   26.9,   30.0,   34.4,   38.6,   39.9,   39.8,   41.8,   44.4,  999.0,  999.0,   45.4,   45.4,   45.7,   44.8,   44.8,   45.1,   45.3,   44.7,   46.0,   47.6,   51.4,   58.6,   66.5,   68.7,   69.3,   71.8,   73.8,   75.9,   75.1,   72.5,   78.2,  999.0,  999.0,  999.0,  999.0,  999.0,  999.0,  999.0,  999.0,  999.0,   77.5,  999.0,   78.6,   78.9,  999.0,   78.1,   79.4,   77.5,   78.3,   78.7,  999.0,  999.0,  999.0,   79.9,  999.0,  999.0,  999.0,  999.0,   79.7,  999.0,  999.0,  999.0,   79.7,  999.0,  999.0,  999.0,  999.0,  999.0,  999.0,  999.0,  999.0,   73.9,   70.8,   71.5,   72.4,   69.2,   65.5,   62.8,   59.0,   55.1,   57.4,   57.8,   54.0,   51.2,   50.4,   44.1,   43.5,   38.9,   37.4,   31.9,   32.5,   33.3,   35.9,   40.6,   42.2,   40.3,   36.3,   33.4,   31.5,   28.2,   27.2,   23.4,   20.8,   20.6,   18.9,   29.5,   23.3,   24.1,   22.5,   17.1,  999.0,  999.0
1994/01/18 23:15,   18.3,   16.9,   18.2,   16.9,   17.7,   19.1,   22.3,   25.0,   28.0,   31.6,   35.6,   39.8,   40.3,   40.5,   42.4,   45.4,  999.0,   46.0,   47.7,   45.3,   46.0,   46.9,   45.7,   45.8,   45.3,   46.3,   47.2,   51.0,   56.3,   63.7,   68.4,   69.3,   69.8,   72.7,   74.8,   73.9,   74.1,   74.4,   74.7,   77.1,   78.0,  999.0,  999.0,  999.0,  999.0,  999.0,  999.0,  999.0,  999.0,   79.9,  999.0,  999.0,  999.0,   79.6,  999.0,   77.7,  999.0,   77.9,  999.0,   79.9,  999.0,  999.0,  999.0,  999.0,  999.0,  999.0,  999.0,   71.1,  999.0,  999.0,  999.0,  999.0,  999.0,  999.0,  999.0,  999.0,  999.0,  999.0,  999.0,   77.4,   73.0,   70.1,   68.3,   69.5,   70.5,   62.2,   62.8,   57.4,   59.2,   59.3,   59.5,   52.9,   53.6,   48.2,   40.8,   39.0,  999.0,  999.0,   34.6,   29.9,   33.3,   36.4,   38.5,   38.7,   35.4,   31.9,   28.6,   27.2,   27.8,   25.2,   18.0,   19.1,   18.7,   22.2,   23.8,   24.0,   18.5,  999.0,   15.5,  999.0
1994/01/18 23:25,   17.0,   17.3,   16.9,   16.6,   17.3,   19.1,   20.9,   23.8,   25.8,   30.4,   34.2,   37.7,   40.3,   41.1,   43.4,   46.4,   45.3,   48.0,   48.1,   45.1,   45.5,   47.0,   47.1,   46.4,   47.2,   48.4,   51.0,   53.4,   60.9,   67.3,   67.5,   70.9,   68.7,   70.4,   71.2,   71.8,   73.4,   74.3,   74.4,   75.0,   77.8,   78.5,  999.0,    0.0,  999.0,  999.0,   74.6,  999.0,   75.9,  999.0,   79.3,  999.0,   77.8,  999.0,   78.2,  999.0,  999.0,  999.0,  999.0,  999.0,  999.0,  999.0,  999.0,   79.9,  999.0,  999.0,  999.0,  999.0,  999.0,  999.0,  999.0,  999.0,  999.0,  999.0,  999.0,  999.0,  999.0,  999.0,  999.0,  999.0,   77.7,   77.3,   73.3,   75.9,   67.5,   67.7,   70.6,   65.4,   61.1,   61.9,   60.8,   58.0,   53.7,   51.1,   46.7,   40.8,   11.4,  999.0,   29.5,   32.2,   30.3,   35.5,   38.3,   45.5,   35.4,   35.1,   31.9,   29.1,   27.3,   25.2,   24.1,   22.8,   22.9,   25.1,   27.9,  999.0,  999.0,   22.1,  999.0,  999.0
1994/01/18 23:35,   15.0,   15.2,   17.3,   16.9,   17.1,   18.5,   20.8,   24.5,   26.4,   32.0,   34.6,   39.7,   41.7,   42.2,   45.8,   45.8,   48.9,   47.7,   48.3,  999.0,   47.1,   46.3,   48.0,   49.6,   48.9,   52.2,   50.8,   56.7,   63.2,   67.5,   67.3,   70.6,  999.0,   66.8,   70.8,   71.8,   72.9,   74.8,   75.4,   72.1,   78.3,   78.1,  999.0,  999.0,  999.0,  999.0,   78.2,  999.0,   77.8,  999.0,  999.0,   78.9,   79.8,  999.0,   78.4,  999.0,  999.0,  999.0,  999.0,   78.7,  999.0,  999.0,  999.0,  999.0,  999.0,   76.3,  999.0,  999.0,  999.0,  999.0,   49.7,  999.0,  999.0,  999.0,  999.0,  999.0,  999.0,  999.0,   79.3,  999.0,   74.5,   78.8,   75.5,   76.2,   69.0,   68.1,   65.2,   64.0,   61.9,   62.5,   59.9,   52.0,   48.8,   44.9,  999.0,  999.0,  999.0,  999.0,   26.2,   27.7,   30.2,   33.2,   33.2,   36.6,   35.1,   32.1,   30.3,   26.4,   24.1,   23.1,   21.9,   20.4,   18.4,   20.3,   25.3,   28.0,  999.0,  999.0,  999.0,  999.0
1994/01/18 23:45,   16.4,   16.2,   18.6,   18.2,   18.1,   18.5,   19.8,   22.7,   27.4,   31.6,   35.7,   40.5,   41.4,   43.2,   45.7,   46.6,   49.0,  999.0,  999.0,   48.6,   48.1,   48.8,   49.7,   48.3,   50.7,   51.7,   51.6,   57.8,   64.5,   67.5,   69.3,   70.9,   69.1,   71.1,   71.5,   73.6,   75.0,   73.1,   74.4,   72.2,   78.9,   78.3,  999.0,  999.0,  999.0,  999.0,   78.5,  999.0,   76.1,  999.0,  999.0,  999.0,   78.5,  999.0,   79.3,  999.0,  999.0,  999.0,  999.0,  999.0,  999.0,  999.0,  999.0,  999.0,  999.0,  999.0,  999.0,  999.0,  999.0,  999.0,  999.0,  999.0,  999.0,  999.0,  999.0,  999.0,  999.0,  999.0,  999.0,  999.0,   75.3,  999.0,   77.0,   74.5,   71.3,   68.7,   67.5,   60.7,   62.0,   63.3,   59.6,   49.1,   44.8,   41.5,   40.7,  999.0,  999.0,  999.0,  999.0,   28.7,   31.7,   32.6,   30.9,   35.0,   33.8,   31.7,   28.6,   27.2,   24.0,   22.5,   21.9,   22.1,   20.0,   21.6,   26.0,   32.2,   31.2,  999.0,   20.1,  999.0
1994/01/18 23:55,   13.4,   12.4,   15.4,   17.3,   18.5,   18.8,   21.0,   24.4,   28.2,   31.7,   37.6,   40.2,   39.8,   43.8,   45.3,   47.0,   48.5,  999.0,  999.0,   47.5,   47.7,   48.7,   48.6,   50.4,   52.5,   51.0,   53.1,   60.1,   65.6,   67.0,   68.9,   71.4,   68.4,   70.9,   72.0,   73.0,   72.5,   72.5,   72.1,   72.9,   75.4,   76.4,   77.6,  999.0,  999.0,  999.0,  999.0,   78.5,  999.0,   78.0,  999.0,  999.0,  999.0,   78.4,   79.7,   76.9,  999.0,  999.0,  999.0,   76.6,  999.0,  999.0,  999.0,  999.0,  999.0,  999.0,  999.0,  999.0,  999.0,  999.0,  999.0,  999.0,  999.0,  999.0,  999.0,  999.0,   75.6,  999.0,  999.0,  999.0,  999.0,   73.5,   74.4,   72.8,   69.8,   65.5,   65.4,   58.0,   58.1,   58.8,   57.6,   51.2,   46.5,   43.1,   41.4,   35.0,  999.0,  999.0,   28.7,   31.5,   32.6,  999.0,  999.0,   33.5,  999.0,   28.9,   28.3,   26.2,   23.9,   22.7,   22.3,   21.6,   21.6,   25.5,   30.7,   34.4,   32.6,   26.5,   25.7,   21.7
